<?xml version="1.0" encoding="UTF-8" standalone="no" ?>
<gpx xmlns="http://www.topografix.com/GPX/1/1" xmlns:xsi="http://www.w3.org/2001/XMLSchema-instance" xsi:schemaLocation="http://www.topografix.com/GPX/1/1 http://www.topografix.com/GPX/1/1/gpx.xsd" version="1.1" creator="VisuGPX - https://www.visugpx.com">
  <metadata>
    <name>2023-06-03_13-56_Sat Boissy l'Aillerie</name>
  </metadata>
  <trk>
    <name><![CDATA[2023-06-03_13-56_Sat Boissy l'Aillerie_1]]></name>
    <trkseg>
      <trkpt lat="49.07579" lon="2.02638">
        <ele>86.6</ele>
        <time>2023-06-03T11:56:26Z</time>
      </trkpt>
      <trkpt lat="49.07579" lon="2.02643">
        <ele>86.6</ele>
        <time>2023-06-03T11:56:32Z</time>
      </trkpt>
      <trkpt lat="49.07578" lon="2.02656">
        <ele>86.6</ele>
        <time>2023-06-03T11:56:38Z</time>
      </trkpt>
      <trkpt lat="49.07572" lon="2.02665">
        <ele>86.6</ele>
        <time>2023-06-03T11:56:43Z</time>
      </trkpt>
      <trkpt lat="49.0757" lon="2.02676">
        <ele>86.6</ele>
        <time>2023-06-03T11:56:49Z</time>
      </trkpt>
      <trkpt lat="49.07569" lon="2.02682">
        <ele>86.6</ele>
        <time>2023-06-03T11:56:54Z</time>
      </trkpt>
      <trkpt lat="49.07568" lon="2.02691">
        <ele>86.6</ele>
        <time>2023-06-03T11:56:59Z</time>
      </trkpt>
      <trkpt lat="49.07562" lon="2.02708">
        <ele>86.6</ele>
        <time>2023-06-03T11:57:04Z</time>
      </trkpt>
      <trkpt lat="49.07558" lon="2.02723">
        <ele>88.1</ele>
        <time>2023-06-03T11:57:09Z</time>
      </trkpt>
      <trkpt lat="49.07555" lon="2.02732">
        <ele>88.3</ele>
        <time>2023-06-03T11:57:15Z</time>
      </trkpt>
      <trkpt lat="49.07554" lon="2.02738">
        <ele>88.4</ele>
        <time>2023-06-03T11:57:20Z</time>
      </trkpt>
      <trkpt lat="49.07552" lon="2.02744">
        <ele>88.5</ele>
        <time>2023-06-03T11:57:28Z</time>
      </trkpt>
      <trkpt lat="49.07543" lon="2.02774">
        <ele>89</ele>
        <time>2023-06-03T11:57:34Z</time>
      </trkpt>
      <trkpt lat="49.07541" lon="2.02787">
        <ele>89.2</ele>
        <time>2023-06-03T11:57:40Z</time>
      </trkpt>
      <trkpt lat="49.0754" lon="2.02799">
        <ele>89.3</ele>
        <time>2023-06-03T11:57:45Z</time>
      </trkpt>
      <trkpt lat="49.0754" lon="2.02809">
        <ele>89.3</ele>
        <time>2023-06-03T11:57:50Z</time>
      </trkpt>
      <trkpt lat="49.0754" lon="2.02814">
        <ele>89.2</ele>
        <time>2023-06-03T11:57:55Z</time>
      </trkpt>
      <trkpt lat="49.07539" lon="2.02823">
        <ele>89.1</ele>
        <time>2023-06-03T11:58:01Z</time>
      </trkpt>
      <trkpt lat="49.07536" lon="2.02831">
        <ele>89.1</ele>
        <time>2023-06-03T11:58:06Z</time>
      </trkpt>
      <trkpt lat="49.07533" lon="2.02838">
        <ele>89.5</ele>
        <time>2023-06-03T11:58:11Z</time>
      </trkpt>
      <trkpt lat="49.0753" lon="2.02849">
        <ele>90.5</ele>
        <time>2023-06-03T11:58:17Z</time>
      </trkpt>
      <trkpt lat="49.07529" lon="2.02859">
        <ele>91.5</ele>
        <time>2023-06-03T11:58:22Z</time>
      </trkpt>
      <trkpt lat="49.07526" lon="2.02874">
        <ele>92.6</ele>
        <time>2023-06-03T11:58:27Z</time>
      </trkpt>
      <trkpt lat="49.07522" lon="2.0289">
        <ele>93.7</ele>
        <time>2023-06-03T11:58:33Z</time>
      </trkpt>
      <trkpt lat="49.07517" lon="2.02899">
        <ele>94.4</ele>
        <time>2023-06-03T11:58:38Z</time>
      </trkpt>
      <trkpt lat="49.07512" lon="2.02905">
        <ele>95.2</ele>
        <time>2023-06-03T11:58:43Z</time>
      </trkpt>
      <trkpt lat="49.07505" lon="2.02905">
        <ele>95.7</ele>
        <time>2023-06-03T11:58:49Z</time>
      </trkpt>
      <trkpt lat="49.07497" lon="2.02902">
        <ele>96.1</ele>
        <time>2023-06-03T11:58:55Z</time>
      </trkpt>
      <trkpt lat="49.07494" lon="2.02901">
        <ele>96.1</ele>
        <time>2023-06-03T11:59:00Z</time>
      </trkpt>
      <trkpt lat="49.07495" lon="2.02903">
        <ele>96</ele>
        <time>2023-06-03T11:59:05Z</time>
      </trkpt>
      <trkpt lat="49.07496" lon="2.02903">
        <ele>95.8</ele>
        <time>2023-06-03T11:59:11Z</time>
      </trkpt>
      <trkpt lat="49.07496" lon="2.029">
        <ele>95.7</ele>
        <time>2023-06-03T11:59:16Z</time>
      </trkpt>
      <trkpt lat="49.07497" lon="2.02896">
        <ele>95.9</ele>
        <time>2023-06-03T11:59:22Z</time>
      </trkpt>
      <trkpt lat="49.07497" lon="2.02895">
        <ele>96.1</ele>
        <time>2023-06-03T11:59:27Z</time>
      </trkpt>
      <trkpt lat="49.07497" lon="2.02896">
        <ele>96.2</ele>
        <time>2023-06-03T11:59:33Z</time>
      </trkpt>
      <trkpt lat="49.07496" lon="2.02895">
        <ele>96.2</ele>
        <time>2023-06-03T11:59:38Z</time>
      </trkpt>
      <trkpt lat="49.07489" lon="2.02891">
        <ele>96</ele>
        <time>2023-06-03T11:59:44Z</time>
      </trkpt>
      <trkpt lat="49.07484" lon="2.02884">
        <ele>95.7</ele>
        <time>2023-06-03T11:59:49Z</time>
      </trkpt>
      <trkpt lat="49.07479" lon="2.02879">
        <ele>95</ele>
        <time>2023-06-03T11:59:55Z</time>
      </trkpt>
      <trkpt lat="49.07472" lon="2.02882">
        <ele>94.4</ele>
        <time>2023-06-03T12:00:00Z</time>
      </trkpt>
      <trkpt lat="49.07467" lon="2.02891">
        <ele>94</ele>
        <time>2023-06-03T12:00:06Z</time>
      </trkpt>
      <trkpt lat="49.07461" lon="2.02901">
        <ele>93.7</ele>
        <time>2023-06-03T12:00:12Z</time>
      </trkpt>
      <trkpt lat="49.07454" lon="2.02909">
        <ele>93.2</ele>
        <time>2023-06-03T12:00:17Z</time>
      </trkpt>
      <trkpt lat="49.07446" lon="2.02915">
        <ele>92.7</ele>
        <time>2023-06-03T12:00:23Z</time>
      </trkpt>
      <trkpt lat="49.07439" lon="2.02918">
        <ele>92.2</ele>
        <time>2023-06-03T12:00:29Z</time>
      </trkpt>
      <trkpt lat="49.07434" lon="2.02921">
        <ele>91.9</ele>
        <time>2023-06-03T12:00:34Z</time>
      </trkpt>
      <trkpt lat="49.0743" lon="2.02928">
        <ele>91.5</ele>
        <time>2023-06-03T12:00:40Z</time>
      </trkpt>
      <trkpt lat="49.07423" lon="2.02933">
        <ele>91</ele>
        <time>2023-06-03T12:00:46Z</time>
      </trkpt>
      <trkpt lat="49.07421" lon="2.02938">
        <ele>90.6</ele>
        <time>2023-06-03T12:00:51Z</time>
      </trkpt>
      <trkpt lat="49.07413" lon="2.02941">
        <ele>90.3</ele>
        <time>2023-06-03T12:00:57Z</time>
      </trkpt>
      <trkpt lat="49.07403" lon="2.02943">
        <ele>90.3</ele>
        <time>2023-06-03T12:01:02Z</time>
      </trkpt>
      <trkpt lat="49.07393" lon="2.02948">
        <ele>90.3</ele>
        <time>2023-06-03T12:01:08Z</time>
      </trkpt>
      <trkpt lat="49.07388" lon="2.02948">
        <ele>90.3</ele>
        <time>2023-06-03T12:01:13Z</time>
      </trkpt>
      <trkpt lat="49.07384" lon="2.02943">
        <ele>89.9</ele>
        <time>2023-06-03T12:01:18Z</time>
      </trkpt>
      <trkpt lat="49.07378" lon="2.02936">
        <ele>90</ele>
        <time>2023-06-03T12:01:24Z</time>
      </trkpt>
      <trkpt lat="49.07371" lon="2.02927">
        <ele>90</ele>
        <time>2023-06-03T12:01:30Z</time>
      </trkpt>
      <trkpt lat="49.07369" lon="2.02921">
        <ele>89.7</ele>
        <time>2023-06-03T12:01:36Z</time>
      </trkpt>
      <trkpt lat="49.07373" lon="2.02907">
        <ele>88.1</ele>
        <time>2023-06-03T12:01:41Z</time>
      </trkpt>
      <trkpt lat="49.07371" lon="2.02896">
        <ele>88.1</ele>
        <time>2023-06-03T12:01:46Z</time>
      </trkpt>
      <trkpt lat="49.0737" lon="2.02884">
        <ele>88.1</ele>
        <time>2023-06-03T12:01:52Z</time>
      </trkpt>
      <trkpt lat="49.07369" lon="2.02874">
        <ele>88.1</ele>
        <time>2023-06-03T12:01:57Z</time>
      </trkpt>
      <trkpt lat="49.07369" lon="2.02861">
        <ele>88.1</ele>
        <time>2023-06-03T12:02:03Z</time>
      </trkpt>
      <trkpt lat="49.07369" lon="2.02851">
        <ele>88.1</ele>
        <time>2023-06-03T12:02:08Z</time>
      </trkpt>
      <trkpt lat="49.07369" lon="2.02842">
        <ele>88.1</ele>
        <time>2023-06-03T12:02:13Z</time>
      </trkpt>
      <trkpt lat="49.07369" lon="2.02831">
        <ele>88.1</ele>
        <time>2023-06-03T12:02:19Z</time>
      </trkpt>
      <trkpt lat="49.07366" lon="2.0282">
        <ele>88.1</ele>
        <time>2023-06-03T12:02:25Z</time>
      </trkpt>
      <trkpt lat="49.07363" lon="2.02807">
        <ele>94.5</ele>
        <time>2023-06-03T12:02:31Z</time>
      </trkpt>
      <trkpt lat="49.07361" lon="2.02798">
        <ele>95.7</ele>
        <time>2023-06-03T12:02:36Z</time>
      </trkpt>
      <trkpt lat="49.07357" lon="2.02788">
        <ele>96.9</ele>
        <time>2023-06-03T12:02:42Z</time>
      </trkpt>
      <trkpt lat="49.07355" lon="2.02781">
        <ele>98</ele>
        <time>2023-06-03T12:02:47Z</time>
      </trkpt>
      <trkpt lat="49.07353" lon="2.02776">
        <ele>99.3</ele>
        <time>2023-06-03T12:02:53Z</time>
      </trkpt>
      <trkpt lat="49.07348" lon="2.02769">
        <ele>100.7</ele>
        <time>2023-06-03T12:02:59Z</time>
      </trkpt>
      <trkpt lat="49.07345" lon="2.02761">
        <ele>102.1</ele>
        <time>2023-06-03T12:03:04Z</time>
      </trkpt>
      <trkpt lat="49.07343" lon="2.02753">
        <ele>103.6</ele>
        <time>2023-06-03T12:03:09Z</time>
      </trkpt>
      <trkpt lat="49.07341" lon="2.02739">
        <ele>105.2</ele>
        <time>2023-06-03T12:03:15Z</time>
      </trkpt>
      <trkpt lat="49.07337" lon="2.02722">
        <ele>106.4</ele>
        <time>2023-06-03T12:03:21Z</time>
      </trkpt>
      <trkpt lat="49.07333" lon="2.02712">
        <ele>107.3</ele>
        <time>2023-06-03T12:03:26Z</time>
      </trkpt>
      <trkpt lat="49.07329" lon="2.02703">
        <ele>108.4</ele>
        <time>2023-06-03T12:03:32Z</time>
      </trkpt>
      <trkpt lat="49.07324" lon="2.02697">
        <ele>109.2</ele>
        <time>2023-06-03T12:03:38Z</time>
      </trkpt>
      <trkpt lat="49.07319" lon="2.02691">
        <ele>110</ele>
        <time>2023-06-03T12:03:43Z</time>
      </trkpt>
      <trkpt lat="49.07312" lon="2.02688">
        <ele>110.8</ele>
        <time>2023-06-03T12:03:49Z</time>
      </trkpt>
      <trkpt lat="49.07307" lon="2.02682">
        <ele>111.4</ele>
        <time>2023-06-03T12:03:54Z</time>
      </trkpt>
      <trkpt lat="49.073" lon="2.02679">
        <ele>112</ele>
        <time>2023-06-03T12:04:00Z</time>
      </trkpt>
      <trkpt lat="49.07292" lon="2.02673">
        <ele>112.5</ele>
        <time>2023-06-03T12:04:06Z</time>
      </trkpt>
      <trkpt lat="49.07287" lon="2.02669">
        <ele>112.8</ele>
        <time>2023-06-03T12:04:11Z</time>
      </trkpt>
      <trkpt lat="49.07282" lon="2.02662">
        <ele>99.3</ele>
        <time>2023-06-03T12:04:16Z</time>
      </trkpt>
      <trkpt lat="49.07276" lon="2.02659">
        <ele>104.9</ele>
        <time>2023-06-03T12:04:22Z</time>
      </trkpt>
      <trkpt lat="49.07269" lon="2.02655">
        <ele>104.9</ele>
        <time>2023-06-03T12:04:28Z</time>
      </trkpt>
      <trkpt lat="49.07263" lon="2.02653">
        <ele>104.9</ele>
        <time>2023-06-03T12:04:34Z</time>
      </trkpt>
      <trkpt lat="49.07261" lon="2.02644">
        <ele>104.9</ele>
        <time>2023-06-03T12:04:39Z</time>
      </trkpt>
      <trkpt lat="49.07255" lon="2.02631">
        <ele>104.9</ele>
        <time>2023-06-03T12:04:45Z</time>
      </trkpt>
      <trkpt lat="49.07254" lon="2.02627">
        <ele>104.9</ele>
        <time>2023-06-03T12:04:51Z</time>
      </trkpt>
      <trkpt lat="49.07254" lon="2.02626">
        <ele>104.9</ele>
        <time>2023-06-03T12:04:56Z</time>
      </trkpt>
      <trkpt lat="49.07254" lon="2.02626">
        <ele>104.9</ele>
        <time>2023-06-03T12:05:02Z</time>
      </trkpt>
      <trkpt lat="49.07256" lon="2.02628">
        <ele>104.9</ele>
        <time>2023-06-03T12:05:07Z</time>
      </trkpt>
      <trkpt lat="49.07263" lon="2.02632">
        <ele>113.9</ele>
        <time>2023-06-03T12:05:13Z</time>
      </trkpt>
      <trkpt lat="49.07274" lon="2.02637">
        <ele>113.6</ele>
        <time>2023-06-03T12:05:19Z</time>
      </trkpt>
      <trkpt lat="49.07277" lon="2.02641">
        <ele>113.2</ele>
        <time>2023-06-03T12:05:24Z</time>
      </trkpt>
      <trkpt lat="49.07281" lon="2.02639">
        <ele>113</ele>
        <time>2023-06-03T12:05:29Z</time>
      </trkpt>
      <trkpt lat="49.07283" lon="2.02629">
        <ele>112.8</ele>
        <time>2023-06-03T12:05:35Z</time>
      </trkpt>
      <trkpt lat="49.07284" lon="2.02617">
        <ele>112.4</ele>
        <time>2023-06-03T12:05:41Z</time>
      </trkpt>
      <trkpt lat="49.07285" lon="2.02609">
        <ele>112</ele>
        <time>2023-06-03T12:05:46Z</time>
      </trkpt>
      <trkpt lat="49.07287" lon="2.02596">
        <ele>111.6</ele>
        <time>2023-06-03T12:05:52Z</time>
      </trkpt>
      <trkpt lat="49.0729" lon="2.02585">
        <ele>111.4</ele>
        <time>2023-06-03T12:05:57Z</time>
      </trkpt>
      <trkpt lat="49.07292" lon="2.02573">
        <ele>111.2</ele>
        <time>2023-06-03T12:06:02Z</time>
      </trkpt>
      <trkpt lat="49.07293" lon="2.02557">
        <ele>111.2</ele>
        <time>2023-06-03T12:06:08Z</time>
      </trkpt>
      <trkpt lat="49.07294" lon="2.02548">
        <ele>111.4</ele>
        <time>2023-06-03T12:06:13Z</time>
      </trkpt>
      <trkpt lat="49.07296" lon="2.02535">
        <ele>111.9</ele>
        <time>2023-06-03T12:06:19Z</time>
      </trkpt>
      <trkpt lat="49.07298" lon="2.02524">
        <ele>112.5</ele>
        <time>2023-06-03T12:06:24Z</time>
      </trkpt>
      <trkpt lat="49.07299" lon="2.02512">
        <ele>113.1</ele>
        <time>2023-06-03T12:06:30Z</time>
      </trkpt>
      <trkpt lat="49.07298" lon="2.02501">
        <ele>113.6</ele>
        <time>2023-06-03T12:06:35Z</time>
      </trkpt>
      <trkpt lat="49.07297" lon="2.02491">
        <ele>114.2</ele>
        <time>2023-06-03T12:06:41Z</time>
      </trkpt>
      <trkpt lat="49.07296" lon="2.02483">
        <ele>114.6</ele>
        <time>2023-06-03T12:06:46Z</time>
      </trkpt>
      <trkpt lat="49.07294" lon="2.02471">
        <ele>115.1</ele>
        <time>2023-06-03T12:06:52Z</time>
      </trkpt>
      <trkpt lat="49.07292" lon="2.02461">
        <ele>115.2</ele>
        <time>2023-06-03T12:06:57Z</time>
      </trkpt>
      <trkpt lat="49.0729" lon="2.02453">
        <ele>115.2</ele>
        <time>2023-06-03T12:07:02Z</time>
      </trkpt>
      <trkpt lat="49.07288" lon="2.02444">
        <ele>114.8</ele>
        <time>2023-06-03T12:07:07Z</time>
      </trkpt>
      <trkpt lat="49.07285" lon="2.02434">
        <ele>114.3</ele>
        <time>2023-06-03T12:07:12Z</time>
      </trkpt>
      <trkpt lat="49.07285" lon="2.02424">
        <ele>113.8</ele>
        <time>2023-06-03T12:07:18Z</time>
      </trkpt>
      <trkpt lat="49.07284" lon="2.02411">
        <ele>113.6</ele>
        <time>2023-06-03T12:07:23Z</time>
      </trkpt>
      <trkpt lat="49.07283" lon="2.02397">
        <ele>113.5</ele>
        <time>2023-06-03T12:07:29Z</time>
      </trkpt>
      <trkpt lat="49.07281" lon="2.02386">
        <ele>113.4</ele>
        <time>2023-06-03T12:07:34Z</time>
      </trkpt>
      <trkpt lat="49.07278" lon="2.02378">
        <ele>113.2</ele>
        <time>2023-06-03T12:07:39Z</time>
      </trkpt>
      <trkpt lat="49.07276" lon="2.0237">
        <ele>113.2</ele>
        <time>2023-06-03T12:07:44Z</time>
      </trkpt>
      <trkpt lat="49.07273" lon="2.02362">
        <ele>113.3</ele>
        <time>2023-06-03T12:07:49Z</time>
      </trkpt>
      <trkpt lat="49.0727" lon="2.02355">
        <ele>113.5</ele>
        <time>2023-06-03T12:07:54Z</time>
      </trkpt>
      <trkpt lat="49.07264" lon="2.02344">
        <ele>114</ele>
        <time>2023-06-03T12:08:00Z</time>
      </trkpt>
      <trkpt lat="49.07256" lon="2.02333">
        <ele>114.6</ele>
        <time>2023-06-03T12:08:06Z</time>
      </trkpt>
      <trkpt lat="49.07252" lon="2.02325">
        <ele>115</ele>
        <time>2023-06-03T12:08:11Z</time>
      </trkpt>
      <trkpt lat="49.07247" lon="2.02314">
        <ele>115.5</ele>
        <time>2023-06-03T12:08:17Z</time>
      </trkpt>
      <trkpt lat="49.07242" lon="2.02301">
        <ele>116.1</ele>
        <time>2023-06-03T12:08:23Z</time>
      </trkpt>
      <trkpt lat="49.07238" lon="2.02291">
        <ele>116.7</ele>
        <time>2023-06-03T12:08:29Z</time>
      </trkpt>
      <trkpt lat="49.07235" lon="2.02279">
        <ele>117.2</ele>
        <time>2023-06-03T12:08:35Z</time>
      </trkpt>
      <trkpt lat="49.07231" lon="2.0227">
        <ele>117.9</ele>
        <time>2023-06-03T12:08:41Z</time>
      </trkpt>
      <trkpt lat="49.07229" lon="2.0226">
        <ele>118.6</ele>
        <time>2023-06-03T12:08:47Z</time>
      </trkpt>
      <trkpt lat="49.07228" lon="2.02251">
        <ele>119.1</ele>
        <time>2023-06-03T12:08:52Z</time>
      </trkpt>
      <trkpt lat="49.07225" lon="2.0224">
        <ele>119.7</ele>
        <time>2023-06-03T12:08:58Z</time>
      </trkpt>
      <trkpt lat="49.0722" lon="2.02231">
        <ele>120.2</ele>
        <time>2023-06-03T12:09:03Z</time>
      </trkpt>
      <trkpt lat="49.07216" lon="2.02222">
        <ele>120.8</ele>
        <time>2023-06-03T12:09:08Z</time>
      </trkpt>
      <trkpt lat="49.07212" lon="2.02212">
        <ele>121.6</ele>
        <time>2023-06-03T12:09:14Z</time>
      </trkpt>
      <trkpt lat="49.0721" lon="2.02204">
        <ele>122.2</ele>
        <time>2023-06-03T12:09:19Z</time>
      </trkpt>
      <trkpt lat="49.07207" lon="2.02195">
        <ele>123.1</ele>
        <time>2023-06-03T12:09:25Z</time>
      </trkpt>
      <trkpt lat="49.07207" lon="2.02187">
        <ele>123.8</ele>
        <time>2023-06-03T12:09:30Z</time>
      </trkpt>
      <trkpt lat="49.07202" lon="2.02177">
        <ele>124.7</ele>
        <time>2023-06-03T12:09:36Z</time>
      </trkpt>
      <trkpt lat="49.07196" lon="2.02167">
        <ele>125.5</ele>
        <time>2023-06-03T12:09:42Z</time>
      </trkpt>
      <trkpt lat="49.07191" lon="2.02157">
        <ele>126.2</ele>
        <time>2023-06-03T12:09:48Z</time>
      </trkpt>
      <trkpt lat="49.07187" lon="2.02147">
        <ele>126.9</ele>
        <time>2023-06-03T12:09:53Z</time>
      </trkpt>
      <trkpt lat="49.07184" lon="2.02137">
        <ele>128.3</ele>
        <time>2023-06-03T12:09:59Z</time>
      </trkpt>
      <trkpt lat="49.07181" lon="2.02127">
        <ele>129.7</ele>
        <time>2023-06-03T12:10:05Z</time>
      </trkpt>
      <trkpt lat="49.07178" lon="2.02117">
        <ele>130.6</ele>
        <time>2023-06-03T12:10:11Z</time>
      </trkpt>
      <trkpt lat="49.07178" lon="2.02104">
        <ele>131.3</ele>
        <time>2023-06-03T12:10:17Z</time>
      </trkpt>
      <trkpt lat="49.07175" lon="2.02095">
        <ele>131.8</ele>
        <time>2023-06-03T12:10:23Z</time>
      </trkpt>
      <trkpt lat="49.07173" lon="2.02085">
        <ele>132.2</ele>
        <time>2023-06-03T12:10:28Z</time>
      </trkpt>
      <trkpt lat="49.07172" lon="2.02073">
        <ele>132.8</ele>
        <time>2023-06-03T12:10:34Z</time>
      </trkpt>
      <trkpt lat="49.0717" lon="2.02063">
        <ele>133.1</ele>
        <time>2023-06-03T12:10:39Z</time>
      </trkpt>
      <trkpt lat="49.07171" lon="2.02053">
        <ele>133.5</ele>
        <time>2023-06-03T12:10:44Z</time>
      </trkpt>
      <trkpt lat="49.0717" lon="2.02043">
        <ele>133.9</ele>
        <time>2023-06-03T12:10:49Z</time>
      </trkpt>
      <trkpt lat="49.0717" lon="2.02029">
        <ele>134.5</ele>
        <time>2023-06-03T12:10:55Z</time>
      </trkpt>
      <trkpt lat="49.07168" lon="2.02016">
        <ele>135.2</ele>
        <time>2023-06-03T12:11:01Z</time>
      </trkpt>
      <trkpt lat="49.07167" lon="2.02005">
        <ele>135.7</ele>
        <time>2023-06-03T12:11:07Z</time>
      </trkpt>
      <trkpt lat="49.07165" lon="2.01996">
        <ele>136.2</ele>
        <time>2023-06-03T12:11:12Z</time>
      </trkpt>
      <trkpt lat="49.07162" lon="2.01986">
        <ele>136.6</ele>
        <time>2023-06-03T12:11:18Z</time>
      </trkpt>
      <trkpt lat="49.07159" lon="2.01979">
        <ele>136.6</ele>
        <time>2023-06-03T12:11:23Z</time>
      </trkpt>
      <trkpt lat="49.07153" lon="2.01974">
        <ele>136.4</ele>
        <time>2023-06-03T12:11:28Z</time>
      </trkpt>
      <trkpt lat="49.07148" lon="2.01978">
        <ele>136.1</ele>
        <time>2023-06-03T12:11:34Z</time>
      </trkpt>
      <trkpt lat="49.07141" lon="2.01984">
        <ele>136.1</ele>
        <time>2023-06-03T12:11:40Z</time>
      </trkpt>
      <trkpt lat="49.07135" lon="2.0199">
        <ele>136.3</ele>
        <time>2023-06-03T12:11:45Z</time>
      </trkpt>
      <trkpt lat="49.07127" lon="2.01997">
        <ele>136.5</ele>
        <time>2023-06-03T12:11:51Z</time>
      </trkpt>
      <trkpt lat="49.07122" lon="2.02002">
        <ele>136.7</ele>
        <time>2023-06-03T12:11:56Z</time>
      </trkpt>
      <trkpt lat="49.07116" lon="2.02008">
        <ele>137.1</ele>
        <time>2023-06-03T12:12:02Z</time>
      </trkpt>
      <trkpt lat="49.07106" lon="2.02015">
        <ele>137.6</ele>
        <time>2023-06-03T12:12:08Z</time>
      </trkpt>
      <trkpt lat="49.07098" lon="2.02021">
        <ele>137.8</ele>
        <time>2023-06-03T12:12:14Z</time>
      </trkpt>
      <trkpt lat="49.07092" lon="2.02025">
        <ele>138</ele>
        <time>2023-06-03T12:12:19Z</time>
      </trkpt>
      <trkpt lat="49.07083" lon="2.02027">
        <ele>138.4</ele>
        <time>2023-06-03T12:12:25Z</time>
      </trkpt>
      <trkpt lat="49.07077" lon="2.02027">
        <ele>138.6</ele>
        <time>2023-06-03T12:12:30Z</time>
      </trkpt>
      <trkpt lat="49.07069" lon="2.0203">
        <ele>138.8</ele>
        <time>2023-06-03T12:12:35Z</time>
      </trkpt>
      <trkpt lat="49.0706" lon="2.02032">
        <ele>138.7</ele>
        <time>2023-06-03T12:12:41Z</time>
      </trkpt>
      <trkpt lat="49.07051" lon="2.02037">
        <ele>138.7</ele>
        <time>2023-06-03T12:12:47Z</time>
      </trkpt>
      <trkpt lat="49.07044" lon="2.02038">
        <ele>138.9</ele>
        <time>2023-06-03T12:12:52Z</time>
      </trkpt>
      <trkpt lat="49.07036" lon="2.02041">
        <ele>139.2</ele>
        <time>2023-06-03T12:12:57Z</time>
      </trkpt>
      <trkpt lat="49.07028" lon="2.02045">
        <ele>139.7</ele>
        <time>2023-06-03T12:13:03Z</time>
      </trkpt>
      <trkpt lat="49.07022" lon="2.02052">
        <ele>140</ele>
        <time>2023-06-03T12:13:08Z</time>
      </trkpt>
      <trkpt lat="49.07016" lon="2.0206">
        <ele>140.1</ele>
        <time>2023-06-03T12:13:13Z</time>
      </trkpt>
      <trkpt lat="49.07009" lon="2.02069">
        <ele>140.3</ele>
        <time>2023-06-03T12:13:19Z</time>
      </trkpt>
      <trkpt lat="49.07005" lon="2.02075">
        <ele>140.8</ele>
        <time>2023-06-03T12:13:25Z</time>
      </trkpt>
      <trkpt lat="49.07001" lon="2.0208">
        <ele>141.3</ele>
        <time>2023-06-03T12:13:31Z</time>
      </trkpt>
      <trkpt lat="49.06993" lon="2.02089">
        <ele>142.1</ele>
        <time>2023-06-03T12:13:37Z</time>
      </trkpt>
      <trkpt lat="49.06986" lon="2.02101">
        <ele>142.6</ele>
        <time>2023-06-03T12:13:42Z</time>
      </trkpt>
      <trkpt lat="49.06982" lon="2.02113">
        <ele>143</ele>
        <time>2023-06-03T12:13:48Z</time>
      </trkpt>
      <trkpt lat="49.06976" lon="2.02124">
        <ele>143.3</ele>
        <time>2023-06-03T12:13:54Z</time>
      </trkpt>
      <trkpt lat="49.0697" lon="2.02137">
        <ele>143.6</ele>
        <time>2023-06-03T12:14:00Z</time>
      </trkpt>
      <trkpt lat="49.06966" lon="2.02148">
        <ele>144</ele>
        <time>2023-06-03T12:14:06Z</time>
      </trkpt>
      <trkpt lat="49.06963" lon="2.02157">
        <ele>144.4</ele>
        <time>2023-06-03T12:14:11Z</time>
      </trkpt>
      <trkpt lat="49.06961" lon="2.02167">
        <ele>145.1</ele>
        <time>2023-06-03T12:14:16Z</time>
      </trkpt>
      <trkpt lat="49.06956" lon="2.0218">
        <ele>145.7</ele>
        <time>2023-06-03T12:14:22Z</time>
      </trkpt>
      <trkpt lat="49.06951" lon="2.02191">
        <ele>146</ele>
        <time>2023-06-03T12:14:28Z</time>
      </trkpt>
      <trkpt lat="49.06943" lon="2.02202">
        <ele>146</ele>
        <time>2023-06-03T12:14:34Z</time>
      </trkpt>
      <trkpt lat="49.06936" lon="2.02211">
        <ele>145.9</ele>
        <time>2023-06-03T12:14:39Z</time>
      </trkpt>
      <trkpt lat="49.06931" lon="2.0222">
        <ele>145.6</ele>
        <time>2023-06-03T12:14:45Z</time>
      </trkpt>
      <trkpt lat="49.06925" lon="2.02225">
        <ele>145.3</ele>
        <time>2023-06-03T12:14:50Z</time>
      </trkpt>
      <trkpt lat="49.06919" lon="2.02232">
        <ele>144.8</ele>
        <time>2023-06-03T12:14:56Z</time>
      </trkpt>
      <trkpt lat="49.06912" lon="2.02238">
        <ele>144.3</ele>
        <time>2023-06-03T12:15:01Z</time>
      </trkpt>
      <trkpt lat="49.06906" lon="2.02245">
        <ele>143.7</ele>
        <time>2023-06-03T12:15:06Z</time>
      </trkpt>
      <trkpt lat="49.06898" lon="2.0225">
        <ele>143</ele>
        <time>2023-06-03T12:15:12Z</time>
      </trkpt>
      <trkpt lat="49.06889" lon="2.02254">
        <ele>142.4</ele>
        <time>2023-06-03T12:15:17Z</time>
      </trkpt>
      <trkpt lat="49.06881" lon="2.02258">
        <ele>141.7</ele>
        <time>2023-06-03T12:15:23Z</time>
      </trkpt>
      <trkpt lat="49.06872" lon="2.02266">
        <ele>141.1</ele>
        <time>2023-06-03T12:15:28Z</time>
      </trkpt>
      <trkpt lat="49.06864" lon="2.02271">
        <ele>140.5</ele>
        <time>2023-06-03T12:15:34Z</time>
      </trkpt>
      <trkpt lat="49.06856" lon="2.02274">
        <ele>140</ele>
        <time>2023-06-03T12:15:40Z</time>
      </trkpt>
      <trkpt lat="49.06852" lon="2.02277">
        <ele>139.7</ele>
        <time>2023-06-03T12:15:45Z</time>
      </trkpt>
      <trkpt lat="49.06846" lon="2.02278">
        <ele>139.4</ele>
        <time>2023-06-03T12:15:50Z</time>
      </trkpt>
      <trkpt lat="49.06838" lon="2.02279">
        <ele>139</ele>
        <time>2023-06-03T12:15:55Z</time>
      </trkpt>
      <trkpt lat="49.06827" lon="2.02279">
        <ele>138.5</ele>
        <time>2023-06-03T12:16:01Z</time>
      </trkpt>
      <trkpt lat="49.06818" lon="2.02279">
        <ele>138</ele>
        <time>2023-06-03T12:16:06Z</time>
      </trkpt>
      <trkpt lat="49.06808" lon="2.0228">
        <ele>137.4</ele>
        <time>2023-06-03T12:16:12Z</time>
      </trkpt>
      <trkpt lat="49.06798" lon="2.02282">
        <ele>136.7</ele>
        <time>2023-06-03T12:16:18Z</time>
      </trkpt>
      <trkpt lat="49.06789" lon="2.02287">
        <ele>136</ele>
        <time>2023-06-03T12:16:24Z</time>
      </trkpt>
      <trkpt lat="49.06784" lon="2.02293">
        <ele>135.6</ele>
        <time>2023-06-03T12:16:29Z</time>
      </trkpt>
      <trkpt lat="49.06779" lon="2.02304">
        <ele>135.4</ele>
        <time>2023-06-03T12:16:35Z</time>
      </trkpt>
      <trkpt lat="49.06775" lon="2.02312">
        <ele>135.2</ele>
        <time>2023-06-03T12:16:40Z</time>
      </trkpt>
      <trkpt lat="49.06769" lon="2.02322">
        <ele>134.9</ele>
        <time>2023-06-03T12:16:45Z</time>
      </trkpt>
      <trkpt lat="49.06763" lon="2.02331">
        <ele>134.4</ele>
        <time>2023-06-03T12:16:51Z</time>
      </trkpt>
      <trkpt lat="49.06758" lon="2.02341">
        <ele>133.7</ele>
        <time>2023-06-03T12:16:57Z</time>
      </trkpt>
      <trkpt lat="49.06753" lon="2.02347">
        <ele>133.3</ele>
        <time>2023-06-03T12:17:02Z</time>
      </trkpt>
      <trkpt lat="49.06745" lon="2.02346">
        <ele>133.2</ele>
        <time>2023-06-03T12:17:08Z</time>
      </trkpt>
      <trkpt lat="49.0674" lon="2.02337">
        <ele>133.2</ele>
        <time>2023-06-03T12:17:14Z</time>
      </trkpt>
      <trkpt lat="49.06735" lon="2.02328">
        <ele>132.9</ele>
        <time>2023-06-03T12:17:19Z</time>
      </trkpt>
      <trkpt lat="49.0673" lon="2.02317">
        <ele>132.6</ele>
        <time>2023-06-03T12:17:25Z</time>
      </trkpt>
      <trkpt lat="49.06724" lon="2.02308">
        <ele>132.3</ele>
        <time>2023-06-03T12:17:31Z</time>
      </trkpt>
      <trkpt lat="49.06719" lon="2.02296">
        <ele>132.1</ele>
        <time>2023-06-03T12:17:37Z</time>
      </trkpt>
      <trkpt lat="49.06714" lon="2.02287">
        <ele>131.6</ele>
        <time>2023-06-03T12:17:43Z</time>
      </trkpt>
      <trkpt lat="49.0671" lon="2.0228">
        <ele>131.3</ele>
        <time>2023-06-03T12:17:48Z</time>
      </trkpt>
      <trkpt lat="49.06703" lon="2.0227">
        <ele>130.9</ele>
        <time>2023-06-03T12:17:54Z</time>
      </trkpt>
      <trkpt lat="49.06697" lon="2.02256">
        <ele>130.9</ele>
        <time>2023-06-03T12:18:00Z</time>
      </trkpt>
      <trkpt lat="49.0669" lon="2.02246">
        <ele>130.9</ele>
        <time>2023-06-03T12:18:06Z</time>
      </trkpt>
      <trkpt lat="49.06684" lon="2.02239">
        <ele>130.8</ele>
        <time>2023-06-03T12:18:11Z</time>
      </trkpt>
      <trkpt lat="49.06678" lon="2.02228">
        <ele>130.5</ele>
        <time>2023-06-03T12:18:17Z</time>
      </trkpt>
      <trkpt lat="49.06673" lon="2.02223">
        <ele>130.4</ele>
        <time>2023-06-03T12:18:22Z</time>
      </trkpt>
      <trkpt lat="49.06674" lon="2.02222">
        <ele>130.5</ele>
        <time>2023-06-03T12:18:27Z</time>
      </trkpt>
      <trkpt lat="49.06674" lon="2.02214">
        <ele>130.8</ele>
        <time>2023-06-03T12:18:32Z</time>
      </trkpt>
      <trkpt lat="49.06676" lon="2.02201">
        <ele>131</ele>
        <time>2023-06-03T12:18:38Z</time>
      </trkpt>
      <trkpt lat="49.0668" lon="2.02191">
        <ele>131.3</ele>
        <time>2023-06-03T12:18:43Z</time>
      </trkpt>
      <trkpt lat="49.06684" lon="2.02177">
        <ele>131.7</ele>
        <time>2023-06-03T12:18:49Z</time>
      </trkpt>
      <trkpt lat="49.06687" lon="2.02164">
        <ele>132.2</ele>
        <time>2023-06-03T12:18:55Z</time>
      </trkpt>
      <trkpt lat="49.06692" lon="2.02153">
        <ele>133.2</ele>
        <time>2023-06-03T12:19:01Z</time>
      </trkpt>
      <trkpt lat="49.06694" lon="2.02141">
        <ele>134</ele>
        <time>2023-06-03T12:19:07Z</time>
      </trkpt>
      <trkpt lat="49.06696" lon="2.02131">
        <ele>134.9</ele>
        <time>2023-06-03T12:19:13Z</time>
      </trkpt>
      <trkpt lat="49.067" lon="2.02124">
        <ele>135.4</ele>
        <time>2023-06-03T12:19:18Z</time>
      </trkpt>
      <trkpt lat="49.06702" lon="2.02116">
        <ele>135.8</ele>
        <time>2023-06-03T12:19:23Z</time>
      </trkpt>
      <trkpt lat="49.06706" lon="2.02101">
        <ele>136.1</ele>
        <time>2023-06-03T12:19:29Z</time>
      </trkpt>
      <trkpt lat="49.06709" lon="2.02091">
        <ele>136.3</ele>
        <time>2023-06-03T12:19:35Z</time>
      </trkpt>
      <trkpt lat="49.06713" lon="2.02081">
        <ele>136.3</ele>
        <time>2023-06-03T12:19:40Z</time>
      </trkpt>
      <trkpt lat="49.06719" lon="2.02067">
        <ele>136.5</ele>
        <time>2023-06-03T12:19:46Z</time>
      </trkpt>
      <trkpt lat="49.06723" lon="2.02057">
        <ele>136.6</ele>
        <time>2023-06-03T12:19:51Z</time>
      </trkpt>
      <trkpt lat="49.06725" lon="2.02049">
        <ele>136.8</ele>
        <time>2023-06-03T12:19:56Z</time>
      </trkpt>
      <trkpt lat="49.06726" lon="2.02038">
        <ele>137.2</ele>
        <time>2023-06-03T12:20:02Z</time>
      </trkpt>
      <trkpt lat="49.0673" lon="2.02023">
        <ele>138</ele>
        <time>2023-06-03T12:20:08Z</time>
      </trkpt>
      <trkpt lat="49.06734" lon="2.02012">
        <ele>138.8</ele>
        <time>2023-06-03T12:20:13Z</time>
      </trkpt>
      <trkpt lat="49.06741" lon="2.02005">
        <ele>139.8</ele>
        <time>2023-06-03T12:20:19Z</time>
      </trkpt>
      <trkpt lat="49.06741" lon="2.01998">
        <ele>140.6</ele>
        <time>2023-06-03T12:20:24Z</time>
      </trkpt>
      <trkpt lat="49.06744" lon="2.01989">
        <ele>141.4</ele>
        <time>2023-06-03T12:20:30Z</time>
      </trkpt>
      <trkpt lat="49.0675" lon="2.01981">
        <ele>142.1</ele>
        <time>2023-06-03T12:20:36Z</time>
      </trkpt>
      <trkpt lat="49.06756" lon="2.0197">
        <ele>142.9</ele>
        <time>2023-06-03T12:20:42Z</time>
      </trkpt>
      <trkpt lat="49.06758" lon="2.01966">
        <ele>143.6</ele>
        <time>2023-06-03T12:20:47Z</time>
      </trkpt>
      <trkpt lat="49.06759" lon="2.01956">
        <ele>144.2</ele>
        <time>2023-06-03T12:20:53Z</time>
      </trkpt>
      <trkpt lat="49.06763" lon="2.01937">
        <ele>145.2</ele>
        <time>2023-06-03T12:20:59Z</time>
      </trkpt>
      <trkpt lat="49.06766" lon="2.01924">
        <ele>145.8</ele>
        <time>2023-06-03T12:21:05Z</time>
      </trkpt>
      <trkpt lat="49.06769" lon="2.01915">
        <ele>146.6</ele>
        <time>2023-06-03T12:21:11Z</time>
      </trkpt>
      <trkpt lat="49.06775" lon="2.01908">
        <ele>147.3</ele>
        <time>2023-06-03T12:21:17Z</time>
      </trkpt>
      <trkpt lat="49.06776" lon="2.01903">
        <ele>147.7</ele>
        <time>2023-06-03T12:21:22Z</time>
      </trkpt>
      <trkpt lat="49.06778" lon="2.01893">
        <ele>148</ele>
        <time>2023-06-03T12:21:28Z</time>
      </trkpt>
      <trkpt lat="49.0678" lon="2.01882">
        <ele>148.4</ele>
        <time>2023-06-03T12:21:34Z</time>
      </trkpt>
      <trkpt lat="49.06783" lon="2.01873">
        <ele>148.9</ele>
        <time>2023-06-03T12:21:39Z</time>
      </trkpt>
      <trkpt lat="49.06786" lon="2.01863">
        <ele>149.4</ele>
        <time>2023-06-03T12:21:44Z</time>
      </trkpt>
      <trkpt lat="49.06789" lon="2.01858">
        <ele>150.1</ele>
        <time>2023-06-03T12:21:50Z</time>
      </trkpt>
      <trkpt lat="49.0679" lon="2.01846">
        <ele>150.7</ele>
        <time>2023-06-03T12:21:55Z</time>
      </trkpt>
      <trkpt lat="49.06793" lon="2.01836">
        <ele>151.5</ele>
        <time>2023-06-03T12:22:00Z</time>
      </trkpt>
      <trkpt lat="49.06797" lon="2.01827">
        <ele>151.9</ele>
        <time>2023-06-03T12:22:05Z</time>
      </trkpt>
      <trkpt lat="49.06803" lon="2.01812">
        <ele>152.4</ele>
        <time>2023-06-03T12:22:11Z</time>
      </trkpt>
      <trkpt lat="49.06807" lon="2.01804">
        <ele>152.6</ele>
        <time>2023-06-03T12:22:16Z</time>
      </trkpt>
      <trkpt lat="49.0681" lon="2.01793">
        <ele>152.8</ele>
        <time>2023-06-03T12:22:21Z</time>
      </trkpt>
      <trkpt lat="49.06813" lon="2.01783">
        <ele>152.9</ele>
        <time>2023-06-03T12:22:26Z</time>
      </trkpt>
      <trkpt lat="49.0682" lon="2.01773">
        <ele>153.3</ele>
        <time>2023-06-03T12:22:32Z</time>
      </trkpt>
      <trkpt lat="49.06821" lon="2.01763">
        <ele>153.4</ele>
        <time>2023-06-03T12:22:37Z</time>
      </trkpt>
      <trkpt lat="49.0682" lon="2.01755">
        <ele>153.4</ele>
        <time>2023-06-03T12:22:43Z</time>
      </trkpt>
      <trkpt lat="49.06826" lon="2.01748">
        <ele>153.3</ele>
        <time>2023-06-03T12:22:49Z</time>
      </trkpt>
      <trkpt lat="49.06828" lon="2.01737">
        <ele>153.5</ele>
        <time>2023-06-03T12:22:54Z</time>
      </trkpt>
      <trkpt lat="49.06829" lon="2.01727">
        <ele>153.8</ele>
        <time>2023-06-03T12:22:59Z</time>
      </trkpt>
      <trkpt lat="49.06828" lon="2.01721">
        <ele>153.8</ele>
        <time>2023-06-03T12:23:05Z</time>
      </trkpt>
      <trkpt lat="49.06833" lon="2.01714">
        <ele>153.6</ele>
        <time>2023-06-03T12:23:11Z</time>
      </trkpt>
      <trkpt lat="49.06838" lon="2.01704">
        <ele>153.6</ele>
        <time>2023-06-03T12:23:17Z</time>
      </trkpt>
      <trkpt lat="49.06844" lon="2.01691">
        <ele>153.8</ele>
        <time>2023-06-03T12:23:23Z</time>
      </trkpt>
      <trkpt lat="49.06848" lon="2.0168">
        <ele>154.5</ele>
        <time>2023-06-03T12:23:29Z</time>
      </trkpt>
      <trkpt lat="49.06851" lon="2.01663">
        <ele>155.1</ele>
        <time>2023-06-03T12:23:35Z</time>
      </trkpt>
      <trkpt lat="49.06858" lon="2.01655">
        <ele>155.6</ele>
        <time>2023-06-03T12:23:40Z</time>
      </trkpt>
      <trkpt lat="49.06861" lon="2.01644">
        <ele>156.1</ele>
        <time>2023-06-03T12:23:46Z</time>
      </trkpt>
      <trkpt lat="49.0686" lon="2.01634">
        <ele>156</ele>
        <time>2023-06-03T12:23:52Z</time>
      </trkpt>
      <trkpt lat="49.06861" lon="2.01621">
        <ele>155.8</ele>
        <time>2023-06-03T12:23:58Z</time>
      </trkpt>
      <trkpt lat="49.06867" lon="2.01612">
        <ele>155.6</ele>
        <time>2023-06-03T12:24:03Z</time>
      </trkpt>
      <trkpt lat="49.06871" lon="2.01601">
        <ele>155.3</ele>
        <time>2023-06-03T12:24:08Z</time>
      </trkpt>
      <trkpt lat="49.06876" lon="2.01584">
        <ele>155.2</ele>
        <time>2023-06-03T12:24:14Z</time>
      </trkpt>
      <trkpt lat="49.06879" lon="2.01573">
        <ele>155.3</ele>
        <time>2023-06-03T12:24:19Z</time>
      </trkpt>
      <trkpt lat="49.06885" lon="2.01563">
        <ele>155.5</ele>
        <time>2023-06-03T12:24:24Z</time>
      </trkpt>
      <trkpt lat="49.06891" lon="2.01553">
        <ele>155.9</ele>
        <time>2023-06-03T12:24:30Z</time>
      </trkpt>
      <trkpt lat="49.069" lon="2.01544">
        <ele>156.6</ele>
        <time>2023-06-03T12:24:36Z</time>
      </trkpt>
      <trkpt lat="49.06908" lon="2.01536">
        <ele>157.6</ele>
        <time>2023-06-03T12:24:41Z</time>
      </trkpt>
      <trkpt lat="49.06912" lon="2.01525">
        <ele>158.6</ele>
        <time>2023-06-03T12:24:47Z</time>
      </trkpt>
      <trkpt lat="49.06915" lon="2.01513">
        <ele>159.5</ele>
        <time>2023-06-03T12:24:53Z</time>
      </trkpt>
      <trkpt lat="49.06917" lon="2.01504">
        <ele>160.6</ele>
        <time>2023-06-03T12:24:58Z</time>
      </trkpt>
      <trkpt lat="49.0692" lon="2.01491">
        <ele>161.8</ele>
        <time>2023-06-03T12:25:03Z</time>
      </trkpt>
      <trkpt lat="49.06922" lon="2.01475">
        <ele>163</ele>
        <time>2023-06-03T12:25:09Z</time>
      </trkpt>
      <trkpt lat="49.06923" lon="2.01464">
        <ele>163.6</ele>
        <time>2023-06-03T12:25:15Z</time>
      </trkpt>
      <trkpt lat="49.06925" lon="2.01453">
        <ele>163.8</ele>
        <time>2023-06-03T12:25:20Z</time>
      </trkpt>
      <trkpt lat="49.06929" lon="2.01443">
        <ele>164</ele>
        <time>2023-06-03T12:25:25Z</time>
      </trkpt>
      <trkpt lat="49.06933" lon="2.01433">
        <ele>163.9</ele>
        <time>2023-06-03T12:25:30Z</time>
      </trkpt>
      <trkpt lat="49.06939" lon="2.01423">
        <ele>163.9</ele>
        <time>2023-06-03T12:25:35Z</time>
      </trkpt>
      <trkpt lat="49.06943" lon="2.01412">
        <ele>164</ele>
        <time>2023-06-03T12:25:41Z</time>
      </trkpt>
      <trkpt lat="49.06948" lon="2.01403">
        <ele>163.9</ele>
        <time>2023-06-03T12:25:47Z</time>
      </trkpt>
      <trkpt lat="49.06951" lon="2.01394">
        <ele>163.2</ele>
        <time>2023-06-03T12:25:53Z</time>
      </trkpt>
      <trkpt lat="49.06952" lon="2.01386">
        <ele>162.3</ele>
        <time>2023-06-03T12:25:58Z</time>
      </trkpt>
      <trkpt lat="49.06954" lon="2.01376">
        <ele>161.5</ele>
        <time>2023-06-03T12:26:03Z</time>
      </trkpt>
      <trkpt lat="49.06961" lon="2.01363">
        <ele>161.2</ele>
        <time>2023-06-03T12:26:09Z</time>
      </trkpt>
      <trkpt lat="49.0696" lon="2.0135">
        <ele>161</ele>
        <time>2023-06-03T12:26:15Z</time>
      </trkpt>
      <trkpt lat="49.06962" lon="2.0134">
        <ele>160.6</ele>
        <time>2023-06-03T12:26:20Z</time>
      </trkpt>
      <trkpt lat="49.06965" lon="2.01331">
        <ele>160.1</ele>
        <time>2023-06-03T12:26:25Z</time>
      </trkpt>
      <trkpt lat="49.06971" lon="2.01322">
        <ele>159.3</ele>
        <time>2023-06-03T12:26:31Z</time>
      </trkpt>
      <trkpt lat="49.06978" lon="2.01311">
        <ele>158.4</ele>
        <time>2023-06-03T12:26:37Z</time>
      </trkpt>
      <trkpt lat="49.06982" lon="2.01304">
        <ele>157.4</ele>
        <time>2023-06-03T12:26:42Z</time>
      </trkpt>
      <trkpt lat="49.06986" lon="2.013">
        <ele>156</ele>
        <time>2023-06-03T12:26:48Z</time>
      </trkpt>
      <trkpt lat="49.06991" lon="2.01294">
        <ele>154.2</ele>
        <time>2023-06-03T12:26:54Z</time>
      </trkpt>
      <trkpt lat="49.06995" lon="2.0129">
        <ele>152.7</ele>
        <time>2023-06-03T12:26:59Z</time>
      </trkpt>
      <trkpt lat="49.07004" lon="2.01286">
        <ele>151.5</ele>
        <time>2023-06-03T12:27:05Z</time>
      </trkpt>
      <trkpt lat="49.0701" lon="2.0128">
        <ele>150.9</ele>
        <time>2023-06-03T12:27:10Z</time>
      </trkpt>
      <trkpt lat="49.07015" lon="2.01276">
        <ele>150.6</ele>
        <time>2023-06-03T12:27:16Z</time>
      </trkpt>
      <trkpt lat="49.07025" lon="2.01272">
        <ele>150.2</ele>
        <time>2023-06-03T12:27:22Z</time>
      </trkpt>
      <trkpt lat="49.07031" lon="2.01269">
        <ele>149.6</ele>
        <time>2023-06-03T12:27:27Z</time>
      </trkpt>
      <trkpt lat="49.07037" lon="2.01265">
        <ele>149</ele>
        <time>2023-06-03T12:27:32Z</time>
      </trkpt>
      <trkpt lat="49.07045" lon="2.01254">
        <ele>148.4</ele>
        <time>2023-06-03T12:27:38Z</time>
      </trkpt>
      <trkpt lat="49.07052" lon="2.01242">
        <ele>147.8</ele>
        <time>2023-06-03T12:27:44Z</time>
      </trkpt>
      <trkpt lat="49.07057" lon="2.01235">
        <ele>147.3</ele>
        <time>2023-06-03T12:27:49Z</time>
      </trkpt>
      <trkpt lat="49.07063" lon="2.01228">
        <ele>146.2</ele>
        <time>2023-06-03T12:27:55Z</time>
      </trkpt>
      <trkpt lat="49.07069" lon="2.01221">
        <ele>144.7</ele>
        <time>2023-06-03T12:28:01Z</time>
      </trkpt>
      <trkpt lat="49.07074" lon="2.01212">
        <ele>143.5</ele>
        <time>2023-06-03T12:28:07Z</time>
      </trkpt>
      <trkpt lat="49.07082" lon="2.01203">
        <ele>142.5</ele>
        <time>2023-06-03T12:28:12Z</time>
      </trkpt>
      <trkpt lat="49.07088" lon="2.01196">
        <ele>141.6</ele>
        <time>2023-06-03T12:28:18Z</time>
      </trkpt>
      <trkpt lat="49.07091" lon="2.01188">
        <ele>140.6</ele>
        <time>2023-06-03T12:28:24Z</time>
      </trkpt>
      <trkpt lat="49.07094" lon="2.01182">
        <ele>139.8</ele>
        <time>2023-06-03T12:28:29Z</time>
      </trkpt>
      <trkpt lat="49.071" lon="2.01177">
        <ele>139</ele>
        <time>2023-06-03T12:28:35Z</time>
      </trkpt>
      <trkpt lat="49.07109" lon="2.01175">
        <ele>138.5</ele>
        <time>2023-06-03T12:28:41Z</time>
      </trkpt>
      <trkpt lat="49.07117" lon="2.0117">
        <ele>138</ele>
        <time>2023-06-03T12:28:47Z</time>
      </trkpt>
      <trkpt lat="49.07122" lon="2.0116">
        <ele>137.7</ele>
        <time>2023-06-03T12:28:52Z</time>
      </trkpt>
      <trkpt lat="49.07123" lon="2.01148">
        <ele>136.9</ele>
        <time>2023-06-03T12:28:58Z</time>
      </trkpt>
      <trkpt lat="49.07121" lon="2.01139">
        <ele>136.2</ele>
        <time>2023-06-03T12:29:04Z</time>
      </trkpt>
      <trkpt lat="49.07115" lon="2.01134">
        <ele>135.5</ele>
        <time>2023-06-03T12:29:09Z</time>
      </trkpt>
      <trkpt lat="49.07108" lon="2.01133">
        <ele>134.5</ele>
        <time>2023-06-03T12:29:14Z</time>
      </trkpt>
      <trkpt lat="49.07101" lon="2.0113">
        <ele>133.2</ele>
        <time>2023-06-03T12:29:20Z</time>
      </trkpt>
      <trkpt lat="49.07095" lon="2.01127">
        <ele>132</ele>
        <time>2023-06-03T12:29:26Z</time>
      </trkpt>
      <trkpt lat="49.0709" lon="2.01125">
        <ele>131</ele>
        <time>2023-06-03T12:29:31Z</time>
      </trkpt>
      <trkpt lat="49.07083" lon="2.01121">
        <ele>130</ele>
        <time>2023-06-03T12:29:36Z</time>
      </trkpt>
      <trkpt lat="49.07076" lon="2.01119">
        <ele>128.9</ele>
        <time>2023-06-03T12:29:41Z</time>
      </trkpt>
      <trkpt lat="49.07068" lon="2.01114">
        <ele>127.5</ele>
        <time>2023-06-03T12:29:47Z</time>
      </trkpt>
      <trkpt lat="49.07065" lon="2.0111">
        <ele>126.3</ele>
        <time>2023-06-03T12:29:52Z</time>
      </trkpt>
      <trkpt lat="49.07061" lon="2.01106">
        <ele>125.2</ele>
        <time>2023-06-03T12:29:57Z</time>
      </trkpt>
      <trkpt lat="49.07055" lon="2.011">
        <ele>123.9</ele>
        <time>2023-06-03T12:30:03Z</time>
      </trkpt>
      <trkpt lat="49.07048" lon="2.01088">
        <ele>122.5</ele>
        <time>2023-06-03T12:30:09Z</time>
      </trkpt>
      <trkpt lat="49.07045" lon="2.01078">
        <ele>121.4</ele>
        <time>2023-06-03T12:30:15Z</time>
      </trkpt>
      <trkpt lat="49.07046" lon="2.01064">
        <ele>120.6</ele>
        <time>2023-06-03T12:30:20Z</time>
      </trkpt>
      <trkpt lat="49.07052" lon="2.01054">
        <ele>120.1</ele>
        <time>2023-06-03T12:30:25Z</time>
      </trkpt>
      <trkpt lat="49.07057" lon="2.01044">
        <ele>119.7</ele>
        <time>2023-06-03T12:30:31Z</time>
      </trkpt>
      <trkpt lat="49.07058" lon="2.01035">
        <ele>119.2</ele>
        <time>2023-06-03T12:30:37Z</time>
      </trkpt>
      <trkpt lat="49.0706" lon="2.01027">
        <ele>118.5</ele>
        <time>2023-06-03T12:30:42Z</time>
      </trkpt>
      <trkpt lat="49.07065" lon="2.01017">
        <ele>117.7</ele>
        <time>2023-06-03T12:30:48Z</time>
      </trkpt>
      <trkpt lat="49.0707" lon="2.01006">
        <ele>117</ele>
        <time>2023-06-03T12:30:54Z</time>
      </trkpt>
      <trkpt lat="49.07073" lon="2.00995">
        <ele>116.5</ele>
        <time>2023-06-03T12:31:00Z</time>
      </trkpt>
      <trkpt lat="49.07074" lon="2.00986">
        <ele>116</ele>
        <time>2023-06-03T12:31:06Z</time>
      </trkpt>
      <trkpt lat="49.07077" lon="2.00979">
        <ele>115.7</ele>
        <time>2023-06-03T12:31:12Z</time>
      </trkpt>
      <trkpt lat="49.0708" lon="2.00972">
        <ele>115.4</ele>
        <time>2023-06-03T12:31:17Z</time>
      </trkpt>
      <trkpt lat="49.07083" lon="2.00964">
        <ele>115.5</ele>
        <time>2023-06-03T12:31:23Z</time>
      </trkpt>
      <trkpt lat="49.07086" lon="2.00955">
        <ele>115.6</ele>
        <time>2023-06-03T12:31:28Z</time>
      </trkpt>
      <trkpt lat="49.07092" lon="2.00942">
        <ele>115.7</ele>
        <time>2023-06-03T12:31:34Z</time>
      </trkpt>
      <trkpt lat="49.07095" lon="2.00932">
        <ele>115.7</ele>
        <time>2023-06-03T12:31:39Z</time>
      </trkpt>
      <trkpt lat="49.07099" lon="2.00925">
        <ele>115.6</ele>
        <time>2023-06-03T12:31:45Z</time>
      </trkpt>
      <trkpt lat="49.07103" lon="2.00916">
        <ele>115.3</ele>
        <time>2023-06-03T12:31:51Z</time>
      </trkpt>
      <trkpt lat="49.07103" lon="2.00908">
        <ele>115</ele>
        <time>2023-06-03T12:31:56Z</time>
      </trkpt>
      <trkpt lat="49.07104" lon="2.00899">
        <ele>114.7</ele>
        <time>2023-06-03T12:32:02Z</time>
      </trkpt>
      <trkpt lat="49.07104" lon="2.00892">
        <ele>114.6</ele>
        <time>2023-06-03T12:32:07Z</time>
      </trkpt>
      <trkpt lat="49.07106" lon="2.00883">
        <ele>114.3</ele>
        <time>2023-06-03T12:32:13Z</time>
      </trkpt>
      <trkpt lat="49.07108" lon="2.00875">
        <ele>114.2</ele>
        <time>2023-06-03T12:32:19Z</time>
      </trkpt>
      <trkpt lat="49.07111" lon="2.00869">
        <ele>113.9</ele>
        <time>2023-06-03T12:32:24Z</time>
      </trkpt>
      <trkpt lat="49.07112" lon="2.0086">
        <ele>113.9</ele>
        <time>2023-06-03T12:32:29Z</time>
      </trkpt>
      <trkpt lat="49.07115" lon="2.00852">
        <ele>114</ele>
        <time>2023-06-03T12:32:35Z</time>
      </trkpt>
      <trkpt lat="49.07121" lon="2.00839">
        <ele>114.1</ele>
        <time>2023-06-03T12:32:40Z</time>
      </trkpt>
      <trkpt lat="49.07123" lon="2.00829">
        <ele>114.4</ele>
        <time>2023-06-03T12:32:46Z</time>
      </trkpt>
      <trkpt lat="49.07126" lon="2.0082">
        <ele>114.7</ele>
        <time>2023-06-03T12:32:52Z</time>
      </trkpt>
      <trkpt lat="49.07129" lon="2.00809">
        <ele>115.2</ele>
        <time>2023-06-03T12:32:58Z</time>
      </trkpt>
      <trkpt lat="49.07132" lon="2.00798">
        <ele>115.8</ele>
        <time>2023-06-03T12:33:04Z</time>
      </trkpt>
      <trkpt lat="49.07136" lon="2.0079">
        <ele>116.4</ele>
        <time>2023-06-03T12:33:10Z</time>
      </trkpt>
      <trkpt lat="49.0714" lon="2.00781">
        <ele>117.3</ele>
        <time>2023-06-03T12:33:16Z</time>
      </trkpt>
      <trkpt lat="49.07144" lon="2.00773">
        <ele>118</ele>
        <time>2023-06-03T12:33:22Z</time>
      </trkpt>
      <trkpt lat="49.07147" lon="2.00763">
        <ele>118.5</ele>
        <time>2023-06-03T12:33:27Z</time>
      </trkpt>
      <trkpt lat="49.07151" lon="2.00754">
        <ele>119.3</ele>
        <time>2023-06-03T12:33:33Z</time>
      </trkpt>
      <trkpt lat="49.07153" lon="2.00743">
        <ele>120.2</ele>
        <time>2023-06-03T12:33:39Z</time>
      </trkpt>
      <trkpt lat="49.07154" lon="2.00732">
        <ele>121.2</ele>
        <time>2023-06-03T12:33:45Z</time>
      </trkpt>
      <trkpt lat="49.07156" lon="2.00725">
        <ele>121.9</ele>
        <time>2023-06-03T12:33:51Z</time>
      </trkpt>
      <trkpt lat="49.07159" lon="2.00718">
        <ele>122.2</ele>
        <time>2023-06-03T12:33:56Z</time>
      </trkpt>
      <trkpt lat="49.07161" lon="2.0071">
        <ele>122.5</ele>
        <time>2023-06-03T12:34:02Z</time>
      </trkpt>
      <trkpt lat="49.07165" lon="2.00701">
        <ele>122.8</ele>
        <time>2023-06-03T12:34:08Z</time>
      </trkpt>
      <trkpt lat="49.07165" lon="2.00689">
        <ele>122.8</ele>
        <time>2023-06-03T12:34:14Z</time>
      </trkpt>
      <trkpt lat="49.0717" lon="2.00677">
        <ele>122.9</ele>
        <time>2023-06-03T12:34:20Z</time>
      </trkpt>
      <trkpt lat="49.07178" lon="2.00665">
        <ele>123.1</ele>
        <time>2023-06-03T12:34:26Z</time>
      </trkpt>
      <trkpt lat="49.0718" lon="2.00653">
        <ele>123.3</ele>
        <time>2023-06-03T12:34:32Z</time>
      </trkpt>
      <trkpt lat="49.07185" lon="2.00645">
        <ele>123.6</ele>
        <time>2023-06-03T12:34:37Z</time>
      </trkpt>
      <trkpt lat="49.07188" lon="2.00633">
        <ele>124</ele>
        <time>2023-06-03T12:34:43Z</time>
      </trkpt>
      <trkpt lat="49.07191" lon="2.00624">
        <ele>124.1</ele>
        <time>2023-06-03T12:34:48Z</time>
      </trkpt>
      <trkpt lat="49.07194" lon="2.0061">
        <ele>124.3</ele>
        <time>2023-06-03T12:34:54Z</time>
      </trkpt>
      <trkpt lat="49.07197" lon="2.00601">
        <ele>124.5</ele>
        <time>2023-06-03T12:34:59Z</time>
      </trkpt>
      <trkpt lat="49.07198" lon="2.0059">
        <ele>124.5</ele>
        <time>2023-06-03T12:35:04Z</time>
      </trkpt>
      <trkpt lat="49.07202" lon="2.00579">
        <ele>124.6</ele>
        <time>2023-06-03T12:35:09Z</time>
      </trkpt>
      <trkpt lat="49.07204" lon="2.0057">
        <ele>124.5</ele>
        <time>2023-06-03T12:35:14Z</time>
      </trkpt>
      <trkpt lat="49.07206" lon="2.00562">
        <ele>124.2</ele>
        <time>2023-06-03T12:35:20Z</time>
      </trkpt>
      <trkpt lat="49.07209" lon="2.00553">
        <ele>123.8</ele>
        <time>2023-06-03T12:35:26Z</time>
      </trkpt>
      <trkpt lat="49.07209" lon="2.00546">
        <ele>123.5</ele>
        <time>2023-06-03T12:35:31Z</time>
      </trkpt>
      <trkpt lat="49.07211" lon="2.00538">
        <ele>123</ele>
        <time>2023-06-03T12:35:36Z</time>
      </trkpt>
      <trkpt lat="49.07214" lon="2.00525">
        <ele>122.6</ele>
        <time>2023-06-03T12:35:42Z</time>
      </trkpt>
      <trkpt lat="49.07218" lon="2.00516">
        <ele>122.4</ele>
        <time>2023-06-03T12:35:48Z</time>
      </trkpt>
      <trkpt lat="49.0722" lon="2.00512">
        <ele>122.5</ele>
        <time>2023-06-03T12:35:53Z</time>
      </trkpt>
      <trkpt lat="49.07224" lon="2.00507">
        <ele>122.4</ele>
        <time>2023-06-03T12:35:58Z</time>
      </trkpt>
      <trkpt lat="49.07229" lon="2.00497">
        <ele>122.2</ele>
        <time>2023-06-03T12:36:04Z</time>
      </trkpt>
      <trkpt lat="49.07229" lon="2.00487">
        <ele>121.8</ele>
        <time>2023-06-03T12:36:09Z</time>
      </trkpt>
      <trkpt lat="49.07233" lon="2.00474">
        <ele>121.2</ele>
        <time>2023-06-03T12:36:15Z</time>
      </trkpt>
      <trkpt lat="49.07239" lon="2.00465">
        <ele>121.1</ele>
        <time>2023-06-03T12:36:21Z</time>
      </trkpt>
      <trkpt lat="49.07243" lon="2.00455">
        <ele>121.5</ele>
        <time>2023-06-03T12:36:26Z</time>
      </trkpt>
      <trkpt lat="49.07247" lon="2.00446">
        <ele>122.5</ele>
        <time>2023-06-03T12:36:32Z</time>
      </trkpt>
      <trkpt lat="49.07252" lon="2.00431">
        <ele>123.7</ele>
        <time>2023-06-03T12:36:38Z</time>
      </trkpt>
      <trkpt lat="49.07257" lon="2.0042">
        <ele>124.8</ele>
        <time>2023-06-03T12:36:44Z</time>
      </trkpt>
      <trkpt lat="49.07261" lon="2.0041">
        <ele>125.4</ele>
        <time>2023-06-03T12:36:49Z</time>
      </trkpt>
      <trkpt lat="49.07263" lon="2.00398">
        <ele>125.8</ele>
        <time>2023-06-03T12:36:55Z</time>
      </trkpt>
      <trkpt lat="49.07265" lon="2.0039">
        <ele>126.2</ele>
        <time>2023-06-03T12:37:00Z</time>
      </trkpt>
      <trkpt lat="49.07268" lon="2.00377">
        <ele>126.4</ele>
        <time>2023-06-03T12:37:06Z</time>
      </trkpt>
      <trkpt lat="49.07272" lon="2.00364">
        <ele>126.4</ele>
        <time>2023-06-03T12:37:12Z</time>
      </trkpt>
      <trkpt lat="49.07275" lon="2.00352">
        <ele>126.3</ele>
        <time>2023-06-03T12:37:18Z</time>
      </trkpt>
      <trkpt lat="49.07277" lon="2.00341">
        <ele>126.1</ele>
        <time>2023-06-03T12:37:23Z</time>
      </trkpt>
      <trkpt lat="49.07279" lon="2.00329">
        <ele>125.9</ele>
        <time>2023-06-03T12:37:29Z</time>
      </trkpt>
      <trkpt lat="49.07283" lon="2.0032">
        <ele>126</ele>
        <time>2023-06-03T12:37:34Z</time>
      </trkpt>
      <trkpt lat="49.07287" lon="2.00308">
        <ele>126.1</ele>
        <time>2023-06-03T12:37:40Z</time>
      </trkpt>
      <trkpt lat="49.07289" lon="2.00298">
        <ele>126.3</ele>
        <time>2023-06-03T12:37:46Z</time>
      </trkpt>
      <trkpt lat="49.07294" lon="2.00284">
        <ele>126.4</ele>
        <time>2023-06-03T12:37:52Z</time>
      </trkpt>
      <trkpt lat="49.07298" lon="2.00275">
        <ele>126.6</ele>
        <time>2023-06-03T12:37:57Z</time>
      </trkpt>
      <trkpt lat="49.07302" lon="2.00266">
        <ele>126.7</ele>
        <time>2023-06-03T12:38:02Z</time>
      </trkpt>
      <trkpt lat="49.07305" lon="2.00255">
        <ele>126.7</ele>
        <time>2023-06-03T12:38:07Z</time>
      </trkpt>
      <trkpt lat="49.07308" lon="2.00246">
        <ele>126.8</ele>
        <time>2023-06-03T12:38:12Z</time>
      </trkpt>
      <trkpt lat="49.07311" lon="2.00233">
        <ele>127</ele>
        <time>2023-06-03T12:38:18Z</time>
      </trkpt>
      <trkpt lat="49.07314" lon="2.00222">
        <ele>127.5</ele>
        <time>2023-06-03T12:38:24Z</time>
      </trkpt>
      <trkpt lat="49.07316" lon="2.0021">
        <ele>127.8</ele>
        <time>2023-06-03T12:38:29Z</time>
      </trkpt>
      <trkpt lat="49.0732" lon="2.00196">
        <ele>128.2</ele>
        <time>2023-06-03T12:38:35Z</time>
      </trkpt>
      <trkpt lat="49.07322" lon="2.00184">
        <ele>128.6</ele>
        <time>2023-06-03T12:38:41Z</time>
      </trkpt>
      <trkpt lat="49.07323" lon="2.00175">
        <ele>128.8</ele>
        <time>2023-06-03T12:38:46Z</time>
      </trkpt>
      <trkpt lat="49.07325" lon="2.00162">
        <ele>129.3</ele>
        <time>2023-06-03T12:38:52Z</time>
      </trkpt>
      <trkpt lat="49.0733" lon="2.00151">
        <ele>129.4</ele>
        <time>2023-06-03T12:38:57Z</time>
      </trkpt>
      <trkpt lat="49.07335" lon="2.0014">
        <ele>129.7</ele>
        <time>2023-06-03T12:39:03Z</time>
      </trkpt>
      <trkpt lat="49.07338" lon="2.00131">
        <ele>129.9</ele>
        <time>2023-06-03T12:39:08Z</time>
      </trkpt>
      <trkpt lat="49.0734" lon="2.00123">
        <ele>130</ele>
        <time>2023-06-03T12:39:13Z</time>
      </trkpt>
      <trkpt lat="49.07346" lon="2.00107">
        <ele>129.8</ele>
        <time>2023-06-03T12:39:20Z</time>
      </trkpt>
      <trkpt lat="49.07354" lon="2.00093">
        <ele>129.7</ele>
        <time>2023-06-03T12:39:26Z</time>
      </trkpt>
      <trkpt lat="49.07358" lon="2.00081">
        <ele>129.4</ele>
        <time>2023-06-03T12:39:32Z</time>
      </trkpt>
      <trkpt lat="49.0736" lon="2.00072">
        <ele>129.3</ele>
        <time>2023-06-03T12:39:37Z</time>
      </trkpt>
      <trkpt lat="49.07366" lon="2.00064">
        <ele>129.3</ele>
        <time>2023-06-03T12:39:43Z</time>
      </trkpt>
      <trkpt lat="49.07368" lon="2.00056">
        <ele>129.3</ele>
        <time>2023-06-03T12:39:49Z</time>
      </trkpt>
      <trkpt lat="49.0737" lon="2.00046">
        <ele>128.9</ele>
        <time>2023-06-03T12:39:55Z</time>
      </trkpt>
      <trkpt lat="49.07373" lon="2.00033">
        <ele>128.7</ele>
        <time>2023-06-03T12:40:01Z</time>
      </trkpt>
      <trkpt lat="49.07377" lon="2.00023">
        <ele>128.5</ele>
        <time>2023-06-03T12:40:06Z</time>
      </trkpt>
      <trkpt lat="49.0738" lon="2.00014">
        <ele>128.1</ele>
        <time>2023-06-03T12:40:11Z</time>
      </trkpt>
      <trkpt lat="49.07383" lon="2.00002">
        <ele>127.3</ele>
        <time>2023-06-03T12:40:17Z</time>
      </trkpt>
      <trkpt lat="49.07385" lon="1.99991">
        <ele>126.9</ele>
        <time>2023-06-03T12:40:22Z</time>
      </trkpt>
      <trkpt lat="49.07389" lon="1.9998">
        <ele>126.4</ele>
        <time>2023-06-03T12:40:27Z</time>
      </trkpt>
      <trkpt lat="49.07393" lon="1.99968">
        <ele>125.7</ele>
        <time>2023-06-03T12:40:33Z</time>
      </trkpt>
      <trkpt lat="49.07396" lon="1.99957">
        <ele>125.3</ele>
        <time>2023-06-03T12:40:38Z</time>
      </trkpt>
      <trkpt lat="49.07399" lon="1.99945">
        <ele>125.1</ele>
        <time>2023-06-03T12:40:43Z</time>
      </trkpt>
      <trkpt lat="49.07403" lon="1.99936">
        <ele>124.9</ele>
        <time>2023-06-03T12:40:48Z</time>
      </trkpt>
      <trkpt lat="49.07406" lon="1.99926">
        <ele>124.4</ele>
        <time>2023-06-03T12:40:54Z</time>
      </trkpt>
      <trkpt lat="49.07412" lon="1.99917">
        <ele>123.6</ele>
        <time>2023-06-03T12:41:00Z</time>
      </trkpt>
      <trkpt lat="49.07415" lon="1.99905">
        <ele>123.1</ele>
        <time>2023-06-03T12:41:05Z</time>
      </trkpt>
      <trkpt lat="49.07417" lon="1.99893">
        <ele>122.4</ele>
        <time>2023-06-03T12:41:11Z</time>
      </trkpt>
      <trkpt lat="49.07419" lon="1.99882">
        <ele>121.8</ele>
        <time>2023-06-03T12:41:16Z</time>
      </trkpt>
      <trkpt lat="49.07421" lon="1.9987">
        <ele>121.2</ele>
        <time>2023-06-03T12:41:21Z</time>
      </trkpt>
      <trkpt lat="49.07419" lon="1.99857">
        <ele>120.3</ele>
        <time>2023-06-03T12:41:27Z</time>
      </trkpt>
      <trkpt lat="49.07419" lon="1.99851">
        <ele>119.7</ele>
        <time>2023-06-03T12:41:32Z</time>
      </trkpt>
      <trkpt lat="49.07424" lon="1.99841">
        <ele>119.2</ele>
        <time>2023-06-03T12:41:37Z</time>
      </trkpt>
      <trkpt lat="49.07426" lon="1.99831">
        <ele>119</ele>
        <time>2023-06-03T12:41:42Z</time>
      </trkpt>
      <trkpt lat="49.07428" lon="1.9982">
        <ele>118.8</ele>
        <time>2023-06-03T12:41:48Z</time>
      </trkpt>
      <trkpt lat="49.07432" lon="1.99807">
        <ele>118.7</ele>
        <time>2023-06-03T12:41:53Z</time>
      </trkpt>
      <trkpt lat="49.07435" lon="1.99795">
        <ele>118.5</ele>
        <time>2023-06-03T12:41:58Z</time>
      </trkpt>
      <trkpt lat="49.07437" lon="1.9978">
        <ele>118.4</ele>
        <time>2023-06-03T12:42:04Z</time>
      </trkpt>
      <trkpt lat="49.0744" lon="1.99771">
        <ele>118.3</ele>
        <time>2023-06-03T12:42:09Z</time>
      </trkpt>
      <trkpt lat="49.07444" lon="1.99761">
        <ele>118</ele>
        <time>2023-06-03T12:42:15Z</time>
      </trkpt>
      <trkpt lat="49.07448" lon="1.9975">
        <ele>117.7</ele>
        <time>2023-06-03T12:42:21Z</time>
      </trkpt>
      <trkpt lat="49.07451" lon="1.99741">
        <ele>117.4</ele>
        <time>2023-06-03T12:42:26Z</time>
      </trkpt>
      <trkpt lat="49.07455" lon="1.9973">
        <ele>117</ele>
        <time>2023-06-03T12:42:32Z</time>
      </trkpt>
      <trkpt lat="49.07458" lon="1.99721">
        <ele>116.7</ele>
        <time>2023-06-03T12:42:37Z</time>
      </trkpt>
      <trkpt lat="49.0746" lon="1.99713">
        <ele>116.5</ele>
        <time>2023-06-03T12:42:42Z</time>
      </trkpt>
      <trkpt lat="49.07463" lon="1.99704">
        <ele>116.5</ele>
        <time>2023-06-03T12:42:48Z</time>
      </trkpt>
      <trkpt lat="49.07469" lon="1.99697">
        <ele>116.6</ele>
        <time>2023-06-03T12:42:53Z</time>
      </trkpt>
      <trkpt lat="49.07475" lon="1.99687">
        <ele>116.8</ele>
        <time>2023-06-03T12:42:59Z</time>
      </trkpt>
      <trkpt lat="49.07478" lon="1.99679">
        <ele>117.1</ele>
        <time>2023-06-03T12:43:04Z</time>
      </trkpt>
      <trkpt lat="49.07482" lon="1.9967">
        <ele>117.5</ele>
        <time>2023-06-03T12:43:09Z</time>
      </trkpt>
      <trkpt lat="49.07487" lon="1.9966">
        <ele>118</ele>
        <time>2023-06-03T12:43:15Z</time>
      </trkpt>
      <trkpt lat="49.07488" lon="1.99654">
        <ele>118.3</ele>
        <time>2023-06-03T12:43:20Z</time>
      </trkpt>
      <trkpt lat="49.07493" lon="1.99647">
        <ele>118.9</ele>
        <time>2023-06-03T12:43:26Z</time>
      </trkpt>
      <trkpt lat="49.07497" lon="1.99637">
        <ele>119.5</ele>
        <time>2023-06-03T12:43:32Z</time>
      </trkpt>
      <trkpt lat="49.075" lon="1.99628">
        <ele>119.9</ele>
        <time>2023-06-03T12:43:37Z</time>
      </trkpt>
      <trkpt lat="49.07505" lon="1.99618">
        <ele>120.7</ele>
        <time>2023-06-03T12:43:43Z</time>
      </trkpt>
      <trkpt lat="49.07508" lon="1.9961">
        <ele>121.3</ele>
        <time>2023-06-03T12:43:48Z</time>
      </trkpt>
      <trkpt lat="49.07512" lon="1.99597">
        <ele>121.8</ele>
        <time>2023-06-03T12:43:54Z</time>
      </trkpt>
      <trkpt lat="49.07517" lon="1.99587">
        <ele>122.3</ele>
        <time>2023-06-03T12:44:00Z</time>
      </trkpt>
      <trkpt lat="49.0752" lon="1.99579">
        <ele>122.7</ele>
        <time>2023-06-03T12:44:05Z</time>
      </trkpt>
      <trkpt lat="49.07522" lon="1.99568">
        <ele>123</ele>
        <time>2023-06-03T12:44:10Z</time>
      </trkpt>
      <trkpt lat="49.07524" lon="1.99557">
        <ele>123.6</ele>
        <time>2023-06-03T12:44:16Z</time>
      </trkpt>
      <trkpt lat="49.07527" lon="1.99548">
        <ele>124</ele>
        <time>2023-06-03T12:44:21Z</time>
      </trkpt>
      <trkpt lat="49.0753" lon="1.99538">
        <ele>124.5</ele>
        <time>2023-06-03T12:44:27Z</time>
      </trkpt>
      <trkpt lat="49.07533" lon="1.99528">
        <ele>125.2</ele>
        <time>2023-06-03T12:44:32Z</time>
      </trkpt>
      <trkpt lat="49.07535" lon="1.99518">
        <ele>125.8</ele>
        <time>2023-06-03T12:44:37Z</time>
      </trkpt>
      <trkpt lat="49.07537" lon="1.99507">
        <ele>126.4</ele>
        <time>2023-06-03T12:44:43Z</time>
      </trkpt>
      <trkpt lat="49.07539" lon="1.99494">
        <ele>127.3</ele>
        <time>2023-06-03T12:44:49Z</time>
      </trkpt>
      <trkpt lat="49.07541" lon="1.99484">
        <ele>128.3</ele>
        <time>2023-06-03T12:44:55Z</time>
      </trkpt>
      <trkpt lat="49.07545" lon="1.99476">
        <ele>129.1</ele>
        <time>2023-06-03T12:45:00Z</time>
      </trkpt>
      <trkpt lat="49.07549" lon="1.99461">
        <ele>129.9</ele>
        <time>2023-06-03T12:45:06Z</time>
      </trkpt>
      <trkpt lat="49.07551" lon="1.99452">
        <ele>130.4</ele>
        <time>2023-06-03T12:45:11Z</time>
      </trkpt>
      <trkpt lat="49.07556" lon="1.99442">
        <ele>130.9</ele>
        <time>2023-06-03T12:45:16Z</time>
      </trkpt>
      <trkpt lat="49.07558" lon="1.99432">
        <ele>131.6</ele>
        <time>2023-06-03T12:45:22Z</time>
      </trkpt>
      <trkpt lat="49.07564" lon="1.99421">
        <ele>132.3</ele>
        <time>2023-06-03T12:45:28Z</time>
      </trkpt>
      <trkpt lat="49.07569" lon="1.99409">
        <ele>133</ele>
        <time>2023-06-03T12:45:34Z</time>
      </trkpt>
      <trkpt lat="49.07574" lon="1.99396">
        <ele>133.7</ele>
        <time>2023-06-03T12:45:40Z</time>
      </trkpt>
      <trkpt lat="49.07576" lon="1.99387">
        <ele>134.5</ele>
        <time>2023-06-03T12:45:46Z</time>
      </trkpt>
      <trkpt lat="49.07579" lon="1.99376">
        <ele>135</ele>
        <time>2023-06-03T12:45:52Z</time>
      </trkpt>
      <trkpt lat="49.07582" lon="1.99366">
        <ele>135.3</ele>
        <time>2023-06-03T12:45:57Z</time>
      </trkpt>
      <trkpt lat="49.07585" lon="1.99356">
        <ele>135.6</ele>
        <time>2023-06-03T12:46:03Z</time>
      </trkpt>
      <trkpt lat="49.07588" lon="1.99346">
        <ele>135.9</ele>
        <time>2023-06-03T12:46:08Z</time>
      </trkpt>
      <trkpt lat="49.07594" lon="1.99334">
        <ele>136.4</ele>
        <time>2023-06-03T12:46:14Z</time>
      </trkpt>
      <trkpt lat="49.07599" lon="1.99324">
        <ele>136.8</ele>
        <time>2023-06-03T12:46:19Z</time>
      </trkpt>
      <trkpt lat="49.07603" lon="1.99312">
        <ele>137.2</ele>
        <time>2023-06-03T12:46:25Z</time>
      </trkpt>
      <trkpt lat="49.07607" lon="1.99302">
        <ele>137.6</ele>
        <time>2023-06-03T12:46:31Z</time>
      </trkpt>
      <trkpt lat="49.07612" lon="1.99289">
        <ele>137.9</ele>
        <time>2023-06-03T12:46:37Z</time>
      </trkpt>
      <trkpt lat="49.07614" lon="1.9928">
        <ele>138</ele>
        <time>2023-06-03T12:46:42Z</time>
      </trkpt>
      <trkpt lat="49.07617" lon="1.99271">
        <ele>138.2</ele>
        <time>2023-06-03T12:46:47Z</time>
      </trkpt>
      <trkpt lat="49.07621" lon="1.9926">
        <ele>138.3</ele>
        <time>2023-06-03T12:46:52Z</time>
      </trkpt>
      <trkpt lat="49.07627" lon="1.99249">
        <ele>138.4</ele>
        <time>2023-06-03T12:46:58Z</time>
      </trkpt>
      <trkpt lat="49.07633" lon="1.99238">
        <ele>138.6</ele>
        <time>2023-06-03T12:47:04Z</time>
      </trkpt>
      <trkpt lat="49.07635" lon="1.9923">
        <ele>138.9</ele>
        <time>2023-06-03T12:47:09Z</time>
      </trkpt>
      <trkpt lat="49.07637" lon="1.9922">
        <ele>139.2</ele>
        <time>2023-06-03T12:47:15Z</time>
      </trkpt>
      <trkpt lat="49.07642" lon="1.99213">
        <ele>139.4</ele>
        <time>2023-06-03T12:47:21Z</time>
      </trkpt>
      <trkpt lat="49.07646" lon="1.99206">
        <ele>139.5</ele>
        <time>2023-06-03T12:47:27Z</time>
      </trkpt>
      <trkpt lat="49.07652" lon="1.99198">
        <ele>139.6</ele>
        <time>2023-06-03T12:47:32Z</time>
      </trkpt>
      <trkpt lat="49.07657" lon="1.9919">
        <ele>139.7</ele>
        <time>2023-06-03T12:47:37Z</time>
      </trkpt>
      <trkpt lat="49.07661" lon="1.99181">
        <ele>139.8</ele>
        <time>2023-06-03T12:47:43Z</time>
      </trkpt>
      <trkpt lat="49.07666" lon="1.99171">
        <ele>139.9</ele>
        <time>2023-06-03T12:47:49Z</time>
      </trkpt>
      <trkpt lat="49.07673" lon="1.99161">
        <ele>139.9</ele>
        <time>2023-06-03T12:47:55Z</time>
      </trkpt>
      <trkpt lat="49.07678" lon="1.99153">
        <ele>139.8</ele>
        <time>2023-06-03T12:48:01Z</time>
      </trkpt>
      <trkpt lat="49.07682" lon="1.99145">
        <ele>139.7</ele>
        <time>2023-06-03T12:48:06Z</time>
      </trkpt>
      <trkpt lat="49.07686" lon="1.99137">
        <ele>139.3</ele>
        <time>2023-06-03T12:48:12Z</time>
      </trkpt>
      <trkpt lat="49.07691" lon="1.99123">
        <ele>138.9</ele>
        <time>2023-06-03T12:48:18Z</time>
      </trkpt>
      <trkpt lat="49.07694" lon="1.99115">
        <ele>138.4</ele>
        <time>2023-06-03T12:48:24Z</time>
      </trkpt>
      <trkpt lat="49.07699" lon="1.99109">
        <ele>137.7</ele>
        <time>2023-06-03T12:48:30Z</time>
      </trkpt>
      <trkpt lat="49.07704" lon="1.99098">
        <ele>137</ele>
        <time>2023-06-03T12:48:36Z</time>
      </trkpt>
      <trkpt lat="49.07708" lon="1.99084">
        <ele>136.3</ele>
        <time>2023-06-03T12:48:42Z</time>
      </trkpt>
      <trkpt lat="49.07713" lon="1.99072">
        <ele>135.4</ele>
        <time>2023-06-03T12:48:48Z</time>
      </trkpt>
      <trkpt lat="49.07718" lon="1.99061">
        <ele>134.2</ele>
        <time>2023-06-03T12:48:54Z</time>
      </trkpt>
      <trkpt lat="49.07722" lon="1.99055">
        <ele>133</ele>
        <time>2023-06-03T12:49:00Z</time>
      </trkpt>
      <trkpt lat="49.07726" lon="1.99047">
        <ele>131.9</ele>
        <time>2023-06-03T12:49:05Z</time>
      </trkpt>
      <trkpt lat="49.0773" lon="1.99034">
        <ele>130.6</ele>
        <time>2023-06-03T12:49:11Z</time>
      </trkpt>
      <trkpt lat="49.07734" lon="1.99024">
        <ele>129.3</ele>
        <time>2023-06-03T12:49:17Z</time>
      </trkpt>
      <trkpt lat="49.07737" lon="1.99015">
        <ele>128.4</ele>
        <time>2023-06-03T12:49:22Z</time>
      </trkpt>
      <trkpt lat="49.07741" lon="1.99004">
        <ele>127.2</ele>
        <time>2023-06-03T12:49:28Z</time>
      </trkpt>
      <trkpt lat="49.07742" lon="1.98995">
        <ele>126.3</ele>
        <time>2023-06-03T12:49:33Z</time>
      </trkpt>
      <trkpt lat="49.07742" lon="1.98984">
        <ele>125.3</ele>
        <time>2023-06-03T12:49:39Z</time>
      </trkpt>
      <trkpt lat="49.07744" lon="1.98974">
        <ele>124.3</ele>
        <time>2023-06-03T12:49:45Z</time>
      </trkpt>
      <trkpt lat="49.07745" lon="1.98961">
        <ele>123.3</ele>
        <time>2023-06-03T12:49:51Z</time>
      </trkpt>
      <trkpt lat="49.07746" lon="1.98947">
        <ele>122.7</ele>
        <time>2023-06-03T12:49:57Z</time>
      </trkpt>
      <trkpt lat="49.07746" lon="1.98935">
        <ele>122.2</ele>
        <time>2023-06-03T12:50:02Z</time>
      </trkpt>
      <trkpt lat="49.07747" lon="1.98921">
        <ele>122</ele>
        <time>2023-06-03T12:50:08Z</time>
      </trkpt>
      <trkpt lat="49.0775" lon="1.98912">
        <ele>122.2</ele>
        <time>2023-06-03T12:50:13Z</time>
      </trkpt>
      <trkpt lat="49.0775" lon="1.98901">
        <ele>122.4</ele>
        <time>2023-06-03T12:50:19Z</time>
      </trkpt>
      <trkpt lat="49.07751" lon="1.98891">
        <ele>122.5</ele>
        <time>2023-06-03T12:50:24Z</time>
      </trkpt>
      <trkpt lat="49.07752" lon="1.9888">
        <ele>122.8</ele>
        <time>2023-06-03T12:50:30Z</time>
      </trkpt>
      <trkpt lat="49.07753" lon="1.9887">
        <ele>123</ele>
        <time>2023-06-03T12:50:36Z</time>
      </trkpt>
      <trkpt lat="49.07757" lon="1.98876">
        <ele>123.1</ele>
        <time>2023-06-03T12:50:42Z</time>
      </trkpt>
      <trkpt lat="49.07757" lon="1.98888">
        <ele>122.8</ele>
        <time>2023-06-03T12:50:48Z</time>
      </trkpt>
      <trkpt lat="49.07757" lon="1.98899">
        <ele>122.6</ele>
        <time>2023-06-03T12:50:53Z</time>
      </trkpt>
      <trkpt lat="49.07759" lon="1.98912">
        <ele>122.5</ele>
        <time>2023-06-03T12:50:59Z</time>
      </trkpt>
      <trkpt lat="49.0776" lon="1.98922">
        <ele>122.5</ele>
        <time>2023-06-03T12:51:04Z</time>
      </trkpt>
      <trkpt lat="49.07763" lon="1.98934">
        <ele>122.2</ele>
        <time>2023-06-03T12:51:10Z</time>
      </trkpt>
      <trkpt lat="49.07767" lon="1.9895">
        <ele>121.7</ele>
        <time>2023-06-03T12:51:16Z</time>
      </trkpt>
      <trkpt lat="49.07771" lon="1.98962">
        <ele>121.3</ele>
        <time>2023-06-03T12:51:21Z</time>
      </trkpt>
      <trkpt lat="49.07776" lon="1.98973">
        <ele>120.6</ele>
        <time>2023-06-03T12:51:27Z</time>
      </trkpt>
      <trkpt lat="49.07779" lon="1.98981">
        <ele>119.7</ele>
        <time>2023-06-03T12:51:33Z</time>
      </trkpt>
      <trkpt lat="49.0778" lon="1.98991">
        <ele>118.6</ele>
        <time>2023-06-03T12:51:39Z</time>
      </trkpt>
      <trkpt lat="49.07785" lon="1.99">
        <ele>117.8</ele>
        <time>2023-06-03T12:51:44Z</time>
      </trkpt>
      <trkpt lat="49.07794" lon="1.99012">
        <ele>116.9</ele>
        <time>2023-06-03T12:51:50Z</time>
      </trkpt>
      <trkpt lat="49.078" lon="1.99021">
        <ele>116</ele>
        <time>2023-06-03T12:51:55Z</time>
      </trkpt>
      <trkpt lat="49.07804" lon="1.99031">
        <ele>115.3</ele>
        <time>2023-06-03T12:52:00Z</time>
      </trkpt>
      <trkpt lat="49.07808" lon="1.99043">
        <ele>114.6</ele>
        <time>2023-06-03T12:52:06Z</time>
      </trkpt>
      <trkpt lat="49.07812" lon="1.99056">
        <ele>114</ele>
        <time>2023-06-03T12:52:12Z</time>
      </trkpt>
      <trkpt lat="49.07818" lon="1.9907">
        <ele>113.2</ele>
        <time>2023-06-03T12:52:18Z</time>
      </trkpt>
      <trkpt lat="49.0782" lon="1.9908">
        <ele>112.4</ele>
        <time>2023-06-03T12:52:23Z</time>
      </trkpt>
      <trkpt lat="49.07821" lon="1.9909">
        <ele>111.6</ele>
        <time>2023-06-03T12:52:29Z</time>
      </trkpt>
      <trkpt lat="49.07823" lon="1.99101">
        <ele>111</ele>
        <time>2023-06-03T12:52:35Z</time>
      </trkpt>
      <trkpt lat="49.07826" lon="1.9911">
        <ele>111</ele>
        <time>2023-06-03T12:52:41Z</time>
      </trkpt>
      <trkpt lat="49.07828" lon="1.99124">
        <ele>110.8</ele>
        <time>2023-06-03T12:52:47Z</time>
      </trkpt>
      <trkpt lat="49.07831" lon="1.99136">
        <ele>110.8</ele>
        <time>2023-06-03T12:52:52Z</time>
      </trkpt>
      <trkpt lat="49.07833" lon="1.99148">
        <ele>110.6</ele>
        <time>2023-06-03T12:52:57Z</time>
      </trkpt>
      <trkpt lat="49.07834" lon="1.99162">
        <ele>110.6</ele>
        <time>2023-06-03T12:53:02Z</time>
      </trkpt>
      <trkpt lat="49.07838" lon="1.99174">
        <ele>110.6</ele>
        <time>2023-06-03T12:53:08Z</time>
      </trkpt>
      <trkpt lat="49.07844" lon="1.99188">
        <ele>110.8</ele>
        <time>2023-06-03T12:53:14Z</time>
      </trkpt>
      <trkpt lat="49.07846" lon="1.99202">
        <ele>111</ele>
        <time>2023-06-03T12:53:20Z</time>
      </trkpt>
      <trkpt lat="49.07847" lon="1.99213">
        <ele>111.2</ele>
        <time>2023-06-03T12:53:26Z</time>
      </trkpt>
      <trkpt lat="49.0785" lon="1.99225">
        <ele>111.3</ele>
        <time>2023-06-03T12:53:31Z</time>
      </trkpt>
      <trkpt lat="49.07854" lon="1.9924">
        <ele>111.2</ele>
        <time>2023-06-03T12:53:37Z</time>
      </trkpt>
      <trkpt lat="49.07859" lon="1.99249">
        <ele>111.1</ele>
        <time>2023-06-03T12:53:43Z</time>
      </trkpt>
      <trkpt lat="49.07864" lon="1.99262">
        <ele>111.1</ele>
        <time>2023-06-03T12:53:49Z</time>
      </trkpt>
      <trkpt lat="49.07867" lon="1.99272">
        <ele>111.1</ele>
        <time>2023-06-03T12:53:54Z</time>
      </trkpt>
      <trkpt lat="49.07872" lon="1.99282">
        <ele>111.1</ele>
        <time>2023-06-03T12:54:00Z</time>
      </trkpt>
      <trkpt lat="49.07875" lon="1.99294">
        <ele>111</ele>
        <time>2023-06-03T12:54:06Z</time>
      </trkpt>
      <trkpt lat="49.07878" lon="1.99305">
        <ele>110.8</ele>
        <time>2023-06-03T12:54:11Z</time>
      </trkpt>
      <trkpt lat="49.07884" lon="1.99319">
        <ele>110.3</ele>
        <time>2023-06-03T12:54:17Z</time>
      </trkpt>
      <trkpt lat="49.07885" lon="1.99332">
        <ele>109.9</ele>
        <time>2023-06-03T12:54:22Z</time>
      </trkpt>
      <trkpt lat="49.07886" lon="1.99346">
        <ele>109.5</ele>
        <time>2023-06-03T12:54:28Z</time>
      </trkpt>
      <trkpt lat="49.07888" lon="1.99354">
        <ele>108.9</ele>
        <time>2023-06-03T12:54:33Z</time>
      </trkpt>
      <trkpt lat="49.07894" lon="1.99361">
        <ele>108.3</ele>
        <time>2023-06-03T12:54:39Z</time>
      </trkpt>
      <trkpt lat="49.07899" lon="1.99374">
        <ele>107.7</ele>
        <time>2023-06-03T12:54:45Z</time>
      </trkpt>
      <trkpt lat="49.07904" lon="1.99387">
        <ele>107.2</ele>
        <time>2023-06-03T12:54:51Z</time>
      </trkpt>
      <trkpt lat="49.0791" lon="1.99399">
        <ele>106.8</ele>
        <time>2023-06-03T12:54:57Z</time>
      </trkpt>
      <trkpt lat="49.07915" lon="1.99413">
        <ele>106.5</ele>
        <time>2023-06-03T12:55:03Z</time>
      </trkpt>
      <trkpt lat="49.07919" lon="1.99421">
        <ele>106.3</ele>
        <time>2023-06-03T12:55:08Z</time>
      </trkpt>
      <trkpt lat="49.07925" lon="1.9943">
        <ele>106.1</ele>
        <time>2023-06-03T12:55:13Z</time>
      </trkpt>
      <trkpt lat="49.07932" lon="1.99444">
        <ele>105.6</ele>
        <time>2023-06-03T12:55:19Z</time>
      </trkpt>
      <trkpt lat="49.07939" lon="1.99452">
        <ele>105.5</ele>
        <time>2023-06-03T12:55:24Z</time>
      </trkpt>
      <trkpt lat="49.07947" lon="1.99464">
        <ele>105.5</ele>
        <time>2023-06-03T12:55:30Z</time>
      </trkpt>
      <trkpt lat="49.07948" lon="1.99473">
        <ele>105.5</ele>
        <time>2023-06-03T12:55:35Z</time>
      </trkpt>
      <trkpt lat="49.0795" lon="1.99484">
        <ele>105.7</ele>
        <time>2023-06-03T12:55:41Z</time>
      </trkpt>
      <trkpt lat="49.07953" lon="1.99497">
        <ele>106.1</ele>
        <time>2023-06-03T12:55:47Z</time>
      </trkpt>
      <trkpt lat="49.07954" lon="1.99507">
        <ele>106.7</ele>
        <time>2023-06-03T12:55:52Z</time>
      </trkpt>
      <trkpt lat="49.07956" lon="1.99518">
        <ele>107.4</ele>
        <time>2023-06-03T12:55:57Z</time>
      </trkpt>
      <trkpt lat="49.07958" lon="1.99529">
        <ele>108.1</ele>
        <time>2023-06-03T12:56:03Z</time>
      </trkpt>
      <trkpt lat="49.07959" lon="1.99543">
        <ele>108.7</ele>
        <time>2023-06-03T12:56:09Z</time>
      </trkpt>
      <trkpt lat="49.07963" lon="1.9956">
        <ele>109.3</ele>
        <time>2023-06-03T12:56:15Z</time>
      </trkpt>
      <trkpt lat="49.07965" lon="1.99577">
        <ele>109.7</ele>
        <time>2023-06-03T12:56:21Z</time>
      </trkpt>
      <trkpt lat="49.07969" lon="1.99592">
        <ele>110.2</ele>
        <time>2023-06-03T12:56:27Z</time>
      </trkpt>
      <trkpt lat="49.07972" lon="1.99605">
        <ele>110.6</ele>
        <time>2023-06-03T12:56:32Z</time>
      </trkpt>
      <trkpt lat="49.07975" lon="1.99618">
        <ele>110.9</ele>
        <time>2023-06-03T12:56:37Z</time>
      </trkpt>
      <trkpt lat="49.07977" lon="1.99631">
        <ele>111.3</ele>
        <time>2023-06-03T12:56:43Z</time>
      </trkpt>
      <trkpt lat="49.0798" lon="1.9964">
        <ele>111.7</ele>
        <time>2023-06-03T12:56:48Z</time>
      </trkpt>
      <trkpt lat="49.07983" lon="1.99649">
        <ele>111.8</ele>
        <time>2023-06-03T12:56:53Z</time>
      </trkpt>
      <trkpt lat="49.07986" lon="1.99661">
        <ele>111.7</ele>
        <time>2023-06-03T12:56:59Z</time>
      </trkpt>
      <trkpt lat="49.07985" lon="1.99674">
        <ele>111.4</ele>
        <time>2023-06-03T12:57:04Z</time>
      </trkpt>
      <trkpt lat="49.07986" lon="1.99684">
        <ele>111</ele>
        <time>2023-06-03T12:57:09Z</time>
      </trkpt>
      <trkpt lat="49.07984" lon="1.99698">
        <ele>110.6</ele>
        <time>2023-06-03T12:57:15Z</time>
      </trkpt>
      <trkpt lat="49.07981" lon="1.99713">
        <ele>109.9</ele>
        <time>2023-06-03T12:57:21Z</time>
      </trkpt>
      <trkpt lat="49.07979" lon="1.9973">
        <ele>109.1</ele>
        <time>2023-06-03T12:57:27Z</time>
      </trkpt>
      <trkpt lat="49.07974" lon="1.99741">
        <ele>108.7</ele>
        <time>2023-06-03T12:57:32Z</time>
      </trkpt>
      <trkpt lat="49.07969" lon="1.99751">
        <ele>108.2</ele>
        <time>2023-06-03T12:57:37Z</time>
      </trkpt>
      <trkpt lat="49.07963" lon="1.99761">
        <ele>108.1</ele>
        <time>2023-06-03T12:57:43Z</time>
      </trkpt>
      <trkpt lat="49.07956" lon="1.99772">
        <ele>107.9</ele>
        <time>2023-06-03T12:57:49Z</time>
      </trkpt>
      <trkpt lat="49.07951" lon="1.99784">
        <ele>107.6</ele>
        <time>2023-06-03T12:57:55Z</time>
      </trkpt>
      <trkpt lat="49.07947" lon="1.99795">
        <ele>107.4</ele>
        <time>2023-06-03T12:58:01Z</time>
      </trkpt>
      <trkpt lat="49.07943" lon="1.99807">
        <ele>107.2</ele>
        <time>2023-06-03T12:58:07Z</time>
      </trkpt>
      <trkpt lat="49.07937" lon="1.99815">
        <ele>107</ele>
        <time>2023-06-03T12:58:13Z</time>
      </trkpt>
      <trkpt lat="49.07932" lon="1.99826">
        <ele>106.9</ele>
        <time>2023-06-03T12:58:18Z</time>
      </trkpt>
      <trkpt lat="49.07928" lon="1.99836">
        <ele>106.8</ele>
        <time>2023-06-03T12:58:23Z</time>
      </trkpt>
      <trkpt lat="49.07923" lon="1.99849">
        <ele>106.7</ele>
        <time>2023-06-03T12:58:29Z</time>
      </trkpt>
      <trkpt lat="49.07921" lon="1.99858">
        <ele>106.7</ele>
        <time>2023-06-03T12:58:34Z</time>
      </trkpt>
      <trkpt lat="49.07919" lon="1.99868">
        <ele>106.5</ele>
        <time>2023-06-03T12:58:39Z</time>
      </trkpt>
      <trkpt lat="49.07916" lon="1.9988">
        <ele>106.4</ele>
        <time>2023-06-03T12:58:44Z</time>
      </trkpt>
      <trkpt lat="49.07914" lon="1.99892">
        <ele>106.3</ele>
        <time>2023-06-03T12:58:50Z</time>
      </trkpt>
      <trkpt lat="49.07912" lon="1.999">
        <ele>106.4</ele>
        <time>2023-06-03T12:58:56Z</time>
      </trkpt>
      <trkpt lat="49.07909" lon="1.99912">
        <ele>106.1</ele>
        <time>2023-06-03T12:59:02Z</time>
      </trkpt>
      <trkpt lat="49.07906" lon="1.99922">
        <ele>105.9</ele>
        <time>2023-06-03T12:59:07Z</time>
      </trkpt>
      <trkpt lat="49.07904" lon="1.99938">
        <ele>105.7</ele>
        <time>2023-06-03T12:59:13Z</time>
      </trkpt>
      <trkpt lat="49.07901" lon="1.99949">
        <ele>105.5</ele>
        <time>2023-06-03T12:59:18Z</time>
      </trkpt>
      <trkpt lat="49.079" lon="1.99962">
        <ele>105.3</ele>
        <time>2023-06-03T12:59:24Z</time>
      </trkpt>
      <trkpt lat="49.07899" lon="1.99973">
        <ele>105.2</ele>
        <time>2023-06-03T12:59:29Z</time>
      </trkpt>
      <trkpt lat="49.07895" lon="1.99986">
        <ele>104.9</ele>
        <time>2023-06-03T12:59:35Z</time>
      </trkpt>
      <trkpt lat="49.0789" lon="1.99998">
        <ele>104.6</ele>
        <time>2023-06-03T12:59:41Z</time>
      </trkpt>
      <trkpt lat="49.07888" lon="2.00011">
        <ele>104.4</ele>
        <time>2023-06-03T12:59:47Z</time>
      </trkpt>
      <trkpt lat="49.07887" lon="2.00022">
        <ele>104.1</ele>
        <time>2023-06-03T12:59:52Z</time>
      </trkpt>
      <trkpt lat="49.07883" lon="2.00036">
        <ele>103.7</ele>
        <time>2023-06-03T12:59:58Z</time>
      </trkpt>
      <trkpt lat="49.07878" lon="2.00047">
        <ele>102.7</ele>
        <time>2023-06-03T13:00:04Z</time>
      </trkpt>
      <trkpt lat="49.07876" lon="2.00059">
        <ele>101.9</ele>
        <time>2023-06-03T13:00:09Z</time>
      </trkpt>
      <trkpt lat="49.07873" lon="2.00075">
        <ele>101.4</ele>
        <time>2023-06-03T13:00:15Z</time>
      </trkpt>
      <trkpt lat="49.07865" lon="2.00086">
        <ele>101.1</ele>
        <time>2023-06-03T13:00:21Z</time>
      </trkpt>
      <trkpt lat="49.07859" lon="2.00093">
        <ele>100.7</ele>
        <time>2023-06-03T13:00:26Z</time>
      </trkpt>
      <trkpt lat="49.07852" lon="2.00103">
        <ele>100.2</ele>
        <time>2023-06-03T13:00:32Z</time>
      </trkpt>
      <trkpt lat="49.07845" lon="2.00112">
        <ele>100.1</ele>
        <time>2023-06-03T13:00:37Z</time>
      </trkpt>
      <trkpt lat="49.07838" lon="2.00121">
        <ele>100.2</ele>
        <time>2023-06-03T13:00:42Z</time>
      </trkpt>
      <trkpt lat="49.07831" lon="2.00134">
        <ele>100.5</ele>
        <time>2023-06-03T13:00:51Z</time>
      </trkpt>
      <trkpt lat="49.07829" lon="2.00139">
        <ele>100.7</ele>
        <time>2023-06-03T13:00:56Z</time>
      </trkpt>
      <trkpt lat="49.07829" lon="2.00141">
        <ele>100.7</ele>
        <time>2023-06-03T13:01:02Z</time>
      </trkpt>
      <trkpt lat="49.07829" lon="2.00141">
        <ele>100.7</ele>
        <time>2023-06-03T13:01:10Z</time>
      </trkpt>
      <trkpt lat="49.07829" lon="2.00143">
        <ele>100.7</ele>
        <time>2023-06-03T13:01:16Z</time>
      </trkpt>
      <trkpt lat="49.07825" lon="2.00148">
        <ele>100.9</ele>
        <time>2023-06-03T13:01:21Z</time>
      </trkpt>
      <trkpt lat="49.07819" lon="2.00152">
        <ele>101.2</ele>
        <time>2023-06-03T13:01:27Z</time>
      </trkpt>
      <trkpt lat="49.07813" lon="2.00158">
        <ele>101.2</ele>
        <time>2023-06-03T13:01:32Z</time>
      </trkpt>
      <trkpt lat="49.07809" lon="2.00168">
        <ele>101</ele>
        <time>2023-06-03T13:01:37Z</time>
      </trkpt>
      <trkpt lat="49.07803" lon="2.00173">
        <ele>100.6</ele>
        <time>2023-06-03T13:01:43Z</time>
      </trkpt>
      <trkpt lat="49.07797" lon="2.00178">
        <ele>100</ele>
        <time>2023-06-03T13:01:49Z</time>
      </trkpt>
      <trkpt lat="49.07788" lon="2.00185">
        <ele>99</ele>
        <time>2023-06-03T13:01:55Z</time>
      </trkpt>
      <trkpt lat="49.07782" lon="2.00194">
        <ele>97.8</ele>
        <time>2023-06-03T13:02:01Z</time>
      </trkpt>
      <trkpt lat="49.07783" lon="2.00204">
        <ele>97</ele>
        <time>2023-06-03T13:02:06Z</time>
      </trkpt>
      <trkpt lat="49.07788" lon="2.00219">
        <ele>96.4</ele>
        <time>2023-06-03T13:02:12Z</time>
      </trkpt>
      <trkpt lat="49.07792" lon="2.00232">
        <ele>95.9</ele>
        <time>2023-06-03T13:02:18Z</time>
      </trkpt>
      <trkpt lat="49.07796" lon="2.00245">
        <ele>95.6</ele>
        <time>2023-06-03T13:02:24Z</time>
      </trkpt>
      <trkpt lat="49.07801" lon="2.00257">
        <ele>95.1</ele>
        <time>2023-06-03T13:02:30Z</time>
      </trkpt>
      <trkpt lat="49.07806" lon="2.00267">
        <ele>94.5</ele>
        <time>2023-06-03T13:02:36Z</time>
      </trkpt>
      <trkpt lat="49.07808" lon="2.00279">
        <ele>93.7</ele>
        <time>2023-06-03T13:02:42Z</time>
      </trkpt>
      <trkpt lat="49.07808" lon="2.0029">
        <ele>93</ele>
        <time>2023-06-03T13:02:47Z</time>
      </trkpt>
      <trkpt lat="49.07809" lon="2.00303">
        <ele>92.1</ele>
        <time>2023-06-03T13:02:53Z</time>
      </trkpt>
      <trkpt lat="49.0781" lon="2.00313">
        <ele>91.4</ele>
        <time>2023-06-03T13:02:58Z</time>
      </trkpt>
      <trkpt lat="49.07813" lon="2.00323">
        <ele>90.5</ele>
        <time>2023-06-03T13:03:04Z</time>
      </trkpt>
      <trkpt lat="49.07818" lon="2.00328">
        <ele>89.8</ele>
        <time>2023-06-03T13:03:10Z</time>
      </trkpt>
      <trkpt lat="49.07826" lon="2.00328">
        <ele>89.3</ele>
        <time>2023-06-03T13:03:16Z</time>
      </trkpt>
      <trkpt lat="49.07833" lon="2.00326">
        <ele>89</ele>
        <time>2023-06-03T13:03:21Z</time>
      </trkpt>
      <trkpt lat="49.07839" lon="2.00322">
        <ele>88.8</ele>
        <time>2023-06-03T13:03:27Z</time>
      </trkpt>
      <trkpt lat="49.07845" lon="2.00318">
        <ele>88.8</ele>
        <time>2023-06-03T13:03:32Z</time>
      </trkpt>
      <trkpt lat="49.07853" lon="2.00312">
        <ele>88.8</ele>
        <time>2023-06-03T13:03:38Z</time>
      </trkpt>
      <trkpt lat="49.07858" lon="2.00307">
        <ele>88.9</ele>
        <time>2023-06-03T13:03:43Z</time>
      </trkpt>
      <trkpt lat="49.07865" lon="2.00301">
        <ele>89.1</ele>
        <time>2023-06-03T13:03:49Z</time>
      </trkpt>
      <trkpt lat="49.07872" lon="2.00297">
        <ele>89.3</ele>
        <time>2023-06-03T13:03:54Z</time>
      </trkpt>
      <trkpt lat="49.07879" lon="2.00292">
        <ele>89.4</ele>
        <time>2023-06-03T13:04:00Z</time>
      </trkpt>
      <trkpt lat="49.07885" lon="2.00289">
        <ele>89.5</ele>
        <time>2023-06-03T13:04:05Z</time>
      </trkpt>
      <trkpt lat="49.07893" lon="2.00286">
        <ele>89.6</ele>
        <time>2023-06-03T13:04:11Z</time>
      </trkpt>
      <trkpt lat="49.07897" lon="2.00285">
        <ele>89.6</ele>
        <time>2023-06-03T13:04:16Z</time>
      </trkpt>
      <trkpt lat="49.07902" lon="2.00285">
        <ele>89.5</ele>
        <time>2023-06-03T13:04:22Z</time>
      </trkpt>
      <trkpt lat="49.07904" lon="2.0028">
        <ele>89.3</ele>
        <time>2023-06-03T13:04:27Z</time>
      </trkpt>
      <trkpt lat="49.07906" lon="2.00277">
        <ele>89.3</ele>
        <time>2023-06-03T13:04:33Z</time>
      </trkpt>
      <trkpt lat="49.07907" lon="2.00277">
        <ele>89.4</ele>
        <time>2023-06-03T13:04:39Z</time>
      </trkpt>
      <trkpt lat="49.07908" lon="2.00277">
        <ele>89.4</ele>
        <time>2023-06-03T13:04:45Z</time>
      </trkpt>
      <trkpt lat="49.07908" lon="2.00277">
        <ele>89.5</ele>
        <time>2023-06-03T13:04:51Z</time>
      </trkpt>
      <trkpt lat="49.07912" lon="2.00278">
        <ele>89.6</ele>
        <time>2023-06-03T13:04:57Z</time>
      </trkpt>
      <trkpt lat="49.07921" lon="2.00279">
        <ele>89.8</ele>
        <time>2023-06-03T13:05:03Z</time>
      </trkpt>
      <trkpt lat="49.0793" lon="2.00282">
        <ele>90</ele>
        <time>2023-06-03T13:05:09Z</time>
      </trkpt>
      <trkpt lat="49.07939" lon="2.00286">
        <ele>90</ele>
        <time>2023-06-03T13:05:15Z</time>
      </trkpt>
      <trkpt lat="49.07946" lon="2.00291">
        <ele>89.9</ele>
        <time>2023-06-03T13:05:20Z</time>
      </trkpt>
      <trkpt lat="49.07952" lon="2.00296">
        <ele>89.8</ele>
        <time>2023-06-03T13:05:25Z</time>
      </trkpt>
      <trkpt lat="49.07959" lon="2.00302">
        <ele>89.7</ele>
        <time>2023-06-03T13:05:31Z</time>
      </trkpt>
      <trkpt lat="49.07966" lon="2.00309">
        <ele>89.3</ele>
        <time>2023-06-03T13:05:36Z</time>
      </trkpt>
      <trkpt lat="49.07973" lon="2.00316">
        <ele>88.6</ele>
        <time>2023-06-03T13:05:41Z</time>
      </trkpt>
      <trkpt lat="49.07982" lon="2.00323">
        <ele>88.2</ele>
        <time>2023-06-03T13:05:47Z</time>
      </trkpt>
      <trkpt lat="49.0799" lon="2.00328">
        <ele>88</ele>
        <time>2023-06-03T13:05:53Z</time>
      </trkpt>
      <trkpt lat="49.07996" lon="2.00335">
        <ele>87.5</ele>
        <time>2023-06-03T13:05:59Z</time>
      </trkpt>
      <trkpt lat="49.08003" lon="2.00347">
        <ele>87.1</ele>
        <time>2023-06-03T13:06:05Z</time>
      </trkpt>
      <trkpt lat="49.08011" lon="2.00356">
        <ele>86.5</ele>
        <time>2023-06-03T13:06:11Z</time>
      </trkpt>
      <trkpt lat="49.08018" lon="2.00364">
        <ele>86.1</ele>
        <time>2023-06-03T13:06:17Z</time>
      </trkpt>
      <trkpt lat="49.08025" lon="2.00371">
        <ele>86</ele>
        <time>2023-06-03T13:06:23Z</time>
      </trkpt>
      <trkpt lat="49.08032" lon="2.00379">
        <ele>86.2</ele>
        <time>2023-06-03T13:06:28Z</time>
      </trkpt>
      <trkpt lat="49.08038" lon="2.00389">
        <ele>86.3</ele>
        <time>2023-06-03T13:06:34Z</time>
      </trkpt>
      <trkpt lat="49.08044" lon="2.00395">
        <ele>86.5</ele>
        <time>2023-06-03T13:06:39Z</time>
      </trkpt>
      <trkpt lat="49.08049" lon="2.00401">
        <ele>86.7</ele>
        <time>2023-06-03T13:06:44Z</time>
      </trkpt>
      <trkpt lat="49.08055" lon="2.00404">
        <ele>87</ele>
        <time>2023-06-03T13:06:49Z</time>
      </trkpt>
      <trkpt lat="49.08063" lon="2.00411">
        <ele>87.1</ele>
        <time>2023-06-03T13:06:55Z</time>
      </trkpt>
      <trkpt lat="49.08071" lon="2.00417">
        <ele>87</ele>
        <time>2023-06-03T13:07:00Z</time>
      </trkpt>
      <trkpt lat="49.08077" lon="2.00424">
        <ele>86.6</ele>
        <time>2023-06-03T13:07:06Z</time>
      </trkpt>
      <trkpt lat="49.08081" lon="2.00427">
        <ele>86.2</ele>
        <time>2023-06-03T13:07:11Z</time>
      </trkpt>
      <trkpt lat="49.08087" lon="2.00427">
        <ele>86</ele>
        <time>2023-06-03T13:07:16Z</time>
      </trkpt>
      <trkpt lat="49.08094" lon="2.00426">
        <ele>85.8</ele>
        <time>2023-06-03T13:07:22Z</time>
      </trkpt>
      <trkpt lat="49.08098" lon="2.00434">
        <ele>85.7</ele>
        <time>2023-06-03T13:07:28Z</time>
      </trkpt>
      <trkpt lat="49.08101" lon="2.0044">
        <ele>85.9</ele>
        <time>2023-06-03T13:07:33Z</time>
      </trkpt>
      <trkpt lat="49.08104" lon="2.0044">
        <ele>86.2</ele>
        <time>2023-06-03T13:07:38Z</time>
      </trkpt>
      <trkpt lat="49.08111" lon="2.00442">
        <ele>86.6</ele>
        <time>2023-06-03T13:07:44Z</time>
      </trkpt>
      <trkpt lat="49.08117" lon="2.00442">
        <ele>86.9</ele>
        <time>2023-06-03T13:07:49Z</time>
      </trkpt>
      <trkpt lat="49.08126" lon="2.00444">
        <ele>87.1</ele>
        <time>2023-06-03T13:07:55Z</time>
      </trkpt>
      <trkpt lat="49.08134" lon="2.00444">
        <ele>87.4</ele>
        <time>2023-06-03T13:08:01Z</time>
      </trkpt>
      <trkpt lat="49.08144" lon="2.00445">
        <ele>87.7</ele>
        <time>2023-06-03T13:08:07Z</time>
      </trkpt>
      <trkpt lat="49.08149" lon="2.00446">
        <ele>88</ele>
        <time>2023-06-03T13:08:12Z</time>
      </trkpt>
      <trkpt lat="49.08156" lon="2.00449">
        <ele>88.1</ele>
        <time>2023-06-03T13:08:17Z</time>
      </trkpt>
      <trkpt lat="49.08164" lon="2.00447">
        <ele>88.5</ele>
        <time>2023-06-03T13:08:23Z</time>
      </trkpt>
      <trkpt lat="49.08168" lon="2.00443">
        <ele>88.7</ele>
        <time>2023-06-03T13:08:28Z</time>
      </trkpt>
      <trkpt lat="49.08174" lon="2.00445">
        <ele>89.5</ele>
        <time>2023-06-03T13:08:34Z</time>
      </trkpt>
      <trkpt lat="49.0818" lon="2.00448">
        <ele>90.2</ele>
        <time>2023-06-03T13:08:39Z</time>
      </trkpt>
      <trkpt lat="49.08184" lon="2.00448">
        <ele>91.5</ele>
        <time>2023-06-03T13:08:45Z</time>
      </trkpt>
      <trkpt lat="49.08189" lon="2.00446">
        <ele>93.1</ele>
        <time>2023-06-03T13:08:51Z</time>
      </trkpt>
      <trkpt lat="49.08194" lon="2.00444">
        <ele>94.1</ele>
        <time>2023-06-03T13:08:56Z</time>
      </trkpt>
      <trkpt lat="49.08199" lon="2.00446">
        <ele>95</ele>
        <time>2023-06-03T13:09:01Z</time>
      </trkpt>
      <trkpt lat="49.08204" lon="2.00451">
        <ele>95.6</ele>
        <time>2023-06-03T13:09:07Z</time>
      </trkpt>
      <trkpt lat="49.08208" lon="2.00459">
        <ele>96.4</ele>
        <time>2023-06-03T13:09:13Z</time>
      </trkpt>
      <trkpt lat="49.08213" lon="2.00458">
        <ele>97.3</ele>
        <time>2023-06-03T13:09:19Z</time>
      </trkpt>
      <trkpt lat="49.08218" lon="2.00457">
        <ele>98.3</ele>
        <time>2023-06-03T13:09:25Z</time>
      </trkpt>
      <trkpt lat="49.08226" lon="2.00453">
        <ele>99.5</ele>
        <time>2023-06-03T13:09:31Z</time>
      </trkpt>
      <trkpt lat="49.08227" lon="2.00448">
        <ele>100.9</ele>
        <time>2023-06-03T13:09:37Z</time>
      </trkpt>
      <trkpt lat="49.08227" lon="2.00442">
        <ele>101.4</ele>
        <time>2023-06-03T13:09:42Z</time>
      </trkpt>
      <trkpt lat="49.08227" lon="2.00442">
        <ele>102.1</ele>
        <time>2023-06-03T13:09:47Z</time>
      </trkpt>
      <trkpt lat="49.08228" lon="2.00432">
        <ele>103.1</ele>
        <time>2023-06-03T13:09:53Z</time>
      </trkpt>
      <trkpt lat="49.08224" lon="2.00423">
        <ele>103.7</ele>
        <time>2023-06-03T13:09:58Z</time>
      </trkpt>
      <trkpt lat="49.08219" lon="2.00414">
        <ele>104.2</ele>
        <time>2023-06-03T13:10:04Z</time>
      </trkpt>
      <trkpt lat="49.08221" lon="2.00401">
        <ele>104.6</ele>
        <time>2023-06-03T13:10:10Z</time>
      </trkpt>
      <trkpt lat="49.08225" lon="2.00388">
        <ele>105.2</ele>
        <time>2023-06-03T13:10:15Z</time>
      </trkpt>
      <trkpt lat="49.08225" lon="2.00377">
        <ele>105.7</ele>
        <time>2023-06-03T13:10:20Z</time>
      </trkpt>
      <trkpt lat="49.08225" lon="2.00362">
        <ele>106</ele>
        <time>2023-06-03T13:10:26Z</time>
      </trkpt>
      <trkpt lat="49.08229" lon="2.00351">
        <ele>106.2</ele>
        <time>2023-06-03T13:10:32Z</time>
      </trkpt>
      <trkpt lat="49.08226" lon="2.00345">
        <ele>106.2</ele>
        <time>2023-06-03T13:10:37Z</time>
      </trkpt>
      <trkpt lat="49.08221" lon="2.00332">
        <ele>106.3</ele>
        <time>2023-06-03T13:10:43Z</time>
      </trkpt>
      <trkpt lat="49.0822" lon="2.00317">
        <ele>106.6</ele>
        <time>2023-06-03T13:10:49Z</time>
      </trkpt>
      <trkpt lat="49.08219" lon="2.00306">
        <ele>106.7</ele>
        <time>2023-06-03T13:10:55Z</time>
      </trkpt>
      <trkpt lat="49.0822" lon="2.00294">
        <ele>106.5</ele>
        <time>2023-06-03T13:11:00Z</time>
      </trkpt>
      <trkpt lat="49.08227" lon="2.00277">
        <ele>106.6</ele>
        <time>2023-06-03T13:11:06Z</time>
      </trkpt>
      <trkpt lat="49.08234" lon="2.00263">
        <ele>107</ele>
        <time>2023-06-03T13:11:12Z</time>
      </trkpt>
      <trkpt lat="49.08237" lon="2.00252">
        <ele>107.5</ele>
        <time>2023-06-03T13:11:18Z</time>
      </trkpt>
      <trkpt lat="49.08239" lon="2.00241">
        <ele>107.8</ele>
        <time>2023-06-03T13:11:24Z</time>
      </trkpt>
      <trkpt lat="49.08239" lon="2.00227">
        <ele>108.1</ele>
        <time>2023-06-03T13:11:30Z</time>
      </trkpt>
      <trkpt lat="49.08241" lon="2.00216">
        <ele>108.4</ele>
        <time>2023-06-03T13:11:35Z</time>
      </trkpt>
      <trkpt lat="49.08245" lon="2.00204">
        <ele>108.4</ele>
        <time>2023-06-03T13:11:40Z</time>
      </trkpt>
      <trkpt lat="49.08247" lon="2.00189">
        <ele>108.3</ele>
        <time>2023-06-03T13:11:46Z</time>
      </trkpt>
      <trkpt lat="49.0825" lon="2.00179">
        <ele>108</ele>
        <time>2023-06-03T13:11:51Z</time>
      </trkpt>
      <trkpt lat="49.08248" lon="2.00168">
        <ele>107.8</ele>
        <time>2023-06-03T13:11:57Z</time>
      </trkpt>
      <trkpt lat="49.08249" lon="2.00158">
        <ele>107.7</ele>
        <time>2023-06-03T13:12:02Z</time>
      </trkpt>
      <trkpt lat="49.08253" lon="2.00146">
        <ele>107.8</ele>
        <time>2023-06-03T13:12:08Z</time>
      </trkpt>
      <trkpt lat="49.08256" lon="2.00131">
        <ele>107.8</ele>
        <time>2023-06-03T13:12:14Z</time>
      </trkpt>
      <trkpt lat="49.08257" lon="2.00121">
        <ele>107.2</ele>
        <time>2023-06-03T13:12:20Z</time>
      </trkpt>
      <trkpt lat="49.08258" lon="2.00115">
        <ele>106.8</ele>
        <time>2023-06-03T13:12:26Z</time>
      </trkpt>
      <trkpt lat="49.08257" lon="2.00113">
        <ele>106.6</ele>
        <time>2023-06-03T13:12:32Z</time>
      </trkpt>
      <trkpt lat="49.08258" lon="2.00113">
        <ele>106.4</ele>
        <time>2023-06-03T13:12:38Z</time>
      </trkpt>
      <trkpt lat="49.08258" lon="2.00112">
        <ele>106.4</ele>
        <time>2023-06-03T13:12:43Z</time>
      </trkpt>
      <trkpt lat="49.08262" lon="2.00104">
        <ele>106.4</ele>
        <time>2023-06-03T13:12:49Z</time>
      </trkpt>
      <trkpt lat="49.08262" lon="2.00096">
        <ele>106.3</ele>
        <time>2023-06-03T13:12:55Z</time>
      </trkpt>
      <trkpt lat="49.08262" lon="2.00095">
        <ele>106.3</ele>
        <time>2023-06-03T13:13:00Z</time>
      </trkpt>
      <trkpt lat="49.08264" lon="2.00099">
        <ele>106.1</ele>
        <time>2023-06-03T13:13:05Z</time>
      </trkpt>
      <trkpt lat="49.08263" lon="2.00107">
        <ele>105.9</ele>
        <time>2023-06-03T13:13:10Z</time>
      </trkpt>
      <trkpt lat="49.08265" lon="2.00117">
        <ele>105.3</ele>
        <time>2023-06-03T13:13:16Z</time>
      </trkpt>
      <trkpt lat="49.08269" lon="2.00108">
        <ele>104.8</ele>
        <time>2023-06-03T13:13:22Z</time>
      </trkpt>
      <trkpt lat="49.08271" lon="2.00098">
        <ele>104.7</ele>
        <time>2023-06-03T13:13:27Z</time>
      </trkpt>
      <trkpt lat="49.08279" lon="2.00087">
        <ele>104.7</ele>
        <time>2023-06-03T13:13:33Z</time>
      </trkpt>
      <trkpt lat="49.08286" lon="2.0008">
        <ele>104.5</ele>
        <time>2023-06-03T13:13:39Z</time>
      </trkpt>
      <trkpt lat="49.08292" lon="2.00076">
        <ele>104.5</ele>
        <time>2023-06-03T13:13:44Z</time>
      </trkpt>
      <trkpt lat="49.08297" lon="2.00071">
        <ele>104.6</ele>
        <time>2023-06-03T13:13:49Z</time>
      </trkpt>
      <trkpt lat="49.08303" lon="2.00064">
        <ele>104.9</ele>
        <time>2023-06-03T13:13:55Z</time>
      </trkpt>
      <trkpt lat="49.08307" lon="2.00063">
        <ele>105.3</ele>
        <time>2023-06-03T13:14:00Z</time>
      </trkpt>
      <trkpt lat="49.08314" lon="2.00058">
        <ele>105.4</ele>
        <time>2023-06-03T13:14:05Z</time>
      </trkpt>
      <trkpt lat="49.08322" lon="2.00054">
        <ele>105.3</ele>
        <time>2023-06-03T13:14:11Z</time>
      </trkpt>
      <trkpt lat="49.08329" lon="2.0005">
        <ele>105.4</ele>
        <time>2023-06-03T13:14:16Z</time>
      </trkpt>
      <trkpt lat="49.08335" lon="2.00043">
        <ele>105.8</ele>
        <time>2023-06-03T13:14:21Z</time>
      </trkpt>
      <trkpt lat="49.08341" lon="2.00041">
        <ele>106.2</ele>
        <time>2023-06-03T13:14:26Z</time>
      </trkpt>
      <trkpt lat="49.08351" lon="2.00041">
        <ele>106.7</ele>
        <time>2023-06-03T13:14:32Z</time>
      </trkpt>
      <trkpt lat="49.08361" lon="2.00038">
        <ele>107.4</ele>
        <time>2023-06-03T13:14:37Z</time>
      </trkpt>
      <trkpt lat="49.08368" lon="2.00035">
        <ele>107.9</ele>
        <time>2023-06-03T13:14:42Z</time>
      </trkpt>
      <trkpt lat="49.08375" lon="2.00032">
        <ele>108.4</ele>
        <time>2023-06-03T13:14:47Z</time>
      </trkpt>
      <trkpt lat="49.08382" lon="2.00029">
        <ele>109</ele>
        <time>2023-06-03T13:14:52Z</time>
      </trkpt>
      <trkpt lat="49.0839" lon="2.00026">
        <ele>109.7</ele>
        <time>2023-06-03T13:14:58Z</time>
      </trkpt>
      <trkpt lat="49.08397" lon="2.00023">
        <ele>110.4</ele>
        <time>2023-06-03T13:15:03Z</time>
      </trkpt>
      <trkpt lat="49.08404" lon="2.0002">
        <ele>111.3</ele>
        <time>2023-06-03T13:15:09Z</time>
      </trkpt>
      <trkpt lat="49.08408" lon="2.00015">
        <ele>112.3</ele>
        <time>2023-06-03T13:15:14Z</time>
      </trkpt>
      <trkpt lat="49.08416" lon="2.00014">
        <ele>113.2</ele>
        <time>2023-06-03T13:15:19Z</time>
      </trkpt>
      <trkpt lat="49.08424" lon="2.00011">
        <ele>114.1</ele>
        <time>2023-06-03T13:15:25Z</time>
      </trkpt>
      <trkpt lat="49.0843" lon="2.0001">
        <ele>114.8</ele>
        <time>2023-06-03T13:15:31Z</time>
      </trkpt>
      <trkpt lat="49.08442" lon="2.00013">
        <ele>115.2</ele>
        <time>2023-06-03T13:15:37Z</time>
      </trkpt>
      <trkpt lat="49.08453" lon="2.00014">
        <ele>115.4</ele>
        <time>2023-06-03T13:15:43Z</time>
      </trkpt>
      <trkpt lat="49.08463" lon="2.00016">
        <ele>115.6</ele>
        <time>2023-06-03T13:15:49Z</time>
      </trkpt>
      <trkpt lat="49.08471" lon="2.00015">
        <ele>115.9</ele>
        <time>2023-06-03T13:15:55Z</time>
      </trkpt>
      <trkpt lat="49.08479" lon="2.00017">
        <ele>116</ele>
        <time>2023-06-03T13:16:00Z</time>
      </trkpt>
      <trkpt lat="49.0849" lon="2.0002">
        <ele>116</ele>
        <time>2023-06-03T13:16:06Z</time>
      </trkpt>
      <trkpt lat="49.085" lon="2.00021">
        <ele>116.1</ele>
        <time>2023-06-03T13:16:12Z</time>
      </trkpt>
      <trkpt lat="49.08507" lon="2.00022">
        <ele>116.2</ele>
        <time>2023-06-03T13:16:17Z</time>
      </trkpt>
      <trkpt lat="49.08513" lon="2.00023">
        <ele>116.4</ele>
        <time>2023-06-03T13:16:23Z</time>
      </trkpt>
      <trkpt lat="49.08521" lon="2.00023">
        <ele>116.8</ele>
        <time>2023-06-03T13:16:28Z</time>
      </trkpt>
      <trkpt lat="49.08529" lon="2.00019">
        <ele>117.3</ele>
        <time>2023-06-03T13:16:34Z</time>
      </trkpt>
      <trkpt lat="49.08536" lon="2.00021">
        <ele>117.7</ele>
        <time>2023-06-03T13:16:40Z</time>
      </trkpt>
      <trkpt lat="49.08546" lon="2.00022">
        <ele>117.8</ele>
        <time>2023-06-03T13:16:45Z</time>
      </trkpt>
      <trkpt lat="49.08555" lon="2.00028">
        <ele>118</ele>
        <time>2023-06-03T13:16:51Z</time>
      </trkpt>
      <trkpt lat="49.08563" lon="2.0003">
        <ele>118.1</ele>
        <time>2023-06-03T13:16:57Z</time>
      </trkpt>
      <trkpt lat="49.0857" lon="2.00033">
        <ele>118.4</ele>
        <time>2023-06-03T13:17:02Z</time>
      </trkpt>
      <trkpt lat="49.08578" lon="2.00038">
        <ele>118.7</ele>
        <time>2023-06-03T13:17:08Z</time>
      </trkpt>
      <trkpt lat="49.08588" lon="2.00043">
        <ele>119.1</ele>
        <time>2023-06-03T13:17:14Z</time>
      </trkpt>
      <trkpt lat="49.08597" lon="2.00048">
        <ele>119.4</ele>
        <time>2023-06-03T13:17:19Z</time>
      </trkpt>
      <trkpt lat="49.08605" lon="2.00052">
        <ele>119.6</ele>
        <time>2023-06-03T13:17:25Z</time>
      </trkpt>
      <trkpt lat="49.08611" lon="2.00057">
        <ele>119.6</ele>
        <time>2023-06-03T13:17:30Z</time>
      </trkpt>
      <trkpt lat="49.08617" lon="2.00064">
        <ele>119.5</ele>
        <time>2023-06-03T13:17:36Z</time>
      </trkpt>
      <trkpt lat="49.08623" lon="2.00068">
        <ele>119.6</ele>
        <time>2023-06-03T13:17:41Z</time>
      </trkpt>
      <trkpt lat="49.08631" lon="2.00076">
        <ele>119.8</ele>
        <time>2023-06-03T13:17:46Z</time>
      </trkpt>
      <trkpt lat="49.08641" lon="2.00084">
        <ele>120.2</ele>
        <time>2023-06-03T13:17:52Z</time>
      </trkpt>
      <trkpt lat="49.08649" lon="2.00091">
        <ele>120.5</ele>
        <time>2023-06-03T13:17:58Z</time>
      </trkpt>
      <trkpt lat="49.08655" lon="2.00097">
        <ele>120.9</ele>
        <time>2023-06-03T13:18:04Z</time>
      </trkpt>
      <trkpt lat="49.08661" lon="2.00101">
        <ele>121.4</ele>
        <time>2023-06-03T13:18:09Z</time>
      </trkpt>
      <trkpt lat="49.08668" lon="2.00107">
        <ele>122</ele>
        <time>2023-06-03T13:18:15Z</time>
      </trkpt>
      <trkpt lat="49.08675" lon="2.00114">
        <ele>122.6</ele>
        <time>2023-06-03T13:18:20Z</time>
      </trkpt>
      <trkpt lat="49.08682" lon="2.00117">
        <ele>123</ele>
        <time>2023-06-03T13:18:25Z</time>
      </trkpt>
      <trkpt lat="49.08689" lon="2.00123">
        <ele>123.4</ele>
        <time>2023-06-03T13:18:31Z</time>
      </trkpt>
      <trkpt lat="49.08697" lon="2.00128">
        <ele>123.8</ele>
        <time>2023-06-03T13:18:37Z</time>
      </trkpt>
      <trkpt lat="49.08706" lon="2.00134">
        <ele>124.2</ele>
        <time>2023-06-03T13:18:42Z</time>
      </trkpt>
      <trkpt lat="49.08714" lon="2.0014">
        <ele>124.4</ele>
        <time>2023-06-03T13:18:47Z</time>
      </trkpt>
      <trkpt lat="49.08723" lon="2.00144">
        <ele>124.7</ele>
        <time>2023-06-03T13:18:53Z</time>
      </trkpt>
      <trkpt lat="49.08728" lon="2.00147">
        <ele>124.9</ele>
        <time>2023-06-03T13:18:58Z</time>
      </trkpt>
      <trkpt lat="49.08733" lon="2.00151">
        <ele>125.1</ele>
        <time>2023-06-03T13:19:03Z</time>
      </trkpt>
      <trkpt lat="49.08741" lon="2.00154">
        <ele>125.2</ele>
        <time>2023-06-03T13:19:09Z</time>
      </trkpt>
      <trkpt lat="49.0875" lon="2.00159">
        <ele>125.3</ele>
        <time>2023-06-03T13:19:15Z</time>
      </trkpt>
      <trkpt lat="49.08761" lon="2.00164">
        <ele>125.6</ele>
        <time>2023-06-03T13:19:21Z</time>
      </trkpt>
      <trkpt lat="49.08771" lon="2.00166">
        <ele>125.9</ele>
        <time>2023-06-03T13:19:26Z</time>
      </trkpt>
      <trkpt lat="49.08777" lon="2.0017">
        <ele>126.2</ele>
        <time>2023-06-03T13:19:32Z</time>
      </trkpt>
      <trkpt lat="49.08786" lon="2.00172">
        <ele>126.4</ele>
        <time>2023-06-03T13:19:38Z</time>
      </trkpt>
      <trkpt lat="49.08792" lon="2.00176">
        <ele>126.4</ele>
        <time>2023-06-03T13:19:43Z</time>
      </trkpt>
      <trkpt lat="49.088" lon="2.0018">
        <ele>126.4</ele>
        <time>2023-06-03T13:19:49Z</time>
      </trkpt>
      <trkpt lat="49.08808" lon="2.00185">
        <ele>126.5</ele>
        <time>2023-06-03T13:19:55Z</time>
      </trkpt>
      <trkpt lat="49.08817" lon="2.00193">
        <ele>126.8</ele>
        <time>2023-06-03T13:20:01Z</time>
      </trkpt>
      <trkpt lat="49.08822" lon="2.00195">
        <ele>127</ele>
        <time>2023-06-03T13:20:07Z</time>
      </trkpt>
      <trkpt lat="49.0883" lon="2.002">
        <ele>127.4</ele>
        <time>2023-06-03T13:20:13Z</time>
      </trkpt>
      <trkpt lat="49.08839" lon="2.00202">
        <ele>127.9</ele>
        <time>2023-06-03T13:20:19Z</time>
      </trkpt>
      <trkpt lat="49.08845" lon="2.00203">
        <ele>128.5</ele>
        <time>2023-06-03T13:20:24Z</time>
      </trkpt>
      <trkpt lat="49.08857" lon="2.00207">
        <ele>129.2</ele>
        <time>2023-06-03T13:20:30Z</time>
      </trkpt>
      <trkpt lat="49.08867" lon="2.00211">
        <ele>129.8</ele>
        <time>2023-06-03T13:20:35Z</time>
      </trkpt>
      <trkpt lat="49.08875" lon="2.00214">
        <ele>130.5</ele>
        <time>2023-06-03T13:20:41Z</time>
      </trkpt>
      <trkpt lat="49.08882" lon="2.00215">
        <ele>131</ele>
        <time>2023-06-03T13:20:46Z</time>
      </trkpt>
      <trkpt lat="49.0889" lon="2.00221">
        <ele>131.8</ele>
        <time>2023-06-03T13:20:52Z</time>
      </trkpt>
      <trkpt lat="49.08896" lon="2.00223">
        <ele>132.5</ele>
        <time>2023-06-03T13:20:57Z</time>
      </trkpt>
      <trkpt lat="49.08904" lon="2.00222">
        <ele>133.4</ele>
        <time>2023-06-03T13:21:03Z</time>
      </trkpt>
      <trkpt lat="49.08904" lon="2.00227">
        <ele>133.9</ele>
        <time>2023-06-03T13:21:09Z</time>
      </trkpt>
      <trkpt lat="49.08899" lon="2.00231">
        <ele>134.1</ele>
        <time>2023-06-03T13:21:15Z</time>
      </trkpt>
      <trkpt lat="49.08895" lon="2.00235">
        <ele>134.2</ele>
        <time>2023-06-03T13:21:20Z</time>
      </trkpt>
      <trkpt lat="49.0889" lon="2.00239">
        <ele>134.1</ele>
        <time>2023-06-03T13:21:25Z</time>
      </trkpt>
      <trkpt lat="49.08883" lon="2.00244">
        <ele>133.9</ele>
        <time>2023-06-03T13:21:31Z</time>
      </trkpt>
      <trkpt lat="49.08875" lon="2.00249">
        <ele>133.5</ele>
        <time>2023-06-03T13:21:36Z</time>
      </trkpt>
      <trkpt lat="49.08867" lon="2.00254">
        <ele>133.1</ele>
        <time>2023-06-03T13:21:42Z</time>
      </trkpt>
      <trkpt lat="49.08858" lon="2.00259">
        <ele>132.7</ele>
        <time>2023-06-03T13:21:48Z</time>
      </trkpt>
      <trkpt lat="49.08849" lon="2.00264">
        <ele>132.4</ele>
        <time>2023-06-03T13:21:54Z</time>
      </trkpt>
      <trkpt lat="49.08836" lon="2.0027">
        <ele>132.3</ele>
        <time>2023-06-03T13:22:00Z</time>
      </trkpt>
      <trkpt lat="49.08826" lon="2.00273">
        <ele>132.5</ele>
        <time>2023-06-03T13:22:06Z</time>
      </trkpt>
      <trkpt lat="49.08817" lon="2.00277">
        <ele>132.8</ele>
        <time>2023-06-03T13:22:12Z</time>
      </trkpt>
      <trkpt lat="49.08808" lon="2.00282">
        <ele>132.8</ele>
        <time>2023-06-03T13:22:17Z</time>
      </trkpt>
      <trkpt lat="49.08799" lon="2.00287">
        <ele>133.2</ele>
        <time>2023-06-03T13:22:23Z</time>
      </trkpt>
      <trkpt lat="49.08792" lon="2.00291">
        <ele>133.6</ele>
        <time>2023-06-03T13:22:28Z</time>
      </trkpt>
      <trkpt lat="49.08787" lon="2.00294">
        <ele>133.9</ele>
        <time>2023-06-03T13:22:34Z</time>
      </trkpt>
      <trkpt lat="49.08779" lon="2.00299">
        <ele>134.5</ele>
        <time>2023-06-03T13:22:40Z</time>
      </trkpt>
      <trkpt lat="49.08769" lon="2.00302">
        <ele>135</ele>
        <time>2023-06-03T13:22:46Z</time>
      </trkpt>
      <trkpt lat="49.08758" lon="2.00304">
        <ele>135.5</ele>
        <time>2023-06-03T13:22:52Z</time>
      </trkpt>
      <trkpt lat="49.08748" lon="2.00308">
        <ele>135.8</ele>
        <time>2023-06-03T13:22:58Z</time>
      </trkpt>
      <trkpt lat="49.08739" lon="2.00315">
        <ele>135.7</ele>
        <time>2023-06-03T13:23:04Z</time>
      </trkpt>
      <trkpt lat="49.0873" lon="2.00319">
        <ele>135.4</ele>
        <time>2023-06-03T13:23:09Z</time>
      </trkpt>
      <trkpt lat="49.08722" lon="2.00322">
        <ele>135.1</ele>
        <time>2023-06-03T13:23:14Z</time>
      </trkpt>
      <trkpt lat="49.08714" lon="2.00325">
        <ele>134.7</ele>
        <time>2023-06-03T13:23:19Z</time>
      </trkpt>
      <trkpt lat="49.08703" lon="2.00328">
        <ele>134.3</ele>
        <time>2023-06-03T13:23:25Z</time>
      </trkpt>
      <trkpt lat="49.08692" lon="2.00332">
        <ele>134</ele>
        <time>2023-06-03T13:23:31Z</time>
      </trkpt>
      <trkpt lat="49.08685" lon="2.00336">
        <ele>133.7</ele>
        <time>2023-06-03T13:23:37Z</time>
      </trkpt>
      <trkpt lat="49.08677" lon="2.0034">
        <ele>133.3</ele>
        <time>2023-06-03T13:23:43Z</time>
      </trkpt>
      <trkpt lat="49.08672" lon="2.00343">
        <ele>133</ele>
        <time>2023-06-03T13:23:48Z</time>
      </trkpt>
      <trkpt lat="49.08663" lon="2.00347">
        <ele>132.5</ele>
        <time>2023-06-03T13:23:54Z</time>
      </trkpt>
      <trkpt lat="49.08655" lon="2.0035">
        <ele>132.2</ele>
        <time>2023-06-03T13:23:59Z</time>
      </trkpt>
      <trkpt lat="49.08647" lon="2.00355">
        <ele>131.8</ele>
        <time>2023-06-03T13:24:05Z</time>
      </trkpt>
      <trkpt lat="49.08637" lon="2.00357">
        <ele>131.6</ele>
        <time>2023-06-03T13:24:11Z</time>
      </trkpt>
      <trkpt lat="49.0863" lon="2.0036">
        <ele>131.3</ele>
        <time>2023-06-03T13:24:16Z</time>
      </trkpt>
      <trkpt lat="49.08622" lon="2.00363">
        <ele>130.9</ele>
        <time>2023-06-03T13:24:22Z</time>
      </trkpt>
      <trkpt lat="49.08614" lon="2.00369">
        <ele>130.7</ele>
        <time>2023-06-03T13:24:27Z</time>
      </trkpt>
      <trkpt lat="49.08606" lon="2.00372">
        <ele>130.7</ele>
        <time>2023-06-03T13:24:32Z</time>
      </trkpt>
      <trkpt lat="49.08599" lon="2.00378">
        <ele>131.2</ele>
        <time>2023-06-03T13:24:38Z</time>
      </trkpt>
      <trkpt lat="49.0859" lon="2.00385">
        <ele>131.7</ele>
        <time>2023-06-03T13:24:44Z</time>
      </trkpt>
      <trkpt lat="49.08583" lon="2.00391">
        <ele>132.1</ele>
        <time>2023-06-03T13:24:50Z</time>
      </trkpt>
      <trkpt lat="49.08577" lon="2.00398">
        <ele>132.7</ele>
        <time>2023-06-03T13:24:55Z</time>
      </trkpt>
      <trkpt lat="49.08573" lon="2.00409">
        <ele>133</ele>
        <time>2023-06-03T13:25:00Z</time>
      </trkpt>
      <trkpt lat="49.08567" lon="2.0042">
        <ele>133.1</ele>
        <time>2023-06-03T13:25:06Z</time>
      </trkpt>
      <trkpt lat="49.08563" lon="2.00431">
        <ele>133.2</ele>
        <time>2023-06-03T13:25:11Z</time>
      </trkpt>
      <trkpt lat="49.08558" lon="2.00442">
        <ele>133.1</ele>
        <time>2023-06-03T13:25:17Z</time>
      </trkpt>
      <trkpt lat="49.08552" lon="2.0045">
        <ele>132.7</ele>
        <time>2023-06-03T13:25:23Z</time>
      </trkpt>
      <trkpt lat="49.08549" lon="2.0046">
        <ele>132.2</ele>
        <time>2023-06-03T13:25:28Z</time>
      </trkpt>
      <trkpt lat="49.08545" lon="2.0047">
        <ele>131.7</ele>
        <time>2023-06-03T13:25:33Z</time>
      </trkpt>
      <trkpt lat="49.08541" lon="2.00486">
        <ele>131.4</ele>
        <time>2023-06-03T13:25:39Z</time>
      </trkpt>
      <trkpt lat="49.08535" lon="2.00494">
        <ele>131</ele>
        <time>2023-06-03T13:25:44Z</time>
      </trkpt>
      <trkpt lat="49.08531" lon="2.00502">
        <ele>130.6</ele>
        <time>2023-06-03T13:25:49Z</time>
      </trkpt>
      <trkpt lat="49.08529" lon="2.00514">
        <ele>130.1</ele>
        <time>2023-06-03T13:25:55Z</time>
      </trkpt>
      <trkpt lat="49.08524" lon="2.00522">
        <ele>129.6</ele>
        <time>2023-06-03T13:26:00Z</time>
      </trkpt>
      <trkpt lat="49.08516" lon="2.0053">
        <ele>129</ele>
        <time>2023-06-03T13:26:06Z</time>
      </trkpt>
      <trkpt lat="49.0851" lon="2.00538">
        <ele>128.9</ele>
        <time>2023-06-03T13:26:11Z</time>
      </trkpt>
      <trkpt lat="49.08504" lon="2.00548">
        <ele>128.8</ele>
        <time>2023-06-03T13:26:16Z</time>
      </trkpt>
      <trkpt lat="49.08497" lon="2.00556">
        <ele>128.7</ele>
        <time>2023-06-03T13:26:22Z</time>
      </trkpt>
      <trkpt lat="49.08491" lon="2.00565">
        <ele>128.6</ele>
        <time>2023-06-03T13:26:27Z</time>
      </trkpt>
      <trkpt lat="49.08485" lon="2.00574">
        <ele>128.3</ele>
        <time>2023-06-03T13:26:33Z</time>
      </trkpt>
      <trkpt lat="49.08479" lon="2.00582">
        <ele>127.9</ele>
        <time>2023-06-03T13:26:38Z</time>
      </trkpt>
      <trkpt lat="49.08474" lon="2.0058">
        <ele>127.4</ele>
        <time>2023-06-03T13:26:44Z</time>
      </trkpt>
      <trkpt lat="49.08468" lon="2.00574">
        <ele>126.9</ele>
        <time>2023-06-03T13:26:50Z</time>
      </trkpt>
      <trkpt lat="49.08459" lon="2.00575">
        <ele>126.6</ele>
        <time>2023-06-03T13:26:55Z</time>
      </trkpt>
      <trkpt lat="49.08451" lon="2.00577">
        <ele>126.3</ele>
        <time>2023-06-03T13:27:00Z</time>
      </trkpt>
      <trkpt lat="49.08443" lon="2.00583">
        <ele>126.1</ele>
        <time>2023-06-03T13:27:06Z</time>
      </trkpt>
      <trkpt lat="49.08438" lon="2.00595">
        <ele>125.8</ele>
        <time>2023-06-03T13:27:11Z</time>
      </trkpt>
      <trkpt lat="49.08433" lon="2.00605">
        <ele>125.1</ele>
        <time>2023-06-03T13:27:17Z</time>
      </trkpt>
      <trkpt lat="49.08431" lon="2.00618">
        <ele>124.4</ele>
        <time>2023-06-03T13:27:23Z</time>
      </trkpt>
      <trkpt lat="49.08429" lon="2.00629">
        <ele>123.9</ele>
        <time>2023-06-03T13:27:28Z</time>
      </trkpt>
      <trkpt lat="49.08427" lon="2.00639">
        <ele>123.5</ele>
        <time>2023-06-03T13:27:33Z</time>
      </trkpt>
      <trkpt lat="49.08425" lon="2.00653">
        <ele>123.1</ele>
        <time>2023-06-03T13:27:39Z</time>
      </trkpt>
      <trkpt lat="49.08423" lon="2.00662">
        <ele>123</ele>
        <time>2023-06-03T13:27:44Z</time>
      </trkpt>
      <trkpt lat="49.08417" lon="2.00663">
        <ele>122.9</ele>
        <time>2023-06-03T13:27:50Z</time>
      </trkpt>
      <trkpt lat="49.08409" lon="2.00659">
        <ele>122.7</ele>
        <time>2023-06-03T13:27:55Z</time>
      </trkpt>
      <trkpt lat="49.08401" lon="2.00656">
        <ele>122.2</ele>
        <time>2023-06-03T13:28:00Z</time>
      </trkpt>
      <trkpt lat="49.08395" lon="2.00653">
        <ele>121.6</ele>
        <time>2023-06-03T13:28:06Z</time>
      </trkpt>
      <trkpt lat="49.0839" lon="2.00647">
        <ele>121.1</ele>
        <time>2023-06-03T13:28:12Z</time>
      </trkpt>
      <trkpt lat="49.08383" lon="2.00643">
        <ele>121</ele>
        <time>2023-06-03T13:28:17Z</time>
      </trkpt>
      <trkpt lat="49.08379" lon="2.00642">
        <ele>120.8</ele>
        <time>2023-06-03T13:28:23Z</time>
      </trkpt>
      <trkpt lat="49.08379" lon="2.00645">
        <ele>120.4</ele>
        <time>2023-06-03T13:28:28Z</time>
      </trkpt>
      <trkpt lat="49.08377" lon="2.00654">
        <ele>119.4</ele>
        <time>2023-06-03T13:28:34Z</time>
      </trkpt>
      <trkpt lat="49.08379" lon="2.00663">
        <ele>118.6</ele>
        <time>2023-06-03T13:28:39Z</time>
      </trkpt>
      <trkpt lat="49.08384" lon="2.0067">
        <ele>117.7</ele>
        <time>2023-06-03T13:28:45Z</time>
      </trkpt>
      <trkpt lat="49.0839" lon="2.00675">
        <ele>117.4</ele>
        <time>2023-06-03T13:28:50Z</time>
      </trkpt>
      <trkpt lat="49.08399" lon="2.00682">
        <ele>117.1</ele>
        <time>2023-06-03T13:28:56Z</time>
      </trkpt>
      <trkpt lat="49.0841" lon="2.00691">
        <ele>117</ele>
        <time>2023-06-03T13:29:01Z</time>
      </trkpt>
      <trkpt lat="49.0842" lon="2.00701">
        <ele>117.2</ele>
        <time>2023-06-03T13:29:07Z</time>
      </trkpt>
      <trkpt lat="49.08426" lon="2.00709">
        <ele>117.6</ele>
        <time>2023-06-03T13:29:13Z</time>
      </trkpt>
      <trkpt lat="49.08434" lon="2.00715">
        <ele>118</ele>
        <time>2023-06-03T13:29:19Z</time>
      </trkpt>
      <trkpt lat="49.08443" lon="2.00725">
        <ele>118.5</ele>
        <time>2023-06-03T13:29:25Z</time>
      </trkpt>
      <trkpt lat="49.0845" lon="2.0073">
        <ele>118.9</ele>
        <time>2023-06-03T13:29:30Z</time>
      </trkpt>
      <trkpt lat="49.08455" lon="2.00735">
        <ele>119.3</ele>
        <time>2023-06-03T13:29:36Z</time>
      </trkpt>
      <trkpt lat="49.08462" lon="2.0074">
        <ele>119.7</ele>
        <time>2023-06-03T13:29:42Z</time>
      </trkpt>
      <trkpt lat="49.08467" lon="2.00748">
        <ele>120</ele>
        <time>2023-06-03T13:29:47Z</time>
      </trkpt>
      <trkpt lat="49.08474" lon="2.00754">
        <ele>120.1</ele>
        <time>2023-06-03T13:29:52Z</time>
      </trkpt>
      <trkpt lat="49.0848" lon="2.00757">
        <ele>120.1</ele>
        <time>2023-06-03T13:29:57Z</time>
      </trkpt>
      <trkpt lat="49.08487" lon="2.00762">
        <ele>120.1</ele>
        <time>2023-06-03T13:30:03Z</time>
      </trkpt>
      <trkpt lat="49.08493" lon="2.00769">
        <ele>119.9</ele>
        <time>2023-06-03T13:30:08Z</time>
      </trkpt>
      <trkpt lat="49.08501" lon="2.00775">
        <ele>119.9</ele>
        <time>2023-06-03T13:30:13Z</time>
      </trkpt>
      <trkpt lat="49.08509" lon="2.00782">
        <ele>120</ele>
        <time>2023-06-03T13:30:19Z</time>
      </trkpt>
      <trkpt lat="49.08516" lon="2.00789">
        <ele>120.2</ele>
        <time>2023-06-03T13:30:25Z</time>
      </trkpt>
      <trkpt lat="49.08523" lon="2.00795">
        <ele>120.4</ele>
        <time>2023-06-03T13:30:31Z</time>
      </trkpt>
      <trkpt lat="49.08529" lon="2.00801">
        <ele>120.5</ele>
        <time>2023-06-03T13:30:36Z</time>
      </trkpt>
      <trkpt lat="49.08536" lon="2.00808">
        <ele>120.6</ele>
        <time>2023-06-03T13:30:41Z</time>
      </trkpt>
      <trkpt lat="49.08544" lon="2.00816">
        <ele>120.7</ele>
        <time>2023-06-03T13:30:47Z</time>
      </trkpt>
      <trkpt lat="49.0855" lon="2.00822">
        <ele>120.9</ele>
        <time>2023-06-03T13:30:53Z</time>
      </trkpt>
      <trkpt lat="49.08557" lon="2.0083">
        <ele>121.1</ele>
        <time>2023-06-03T13:30:59Z</time>
      </trkpt>
      <trkpt lat="49.08563" lon="2.00835">
        <ele>121.1</ele>
        <time>2023-06-03T13:31:04Z</time>
      </trkpt>
      <trkpt lat="49.08567" lon="2.00842">
        <ele>120.9</ele>
        <time>2023-06-03T13:31:10Z</time>
      </trkpt>
      <trkpt lat="49.08573" lon="2.00851">
        <ele>120.8</ele>
        <time>2023-06-03T13:31:16Z</time>
      </trkpt>
      <trkpt lat="49.0858" lon="2.00859">
        <ele>120.8</ele>
        <time>2023-06-03T13:31:21Z</time>
      </trkpt>
      <trkpt lat="49.08587" lon="2.0087">
        <ele>120.8</ele>
        <time>2023-06-03T13:31:27Z</time>
      </trkpt>
      <trkpt lat="49.08592" lon="2.00878">
        <ele>120.7</ele>
        <time>2023-06-03T13:31:32Z</time>
      </trkpt>
      <trkpt lat="49.08598" lon="2.00885">
        <ele>120.4</ele>
        <time>2023-06-03T13:31:38Z</time>
      </trkpt>
      <trkpt lat="49.08602" lon="2.00895">
        <ele>120.3</ele>
        <time>2023-06-03T13:31:43Z</time>
      </trkpt>
      <trkpt lat="49.08609" lon="2.00906">
        <ele>120.4</ele>
        <time>2023-06-03T13:31:49Z</time>
      </trkpt>
      <trkpt lat="49.08615" lon="2.00914">
        <ele>120.3</ele>
        <time>2023-06-03T13:31:54Z</time>
      </trkpt>
      <trkpt lat="49.0862" lon="2.00923">
        <ele>120.1</ele>
        <time>2023-06-03T13:31:59Z</time>
      </trkpt>
      <trkpt lat="49.08626" lon="2.00931">
        <ele>119.8</ele>
        <time>2023-06-03T13:32:05Z</time>
      </trkpt>
      <trkpt lat="49.08631" lon="2.00942">
        <ele>119.4</ele>
        <time>2023-06-03T13:32:11Z</time>
      </trkpt>
      <trkpt lat="49.08634" lon="2.0095">
        <ele>118.7</ele>
        <time>2023-06-03T13:32:16Z</time>
      </trkpt>
      <trkpt lat="49.08639" lon="2.00957">
        <ele>117.8</ele>
        <time>2023-06-03T13:32:22Z</time>
      </trkpt>
      <trkpt lat="49.08643" lon="2.00968">
        <ele>117.1</ele>
        <time>2023-06-03T13:32:28Z</time>
      </trkpt>
      <trkpt lat="49.0865" lon="2.0098">
        <ele>116.8</ele>
        <time>2023-06-03T13:32:33Z</time>
      </trkpt>
      <trkpt lat="49.08656" lon="2.00991">
        <ele>116.7</ele>
        <time>2023-06-03T13:32:38Z</time>
      </trkpt>
      <trkpt lat="49.08661" lon="2.01003">
        <ele>116.9</ele>
        <time>2023-06-03T13:32:44Z</time>
      </trkpt>
      <trkpt lat="49.08668" lon="2.01013">
        <ele>117</ele>
        <time>2023-06-03T13:32:50Z</time>
      </trkpt>
      <trkpt lat="49.08673" lon="2.01021">
        <ele>117</ele>
        <time>2023-06-03T13:32:56Z</time>
      </trkpt>
      <trkpt lat="49.08677" lon="2.01029">
        <ele>116.7</ele>
        <time>2023-06-03T13:33:01Z</time>
      </trkpt>
      <trkpt lat="49.08679" lon="2.01036">
        <ele>116.2</ele>
        <time>2023-06-03T13:33:06Z</time>
      </trkpt>
      <trkpt lat="49.0868" lon="2.01045">
        <ele>115.7</ele>
        <time>2023-06-03T13:33:11Z</time>
      </trkpt>
      <trkpt lat="49.08679" lon="2.01057">
        <ele>115.2</ele>
        <time>2023-06-03T13:33:16Z</time>
      </trkpt>
      <trkpt lat="49.08676" lon="2.01065">
        <ele>114.5</ele>
        <time>2023-06-03T13:33:22Z</time>
      </trkpt>
      <trkpt lat="49.08671" lon="2.01071">
        <ele>113.8</ele>
        <time>2023-06-03T13:33:27Z</time>
      </trkpt>
      <trkpt lat="49.08671" lon="2.01085">
        <ele>113</ele>
        <time>2023-06-03T13:33:33Z</time>
      </trkpt>
      <trkpt lat="49.08679" lon="2.01093">
        <ele>112.7</ele>
        <time>2023-06-03T13:33:38Z</time>
      </trkpt>
      <trkpt lat="49.08688" lon="2.01101">
        <ele>112.5</ele>
        <time>2023-06-03T13:33:44Z</time>
      </trkpt>
      <trkpt lat="49.08695" lon="2.01108">
        <ele>112.3</ele>
        <time>2023-06-03T13:33:49Z</time>
      </trkpt>
      <trkpt lat="49.08701" lon="2.01112">
        <ele>112</ele>
        <time>2023-06-03T13:33:55Z</time>
      </trkpt>
      <trkpt lat="49.08706" lon="2.01118">
        <ele>111.5</ele>
        <time>2023-06-03T13:34:01Z</time>
      </trkpt>
      <trkpt lat="49.08714" lon="2.01123">
        <ele>111.1</ele>
        <time>2023-06-03T13:34:07Z</time>
      </trkpt>
      <trkpt lat="49.08721" lon="2.01132">
        <ele>110.9</ele>
        <time>2023-06-03T13:34:13Z</time>
      </trkpt>
      <trkpt lat="49.08727" lon="2.01138">
        <ele>110.9</ele>
        <time>2023-06-03T13:34:18Z</time>
      </trkpt>
      <trkpt lat="49.08736" lon="2.01145">
        <ele>110.9</ele>
        <time>2023-06-03T13:34:24Z</time>
      </trkpt>
      <trkpt lat="49.08744" lon="2.01151">
        <ele>111.3</ele>
        <time>2023-06-03T13:34:29Z</time>
      </trkpt>
      <trkpt lat="49.08754" lon="2.01161">
        <ele>111.9</ele>
        <time>2023-06-03T13:34:35Z</time>
      </trkpt>
      <trkpt lat="49.08762" lon="2.01167">
        <ele>112.5</ele>
        <time>2023-06-03T13:34:41Z</time>
      </trkpt>
      <trkpt lat="49.08769" lon="2.0117">
        <ele>112.8</ele>
        <time>2023-06-03T13:34:47Z</time>
      </trkpt>
      <trkpt lat="49.08776" lon="2.01175">
        <ele>112.9</ele>
        <time>2023-06-03T13:34:52Z</time>
      </trkpt>
      <trkpt lat="49.08782" lon="2.01184">
        <ele>112.9</ele>
        <time>2023-06-03T13:34:58Z</time>
      </trkpt>
      <trkpt lat="49.08787" lon="2.0119">
        <ele>112.9</ele>
        <time>2023-06-03T13:35:03Z</time>
      </trkpt>
      <trkpt lat="49.08795" lon="2.01195">
        <ele>112.9</ele>
        <time>2023-06-03T13:35:08Z</time>
      </trkpt>
      <trkpt lat="49.08802" lon="2.01201">
        <ele>113.1</ele>
        <time>2023-06-03T13:35:14Z</time>
      </trkpt>
      <trkpt lat="49.08806" lon="2.01204">
        <ele>113.3</ele>
        <time>2023-06-03T13:35:19Z</time>
      </trkpt>
      <trkpt lat="49.08817" lon="2.01214">
        <ele>113.7</ele>
        <time>2023-06-03T13:35:25Z</time>
      </trkpt>
      <trkpt lat="49.08824" lon="2.0122">
        <ele>114.1</ele>
        <time>2023-06-03T13:35:31Z</time>
      </trkpt>
      <trkpt lat="49.08828" lon="2.01224">
        <ele>114.4</ele>
        <time>2023-06-03T13:35:36Z</time>
      </trkpt>
      <trkpt lat="49.08837" lon="2.01231">
        <ele>114.5</ele>
        <time>2023-06-03T13:35:41Z</time>
      </trkpt>
      <trkpt lat="49.08843" lon="2.01239">
        <ele>114.9</ele>
        <time>2023-06-03T13:35:47Z</time>
      </trkpt>
      <trkpt lat="49.0885" lon="2.01245">
        <ele>115.4</ele>
        <time>2023-06-03T13:35:53Z</time>
      </trkpt>
      <trkpt lat="49.08857" lon="2.01252">
        <ele>115.7</ele>
        <time>2023-06-03T13:35:58Z</time>
      </trkpt>
      <trkpt lat="49.08864" lon="2.01257">
        <ele>116</ele>
        <time>2023-06-03T13:36:04Z</time>
      </trkpt>
      <trkpt lat="49.08872" lon="2.01266">
        <ele>116.2</ele>
        <time>2023-06-03T13:36:09Z</time>
      </trkpt>
      <trkpt lat="49.08879" lon="2.01274">
        <ele>116.6</ele>
        <time>2023-06-03T13:36:15Z</time>
      </trkpt>
      <trkpt lat="49.08887" lon="2.01282">
        <ele>117</ele>
        <time>2023-06-03T13:36:21Z</time>
      </trkpt>
      <trkpt lat="49.08895" lon="2.01288">
        <ele>117.3</ele>
        <time>2023-06-03T13:36:26Z</time>
      </trkpt>
      <trkpt lat="49.08902" lon="2.01293">
        <ele>117.7</ele>
        <time>2023-06-03T13:36:31Z</time>
      </trkpt>
      <trkpt lat="49.08907" lon="2.01299">
        <ele>118.2</ele>
        <time>2023-06-03T13:36:36Z</time>
      </trkpt>
      <trkpt lat="49.08913" lon="2.01304">
        <ele>118.5</ele>
        <time>2023-06-03T13:36:42Z</time>
      </trkpt>
      <trkpt lat="49.08919" lon="2.01313">
        <ele>118.4</ele>
        <time>2023-06-03T13:36:48Z</time>
      </trkpt>
      <trkpt lat="49.08926" lon="2.01322">
        <ele>118.4</ele>
        <time>2023-06-03T13:36:53Z</time>
      </trkpt>
      <trkpt lat="49.08933" lon="2.01327">
        <ele>118.5</ele>
        <time>2023-06-03T13:36:59Z</time>
      </trkpt>
      <trkpt lat="49.08939" lon="2.01338">
        <ele>118.3</ele>
        <time>2023-06-03T13:37:05Z</time>
      </trkpt>
      <trkpt lat="49.08946" lon="2.01346">
        <ele>118.2</ele>
        <time>2023-06-03T13:37:11Z</time>
      </trkpt>
      <trkpt lat="49.08952" lon="2.01358">
        <ele>117.9</ele>
        <time>2023-06-03T13:37:17Z</time>
      </trkpt>
      <trkpt lat="49.08958" lon="2.01365">
        <ele>117.6</ele>
        <time>2023-06-03T13:37:23Z</time>
      </trkpt>
      <trkpt lat="49.08963" lon="2.01372">
        <ele>117.3</ele>
        <time>2023-06-03T13:37:28Z</time>
      </trkpt>
      <trkpt lat="49.08968" lon="2.01384">
        <ele>117.1</ele>
        <time>2023-06-03T13:37:34Z</time>
      </trkpt>
      <trkpt lat="49.08974" lon="2.01395">
        <ele>117.1</ele>
        <time>2023-06-03T13:37:40Z</time>
      </trkpt>
      <trkpt lat="49.08982" lon="2.01404">
        <ele>117.3</ele>
        <time>2023-06-03T13:37:45Z</time>
      </trkpt>
      <trkpt lat="49.0899" lon="2.01416">
        <ele>117.5</ele>
        <time>2023-06-03T13:37:51Z</time>
      </trkpt>
      <trkpt lat="49.08997" lon="2.01425">
        <ele>117.6</ele>
        <time>2023-06-03T13:37:57Z</time>
      </trkpt>
      <trkpt lat="49.09003" lon="2.01431">
        <ele>117.8</ele>
        <time>2023-06-03T13:38:02Z</time>
      </trkpt>
      <trkpt lat="49.0901" lon="2.01438">
        <ele>117.9</ele>
        <time>2023-06-03T13:38:08Z</time>
      </trkpt>
      <trkpt lat="49.09015" lon="2.01447">
        <ele>118.1</ele>
        <time>2023-06-03T13:38:14Z</time>
      </trkpt>
      <trkpt lat="49.09022" lon="2.01455">
        <ele>118.2</ele>
        <time>2023-06-03T13:38:19Z</time>
      </trkpt>
      <trkpt lat="49.09029" lon="2.01463">
        <ele>118.5</ele>
        <time>2023-06-03T13:38:25Z</time>
      </trkpt>
      <trkpt lat="49.09034" lon="2.01469">
        <ele>118.6</ele>
        <time>2023-06-03T13:38:30Z</time>
      </trkpt>
      <trkpt lat="49.09039" lon="2.01476">
        <ele>118.6</ele>
        <time>2023-06-03T13:38:36Z</time>
      </trkpt>
      <trkpt lat="49.09046" lon="2.01483">
        <ele>118.7</ele>
        <time>2023-06-03T13:38:41Z</time>
      </trkpt>
      <trkpt lat="49.09054" lon="2.01491">
        <ele>119</ele>
        <time>2023-06-03T13:38:47Z</time>
      </trkpt>
      <trkpt lat="49.09062" lon="2.01498">
        <ele>119.4</ele>
        <time>2023-06-03T13:38:53Z</time>
      </trkpt>
      <trkpt lat="49.09069" lon="2.01502">
        <ele>119.5</ele>
        <time>2023-06-03T13:38:58Z</time>
      </trkpt>
      <trkpt lat="49.09076" lon="2.01508">
        <ele>119.7</ele>
        <time>2023-06-03T13:39:03Z</time>
      </trkpt>
      <trkpt lat="49.09084" lon="2.01513">
        <ele>120</ele>
        <time>2023-06-03T13:39:09Z</time>
      </trkpt>
      <trkpt lat="49.09089" lon="2.01516">
        <ele>120.4</ele>
        <time>2023-06-03T13:39:14Z</time>
      </trkpt>
      <trkpt lat="49.09098" lon="2.01524">
        <ele>120.7</ele>
        <time>2023-06-03T13:39:20Z</time>
      </trkpt>
      <trkpt lat="49.09107" lon="2.01531">
        <ele>120.9</ele>
        <time>2023-06-03T13:39:26Z</time>
      </trkpt>
      <trkpt lat="49.09117" lon="2.01539">
        <ele>120.8</ele>
        <time>2023-06-03T13:39:32Z</time>
      </trkpt>
      <trkpt lat="49.09124" lon="2.01543">
        <ele>120.7</ele>
        <time>2023-06-03T13:39:37Z</time>
      </trkpt>
      <trkpt lat="49.09131" lon="2.01548">
        <ele>120.7</ele>
        <time>2023-06-03T13:39:43Z</time>
      </trkpt>
      <trkpt lat="49.09139" lon="2.0155">
        <ele>120.6</ele>
        <time>2023-06-03T13:39:49Z</time>
      </trkpt>
      <trkpt lat="49.09144" lon="2.01551">
        <ele>120.3</ele>
        <time>2023-06-03T13:39:54Z</time>
      </trkpt>
      <trkpt lat="49.09152" lon="2.0155">
        <ele>119.9</ele>
        <time>2023-06-03T13:40:00Z</time>
      </trkpt>
      <trkpt lat="49.09161" lon="2.01552">
        <ele>119.8</ele>
        <time>2023-06-03T13:40:06Z</time>
      </trkpt>
      <trkpt lat="49.09171" lon="2.01554">
        <ele>119.8</ele>
        <time>2023-06-03T13:40:11Z</time>
      </trkpt>
      <trkpt lat="49.09182" lon="2.01557">
        <ele>119.9</ele>
        <time>2023-06-03T13:40:17Z</time>
      </trkpt>
      <trkpt lat="49.09192" lon="2.01559">
        <ele>120</ele>
        <time>2023-06-03T13:40:23Z</time>
      </trkpt>
      <trkpt lat="49.09201" lon="2.0156">
        <ele>120.1</ele>
        <time>2023-06-03T13:40:29Z</time>
      </trkpt>
      <trkpt lat="49.09208" lon="2.01562">
        <ele>120.2</ele>
        <time>2023-06-03T13:40:34Z</time>
      </trkpt>
      <trkpt lat="49.09217" lon="2.01564">
        <ele>120.5</ele>
        <time>2023-06-03T13:40:40Z</time>
      </trkpt>
      <trkpt lat="49.09223" lon="2.01565">
        <ele>120.6</ele>
        <time>2023-06-03T13:40:46Z</time>
      </trkpt>
      <trkpt lat="49.09229" lon="2.01567">
        <ele>120.5</ele>
        <time>2023-06-03T13:40:51Z</time>
      </trkpt>
      <trkpt lat="49.09239" lon="2.01566">
        <ele>120.2</ele>
        <time>2023-06-03T13:40:57Z</time>
      </trkpt>
      <trkpt lat="49.09248" lon="2.01568">
        <ele>119.9</ele>
        <time>2023-06-03T13:41:03Z</time>
      </trkpt>
      <trkpt lat="49.09256" lon="2.0157">
        <ele>119.7</ele>
        <time>2023-06-03T13:41:08Z</time>
      </trkpt>
      <trkpt lat="49.09265" lon="2.01574">
        <ele>119.7</ele>
        <time>2023-06-03T13:41:14Z</time>
      </trkpt>
      <trkpt lat="49.09275" lon="2.01576">
        <ele>119.8</ele>
        <time>2023-06-03T13:41:20Z</time>
      </trkpt>
      <trkpt lat="49.09283" lon="2.01577">
        <ele>119.9</ele>
        <time>2023-06-03T13:41:25Z</time>
      </trkpt>
      <trkpt lat="49.09294" lon="2.01579">
        <ele>120</ele>
        <time>2023-06-03T13:41:31Z</time>
      </trkpt>
      <trkpt lat="49.09305" lon="2.01582">
        <ele>120</ele>
        <time>2023-06-03T13:41:37Z</time>
      </trkpt>
      <trkpt lat="49.09316" lon="2.01585">
        <ele>120.1</ele>
        <time>2023-06-03T13:41:43Z</time>
      </trkpt>
      <trkpt lat="49.09324" lon="2.01587">
        <ele>120.1</ele>
        <time>2023-06-03T13:41:48Z</time>
      </trkpt>
      <trkpt lat="49.09333" lon="2.01591">
        <ele>119.9</ele>
        <time>2023-06-03T13:41:54Z</time>
      </trkpt>
      <trkpt lat="49.09342" lon="2.01592">
        <ele>120.2</ele>
        <time>2023-06-03T13:42:00Z</time>
      </trkpt>
      <trkpt lat="49.0935" lon="2.01594">
        <ele>120.4</ele>
        <time>2023-06-03T13:42:05Z</time>
      </trkpt>
      <trkpt lat="49.09358" lon="2.01593">
        <ele>120.7</ele>
        <time>2023-06-03T13:42:11Z</time>
      </trkpt>
      <trkpt lat="49.09364" lon="2.01593">
        <ele>120.9</ele>
        <time>2023-06-03T13:42:16Z</time>
      </trkpt>
      <trkpt lat="49.09373" lon="2.01594">
        <ele>121.1</ele>
        <time>2023-06-03T13:42:22Z</time>
      </trkpt>
      <trkpt lat="49.0938" lon="2.01595">
        <ele>121.3</ele>
        <time>2023-06-03T13:42:28Z</time>
      </trkpt>
      <trkpt lat="49.09387" lon="2.01597">
        <ele>121.4</ele>
        <time>2023-06-03T13:42:33Z</time>
      </trkpt>
      <trkpt lat="49.09394" lon="2.01599">
        <ele>121.6</ele>
        <time>2023-06-03T13:42:38Z</time>
      </trkpt>
      <trkpt lat="49.09404" lon="2.01601">
        <ele>121.6</ele>
        <time>2023-06-03T13:42:44Z</time>
      </trkpt>
      <trkpt lat="49.09413" lon="2.016">
        <ele>121.7</ele>
        <time>2023-06-03T13:42:50Z</time>
      </trkpt>
      <trkpt lat="49.09422" lon="2.016">
        <ele>122</ele>
        <time>2023-06-03T13:42:56Z</time>
      </trkpt>
      <trkpt lat="49.09431" lon="2.01602">
        <ele>122.4</ele>
        <time>2023-06-03T13:43:01Z</time>
      </trkpt>
      <trkpt lat="49.09441" lon="2.01605">
        <ele>122.5</ele>
        <time>2023-06-03T13:43:07Z</time>
      </trkpt>
      <trkpt lat="49.09449" lon="2.01608">
        <ele>122.8</ele>
        <time>2023-06-03T13:43:12Z</time>
      </trkpt>
      <trkpt lat="49.09458" lon="2.01608">
        <ele>123.1</ele>
        <time>2023-06-03T13:43:18Z</time>
      </trkpt>
      <trkpt lat="49.09463" lon="2.01608">
        <ele>123.3</ele>
        <time>2023-06-03T13:43:24Z</time>
      </trkpt>
      <trkpt lat="49.09473" lon="2.01611">
        <ele>123.4</ele>
        <time>2023-06-03T13:43:30Z</time>
      </trkpt>
      <trkpt lat="49.09481" lon="2.01611">
        <ele>123.5</ele>
        <time>2023-06-03T13:43:36Z</time>
      </trkpt>
      <trkpt lat="49.0949" lon="2.01613">
        <ele>123.7</ele>
        <time>2023-06-03T13:43:42Z</time>
      </trkpt>
      <trkpt lat="49.09499" lon="2.01616">
        <ele>123.8</ele>
        <time>2023-06-03T13:43:47Z</time>
      </trkpt>
      <trkpt lat="49.09505" lon="2.01617">
        <ele>123.9</ele>
        <time>2023-06-03T13:43:52Z</time>
      </trkpt>
      <trkpt lat="49.09515" lon="2.01624">
        <ele>124</ele>
        <time>2023-06-03T13:43:58Z</time>
      </trkpt>
      <trkpt lat="49.09523" lon="2.01629">
        <ele>124.1</ele>
        <time>2023-06-03T13:44:03Z</time>
      </trkpt>
      <trkpt lat="49.09531" lon="2.01635">
        <ele>124</ele>
        <time>2023-06-03T13:44:09Z</time>
      </trkpt>
      <trkpt lat="49.0954" lon="2.0164">
        <ele>123.8</ele>
        <time>2023-06-03T13:44:14Z</time>
      </trkpt>
      <trkpt lat="49.0955" lon="2.01647">
        <ele>123.7</ele>
        <time>2023-06-03T13:44:20Z</time>
      </trkpt>
      <trkpt lat="49.09557" lon="2.01654">
        <ele>123.8</ele>
        <time>2023-06-03T13:44:25Z</time>
      </trkpt>
      <trkpt lat="49.09564" lon="2.0166">
        <ele>124</ele>
        <time>2023-06-03T13:44:31Z</time>
      </trkpt>
      <trkpt lat="49.0957" lon="2.01666">
        <ele>124.2</ele>
        <time>2023-06-03T13:44:37Z</time>
      </trkpt>
      <trkpt lat="49.09577" lon="2.01674">
        <ele>124.3</ele>
        <time>2023-06-03T13:44:42Z</time>
      </trkpt>
      <trkpt lat="49.09584" lon="2.01686">
        <ele>124.4</ele>
        <time>2023-06-03T13:44:48Z</time>
      </trkpt>
      <trkpt lat="49.0959" lon="2.01697">
        <ele>124.5</ele>
        <time>2023-06-03T13:44:54Z</time>
      </trkpt>
      <trkpt lat="49.09596" lon="2.01704">
        <ele>124.2</ele>
        <time>2023-06-03T13:44:59Z</time>
      </trkpt>
      <trkpt lat="49.09605" lon="2.01713">
        <ele>123.9</ele>
        <time>2023-06-03T13:45:05Z</time>
      </trkpt>
      <trkpt lat="49.09611" lon="2.01722">
        <ele>123.9</ele>
        <time>2023-06-03T13:45:11Z</time>
      </trkpt>
      <trkpt lat="49.09618" lon="2.0173">
        <ele>123.8</ele>
        <time>2023-06-03T13:45:17Z</time>
      </trkpt>
      <trkpt lat="49.09623" lon="2.01736">
        <ele>124</ele>
        <time>2023-06-03T13:45:22Z</time>
      </trkpt>
      <trkpt lat="49.09629" lon="2.01742">
        <ele>124.4</ele>
        <time>2023-06-03T13:45:28Z</time>
      </trkpt>
      <trkpt lat="49.09636" lon="2.0175">
        <ele>124.3</ele>
        <time>2023-06-03T13:45:34Z</time>
      </trkpt>
      <trkpt lat="49.09642" lon="2.01758">
        <ele>124.1</ele>
        <time>2023-06-03T13:45:39Z</time>
      </trkpt>
      <trkpt lat="49.09649" lon="2.01765">
        <ele>123.9</ele>
        <time>2023-06-03T13:45:44Z</time>
      </trkpt>
      <trkpt lat="49.09657" lon="2.01774">
        <ele>124</ele>
        <time>2023-06-03T13:45:50Z</time>
      </trkpt>
      <trkpt lat="49.09663" lon="2.01781">
        <ele>124</ele>
        <time>2023-06-03T13:45:55Z</time>
      </trkpt>
      <trkpt lat="49.0967" lon="2.01791">
        <ele>124.1</ele>
        <time>2023-06-03T13:46:01Z</time>
      </trkpt>
      <trkpt lat="49.09677" lon="2.01799">
        <ele>124.3</ele>
        <time>2023-06-03T13:46:07Z</time>
      </trkpt>
      <trkpt lat="49.09682" lon="2.01806">
        <ele>124.4</ele>
        <time>2023-06-03T13:46:12Z</time>
      </trkpt>
      <trkpt lat="49.09688" lon="2.01814">
        <ele>124.6</ele>
        <time>2023-06-03T13:46:18Z</time>
      </trkpt>
      <trkpt lat="49.09693" lon="2.01821">
        <ele>125</ele>
        <time>2023-06-03T13:46:24Z</time>
      </trkpt>
      <trkpt lat="49.09698" lon="2.01827">
        <ele>125.3</ele>
        <time>2023-06-03T13:46:29Z</time>
      </trkpt>
      <trkpt lat="49.09703" lon="2.01835">
        <ele>125.8</ele>
        <time>2023-06-03T13:46:34Z</time>
      </trkpt>
      <trkpt lat="49.0971" lon="2.01844">
        <ele>126.4</ele>
        <time>2023-06-03T13:46:40Z</time>
      </trkpt>
      <trkpt lat="49.09715" lon="2.01851">
        <ele>127</ele>
        <time>2023-06-03T13:46:45Z</time>
      </trkpt>
      <trkpt lat="49.09723" lon="2.01862">
        <ele>127.7</ele>
        <time>2023-06-03T13:46:51Z</time>
      </trkpt>
      <trkpt lat="49.09733" lon="2.01873">
        <ele>128.4</ele>
        <time>2023-06-03T13:46:57Z</time>
      </trkpt>
      <trkpt lat="49.09742" lon="2.01883">
        <ele>129</ele>
        <time>2023-06-03T13:47:03Z</time>
      </trkpt>
      <trkpt lat="49.09749" lon="2.0189">
        <ele>129.3</ele>
        <time>2023-06-03T13:47:08Z</time>
      </trkpt>
      <trkpt lat="49.09758" lon="2.01898">
        <ele>129.6</ele>
        <time>2023-06-03T13:47:14Z</time>
      </trkpt>
      <trkpt lat="49.09765" lon="2.01906">
        <ele>129.9</ele>
        <time>2023-06-03T13:47:19Z</time>
      </trkpt>
      <trkpt lat="49.09774" lon="2.01916">
        <ele>130.2</ele>
        <time>2023-06-03T13:47:25Z</time>
      </trkpt>
      <trkpt lat="49.09779" lon="2.01924">
        <ele>130.5</ele>
        <time>2023-06-03T13:47:30Z</time>
      </trkpt>
      <trkpt lat="49.09786" lon="2.01932">
        <ele>130.7</ele>
        <time>2023-06-03T13:47:36Z</time>
      </trkpt>
      <trkpt lat="49.09791" lon="2.01939">
        <ele>130.8</ele>
        <time>2023-06-03T13:47:41Z</time>
      </trkpt>
      <trkpt lat="49.09795" lon="2.0195">
        <ele>130.8</ele>
        <time>2023-06-03T13:47:47Z</time>
      </trkpt>
      <trkpt lat="49.098" lon="2.01962">
        <ele>130.9</ele>
        <time>2023-06-03T13:47:53Z</time>
      </trkpt>
      <trkpt lat="49.09805" lon="2.01971">
        <ele>131</ele>
        <time>2023-06-03T13:47:58Z</time>
      </trkpt>
      <trkpt lat="49.0981" lon="2.01983">
        <ele>131.2</ele>
        <time>2023-06-03T13:48:04Z</time>
      </trkpt>
      <trkpt lat="49.09813" lon="2.01992">
        <ele>131.2</ele>
        <time>2023-06-03T13:48:10Z</time>
      </trkpt>
      <trkpt lat="49.09816" lon="2.02003">
        <ele>131.2</ele>
        <time>2023-06-03T13:48:16Z</time>
      </trkpt>
      <trkpt lat="49.0982" lon="2.02018">
        <ele>131.1</ele>
        <time>2023-06-03T13:48:22Z</time>
      </trkpt>
      <trkpt lat="49.09823" lon="2.02034">
        <ele>131</ele>
        <time>2023-06-03T13:48:28Z</time>
      </trkpt>
      <trkpt lat="49.09824" lon="2.02051">
        <ele>130.9</ele>
        <time>2023-06-03T13:48:34Z</time>
      </trkpt>
      <trkpt lat="49.09825" lon="2.02065">
        <ele>131</ele>
        <time>2023-06-03T13:48:40Z</time>
      </trkpt>
      <trkpt lat="49.09824" lon="2.02077">
        <ele>131</ele>
        <time>2023-06-03T13:48:46Z</time>
      </trkpt>
      <trkpt lat="49.09823" lon="2.02089">
        <ele>130.9</ele>
        <time>2023-06-03T13:48:52Z</time>
      </trkpt>
      <trkpt lat="49.09823" lon="2.02098">
        <ele>130.8</ele>
        <time>2023-06-03T13:48:57Z</time>
      </trkpt>
      <trkpt lat="49.09822" lon="2.0211">
        <ele>130.7</ele>
        <time>2023-06-03T13:49:02Z</time>
      </trkpt>
      <trkpt lat="49.09821" lon="2.02128">
        <ele>130.9</ele>
        <time>2023-06-03T13:49:08Z</time>
      </trkpt>
      <trkpt lat="49.09819" lon="2.02143">
        <ele>131.1</ele>
        <time>2023-06-03T13:49:14Z</time>
      </trkpt>
      <trkpt lat="49.09817" lon="2.02155">
        <ele>131.2</ele>
        <time>2023-06-03T13:49:19Z</time>
      </trkpt>
      <trkpt lat="49.09815" lon="2.02166">
        <ele>131.4</ele>
        <time>2023-06-03T13:49:25Z</time>
      </trkpt>
      <trkpt lat="49.09814" lon="2.02178">
        <ele>131.4</ele>
        <time>2023-06-03T13:49:31Z</time>
      </trkpt>
      <trkpt lat="49.09813" lon="2.02187">
        <ele>131.3</ele>
        <time>2023-06-03T13:49:36Z</time>
      </trkpt>
      <trkpt lat="49.09813" lon="2.02199">
        <ele>131.1</ele>
        <time>2023-06-03T13:49:42Z</time>
      </trkpt>
      <trkpt lat="49.09811" lon="2.02212">
        <ele>131.2</ele>
        <time>2023-06-03T13:49:47Z</time>
      </trkpt>
      <trkpt lat="49.09808" lon="2.02228">
        <ele>131.6</ele>
        <time>2023-06-03T13:49:53Z</time>
      </trkpt>
      <trkpt lat="49.09805" lon="2.02237">
        <ele>132.1</ele>
        <time>2023-06-03T13:49:59Z</time>
      </trkpt>
      <trkpt lat="49.09797" lon="2.0224">
        <ele>132.7</ele>
        <time>2023-06-03T13:50:05Z</time>
      </trkpt>
      <trkpt lat="49.09788" lon="2.02239">
        <ele>133.3</ele>
        <time>2023-06-03T13:50:11Z</time>
      </trkpt>
      <trkpt lat="49.09781" lon="2.02238">
        <ele>133.8</ele>
        <time>2023-06-03T13:50:16Z</time>
      </trkpt>
      <trkpt lat="49.09774" lon="2.02235">
        <ele>134.3</ele>
        <time>2023-06-03T13:50:21Z</time>
      </trkpt>
      <trkpt lat="49.09765" lon="2.02229">
        <ele>134.5</ele>
        <time>2023-06-03T13:50:27Z</time>
      </trkpt>
      <trkpt lat="49.09756" lon="2.02225">
        <ele>134.6</ele>
        <time>2023-06-03T13:50:33Z</time>
      </trkpt>
      <trkpt lat="49.09747" lon="2.02223">
        <ele>134.8</ele>
        <time>2023-06-03T13:50:39Z</time>
      </trkpt>
      <trkpt lat="49.0974" lon="2.0222">
        <ele>135</ele>
        <time>2023-06-03T13:50:45Z</time>
      </trkpt>
      <trkpt lat="49.09734" lon="2.02218">
        <ele>135.1</ele>
        <time>2023-06-03T13:50:50Z</time>
      </trkpt>
      <trkpt lat="49.09725" lon="2.02215">
        <ele>135.2</ele>
        <time>2023-06-03T13:50:55Z</time>
      </trkpt>
      <trkpt lat="49.09717" lon="2.02212">
        <ele>135.5</ele>
        <time>2023-06-03T13:51:01Z</time>
      </trkpt>
      <trkpt lat="49.09709" lon="2.02209">
        <ele>135.6</ele>
        <time>2023-06-03T13:51:06Z</time>
      </trkpt>
      <trkpt lat="49.09701" lon="2.02203">
        <ele>135.7</ele>
        <time>2023-06-03T13:51:11Z</time>
      </trkpt>
      <trkpt lat="49.0969" lon="2.02197">
        <ele>135.9</ele>
        <time>2023-06-03T13:51:17Z</time>
      </trkpt>
      <trkpt lat="49.09682" lon="2.02193">
        <ele>136</ele>
        <time>2023-06-03T13:51:22Z</time>
      </trkpt>
      <trkpt lat="49.09674" lon="2.02189">
        <ele>136.1</ele>
        <time>2023-06-03T13:51:27Z</time>
      </trkpt>
      <trkpt lat="49.09665" lon="2.02184">
        <ele>136.3</ele>
        <time>2023-06-03T13:51:33Z</time>
      </trkpt>
      <trkpt lat="49.09657" lon="2.0218">
        <ele>136.5</ele>
        <time>2023-06-03T13:51:38Z</time>
      </trkpt>
      <trkpt lat="49.09647" lon="2.02174">
        <ele>136.7</ele>
        <time>2023-06-03T13:51:44Z</time>
      </trkpt>
      <trkpt lat="49.09638" lon="2.02168">
        <ele>137</ele>
        <time>2023-06-03T13:51:50Z</time>
      </trkpt>
      <trkpt lat="49.0963" lon="2.02163">
        <ele>137.3</ele>
        <time>2023-06-03T13:51:55Z</time>
      </trkpt>
      <trkpt lat="49.09623" lon="2.02159">
        <ele>137.6</ele>
        <time>2023-06-03T13:52:00Z</time>
      </trkpt>
      <trkpt lat="49.09615" lon="2.02154">
        <ele>137.9</ele>
        <time>2023-06-03T13:52:05Z</time>
      </trkpt>
      <trkpt lat="49.09606" lon="2.02149">
        <ele>138.1</ele>
        <time>2023-06-03T13:52:11Z</time>
      </trkpt>
      <trkpt lat="49.09598" lon="2.02145">
        <ele>138.3</ele>
        <time>2023-06-03T13:52:16Z</time>
      </trkpt>
      <trkpt lat="49.09589" lon="2.02138">
        <ele>138.4</ele>
        <time>2023-06-03T13:52:22Z</time>
      </trkpt>
      <trkpt lat="49.09581" lon="2.02132">
        <ele>138.5</ele>
        <time>2023-06-03T13:52:27Z</time>
      </trkpt>
      <trkpt lat="49.09572" lon="2.02125">
        <ele>138.7</ele>
        <time>2023-06-03T13:52:33Z</time>
      </trkpt>
      <trkpt lat="49.09565" lon="2.02119">
        <ele>138.9</ele>
        <time>2023-06-03T13:52:39Z</time>
      </trkpt>
      <trkpt lat="49.09557" lon="2.02114">
        <ele>139.2</ele>
        <time>2023-06-03T13:52:45Z</time>
      </trkpt>
      <trkpt lat="49.0955" lon="2.0211">
        <ele>139.2</ele>
        <time>2023-06-03T13:52:50Z</time>
      </trkpt>
      <trkpt lat="49.09541" lon="2.02106">
        <ele>139.3</ele>
        <time>2023-06-03T13:52:56Z</time>
      </trkpt>
      <trkpt lat="49.09534" lon="2.02102">
        <ele>139.4</ele>
        <time>2023-06-03T13:53:01Z</time>
      </trkpt>
      <trkpt lat="49.09527" lon="2.021">
        <ele>139.4</ele>
        <time>2023-06-03T13:53:07Z</time>
      </trkpt>
      <trkpt lat="49.09519" lon="2.02095">
        <ele>139.5</ele>
        <time>2023-06-03T13:53:13Z</time>
      </trkpt>
      <trkpt lat="49.0951" lon="2.0209">
        <ele>139.5</ele>
        <time>2023-06-03T13:53:19Z</time>
      </trkpt>
      <trkpt lat="49.09502" lon="2.02086">
        <ele>139.5</ele>
        <time>2023-06-03T13:53:24Z</time>
      </trkpt>
      <trkpt lat="49.09494" lon="2.02082">
        <ele>139.6</ele>
        <time>2023-06-03T13:53:29Z</time>
      </trkpt>
      <trkpt lat="49.09487" lon="2.02077">
        <ele>139.8</ele>
        <time>2023-06-03T13:53:35Z</time>
      </trkpt>
      <trkpt lat="49.09478" lon="2.02073">
        <ele>140</ele>
        <time>2023-06-03T13:53:41Z</time>
      </trkpt>
      <trkpt lat="49.09468" lon="2.02069">
        <ele>140.1</ele>
        <time>2023-06-03T13:53:47Z</time>
      </trkpt>
      <trkpt lat="49.0946" lon="2.02064">
        <ele>140.1</ele>
        <time>2023-06-03T13:53:52Z</time>
      </trkpt>
      <trkpt lat="49.0945" lon="2.02061">
        <ele>140.2</ele>
        <time>2023-06-03T13:53:58Z</time>
      </trkpt>
      <trkpt lat="49.09442" lon="2.02057">
        <ele>140.2</ele>
        <time>2023-06-03T13:54:03Z</time>
      </trkpt>
      <trkpt lat="49.09434" lon="2.02053">
        <ele>140</ele>
        <time>2023-06-03T13:54:09Z</time>
      </trkpt>
      <trkpt lat="49.09425" lon="2.0205">
        <ele>139.8</ele>
        <time>2023-06-03T13:54:15Z</time>
      </trkpt>
      <trkpt lat="49.09417" lon="2.02047">
        <ele>139.6</ele>
        <time>2023-06-03T13:54:20Z</time>
      </trkpt>
      <trkpt lat="49.09409" lon="2.02046">
        <ele>139.3</ele>
        <time>2023-06-03T13:54:25Z</time>
      </trkpt>
      <trkpt lat="49.09398" lon="2.02044">
        <ele>138.9</ele>
        <time>2023-06-03T13:54:31Z</time>
      </trkpt>
      <trkpt lat="49.09388" lon="2.0204">
        <ele>138.6</ele>
        <time>2023-06-03T13:54:36Z</time>
      </trkpt>
      <trkpt lat="49.0938" lon="2.02037">
        <ele>138.2</ele>
        <time>2023-06-03T13:54:42Z</time>
      </trkpt>
      <trkpt lat="49.0937" lon="2.02033">
        <ele>138.1</ele>
        <time>2023-06-03T13:54:48Z</time>
      </trkpt>
      <trkpt lat="49.09361" lon="2.0203">
        <ele>138.2</ele>
        <time>2023-06-03T13:54:53Z</time>
      </trkpt>
      <trkpt lat="49.09354" lon="2.02028">
        <ele>138.2</ele>
        <time>2023-06-03T13:54:58Z</time>
      </trkpt>
      <trkpt lat="49.09347" lon="2.02025">
        <ele>138.2</ele>
        <time>2023-06-03T13:55:03Z</time>
      </trkpt>
      <trkpt lat="49.09338" lon="2.02021">
        <ele>138.4</ele>
        <time>2023-06-03T13:55:09Z</time>
      </trkpt>
      <trkpt lat="49.09327" lon="2.02018">
        <ele>138.7</ele>
        <time>2023-06-03T13:55:15Z</time>
      </trkpt>
      <trkpt lat="49.09321" lon="2.02015">
        <ele>138.9</ele>
        <time>2023-06-03T13:55:20Z</time>
      </trkpt>
      <trkpt lat="49.09312" lon="2.02013">
        <ele>139.1</ele>
        <time>2023-06-03T13:55:25Z</time>
      </trkpt>
      <trkpt lat="49.09303" lon="2.02009">
        <ele>139.3</ele>
        <time>2023-06-03T13:55:31Z</time>
      </trkpt>
      <trkpt lat="49.09295" lon="2.02006">
        <ele>139.3</ele>
        <time>2023-06-03T13:55:36Z</time>
      </trkpt>
      <trkpt lat="49.09285" lon="2.02002">
        <ele>139.4</ele>
        <time>2023-06-03T13:55:42Z</time>
      </trkpt>
      <trkpt lat="49.09277" lon="2.01999">
        <ele>139.4</ele>
        <time>2023-06-03T13:55:48Z</time>
      </trkpt>
      <trkpt lat="49.09269" lon="2.01997">
        <ele>139.2</ele>
        <time>2023-06-03T13:55:54Z</time>
      </trkpt>
      <trkpt lat="49.0926" lon="2.01994">
        <ele>138.9</ele>
        <time>2023-06-03T13:56:00Z</time>
      </trkpt>
      <trkpt lat="49.09253" lon="2.01992">
        <ele>138.7</ele>
        <time>2023-06-03T13:56:05Z</time>
      </trkpt>
      <trkpt lat="49.09244" lon="2.01989">
        <ele>138.6</ele>
        <time>2023-06-03T13:56:10Z</time>
      </trkpt>
      <trkpt lat="49.09234" lon="2.01987">
        <ele>138.5</ele>
        <time>2023-06-03T13:56:16Z</time>
      </trkpt>
      <trkpt lat="49.09225" lon="2.01985">
        <ele>138.1</ele>
        <time>2023-06-03T13:56:22Z</time>
      </trkpt>
      <trkpt lat="49.09217" lon="2.01983">
        <ele>137.9</ele>
        <time>2023-06-03T13:56:27Z</time>
      </trkpt>
      <trkpt lat="49.09207" lon="2.01979">
        <ele>137.8</ele>
        <time>2023-06-03T13:56:33Z</time>
      </trkpt>
      <trkpt lat="49.09199" lon="2.01978">
        <ele>137.8</ele>
        <time>2023-06-03T13:56:38Z</time>
      </trkpt>
      <trkpt lat="49.09191" lon="2.01977">
        <ele>137.7</ele>
        <time>2023-06-03T13:56:44Z</time>
      </trkpt>
      <trkpt lat="49.09185" lon="2.01977">
        <ele>137.4</ele>
        <time>2023-06-03T13:56:49Z</time>
      </trkpt>
      <trkpt lat="49.09176" lon="2.01973">
        <ele>137</ele>
        <time>2023-06-03T13:56:55Z</time>
      </trkpt>
      <trkpt lat="49.09167" lon="2.01971">
        <ele>136.7</ele>
        <time>2023-06-03T13:57:01Z</time>
      </trkpt>
      <trkpt lat="49.09156" lon="2.01972">
        <ele>136.7</ele>
        <time>2023-06-03T13:57:07Z</time>
      </trkpt>
      <trkpt lat="49.09146" lon="2.0197">
        <ele>136.9</ele>
        <time>2023-06-03T13:57:13Z</time>
      </trkpt>
      <trkpt lat="49.0914" lon="2.01967">
        <ele>136.8</ele>
        <time>2023-06-03T13:57:18Z</time>
      </trkpt>
      <trkpt lat="49.09132" lon="2.01965">
        <ele>136.7</ele>
        <time>2023-06-03T13:57:24Z</time>
      </trkpt>
      <trkpt lat="49.09124" lon="2.01964">
        <ele>136.5</ele>
        <time>2023-06-03T13:57:29Z</time>
      </trkpt>
      <trkpt lat="49.09115" lon="2.01965">
        <ele>136</ele>
        <time>2023-06-03T13:57:35Z</time>
      </trkpt>
      <trkpt lat="49.09106" lon="2.01964">
        <ele>135.8</ele>
        <time>2023-06-03T13:57:40Z</time>
      </trkpt>
      <trkpt lat="49.09096" lon="2.0196">
        <ele>135.6</ele>
        <time>2023-06-03T13:57:46Z</time>
      </trkpt>
      <trkpt lat="49.09088" lon="2.01959">
        <ele>135.4</ele>
        <time>2023-06-03T13:57:51Z</time>
      </trkpt>
      <trkpt lat="49.0908" lon="2.01959">
        <ele>135.2</ele>
        <time>2023-06-03T13:57:56Z</time>
      </trkpt>
      <trkpt lat="49.09072" lon="2.01958">
        <ele>135.1</ele>
        <time>2023-06-03T13:58:02Z</time>
      </trkpt>
      <trkpt lat="49.09065" lon="2.01958">
        <ele>135</ele>
        <time>2023-06-03T13:58:07Z</time>
      </trkpt>
      <trkpt lat="49.09054" lon="2.01958">
        <ele>135</ele>
        <time>2023-06-03T13:58:13Z</time>
      </trkpt>
      <trkpt lat="49.09046" lon="2.01959">
        <ele>135</ele>
        <time>2023-06-03T13:58:18Z</time>
      </trkpt>
      <trkpt lat="49.09036" lon="2.01959">
        <ele>135.2</ele>
        <time>2023-06-03T13:58:24Z</time>
      </trkpt>
      <trkpt lat="49.09026" lon="2.01962">
        <ele>135.6</ele>
        <time>2023-06-03T13:58:30Z</time>
      </trkpt>
      <trkpt lat="49.09017" lon="2.01961">
        <ele>135.9</ele>
        <time>2023-06-03T13:58:35Z</time>
      </trkpt>
      <trkpt lat="49.09009" lon="2.0196">
        <ele>136.3</ele>
        <time>2023-06-03T13:58:41Z</time>
      </trkpt>
      <trkpt lat="49.09001" lon="2.0196">
        <ele>136.5</ele>
        <time>2023-06-03T13:58:46Z</time>
      </trkpt>
      <trkpt lat="49.08994" lon="2.01959">
        <ele>136.5</ele>
        <time>2023-06-03T13:58:51Z</time>
      </trkpt>
      <trkpt lat="49.08986" lon="2.01958">
        <ele>136.6</ele>
        <time>2023-06-03T13:58:56Z</time>
      </trkpt>
      <trkpt lat="49.08976" lon="2.01959">
        <ele>136.5</ele>
        <time>2023-06-03T13:59:02Z</time>
      </trkpt>
      <trkpt lat="49.08969" lon="2.01959">
        <ele>136.5</ele>
        <time>2023-06-03T13:59:07Z</time>
      </trkpt>
      <trkpt lat="49.08962" lon="2.01959">
        <ele>136.5</ele>
        <time>2023-06-03T13:59:12Z</time>
      </trkpt>
      <trkpt lat="49.08956" lon="2.01961">
        <ele>136.6</ele>
        <time>2023-06-03T13:59:17Z</time>
      </trkpt>
      <trkpt lat="49.08947" lon="2.01962">
        <ele>136.5</ele>
        <time>2023-06-03T13:59:23Z</time>
      </trkpt>
      <trkpt lat="49.08937" lon="2.01964">
        <ele>136.3</ele>
        <time>2023-06-03T13:59:29Z</time>
      </trkpt>
      <trkpt lat="49.08928" lon="2.01967">
        <ele>136.3</ele>
        <time>2023-06-03T13:59:34Z</time>
      </trkpt>
      <trkpt lat="49.08919" lon="2.01972">
        <ele>136.2</ele>
        <time>2023-06-03T13:59:40Z</time>
      </trkpt>
      <trkpt lat="49.08912" lon="2.01975">
        <ele>136.3</ele>
        <time>2023-06-03T13:59:45Z</time>
      </trkpt>
      <trkpt lat="49.08903" lon="2.01979">
        <ele>136.8</ele>
        <time>2023-06-03T13:59:51Z</time>
      </trkpt>
      <trkpt lat="49.08894" lon="2.01984">
        <ele>137.3</ele>
        <time>2023-06-03T13:59:57Z</time>
      </trkpt>
      <trkpt lat="49.08886" lon="2.01991">
        <ele>137.7</ele>
        <time>2023-06-03T14:00:03Z</time>
      </trkpt>
      <trkpt lat="49.08879" lon="2.01995">
        <ele>138</ele>
        <time>2023-06-03T14:00:09Z</time>
      </trkpt>
      <trkpt lat="49.08871" lon="2.01999">
        <ele>138</ele>
        <time>2023-06-03T14:00:15Z</time>
      </trkpt>
      <trkpt lat="49.08864" lon="2.02004">
        <ele>138</ele>
        <time>2023-06-03T14:00:20Z</time>
      </trkpt>
      <trkpt lat="49.08856" lon="2.02011">
        <ele>137.9</ele>
        <time>2023-06-03T14:00:26Z</time>
      </trkpt>
      <trkpt lat="49.08847" lon="2.02019">
        <ele>137.6</ele>
        <time>2023-06-03T14:00:32Z</time>
      </trkpt>
      <trkpt lat="49.0884" lon="2.02027">
        <ele>137.4</ele>
        <time>2023-06-03T14:00:37Z</time>
      </trkpt>
      <trkpt lat="49.08833" lon="2.02033">
        <ele>137.2</ele>
        <time>2023-06-03T14:00:42Z</time>
      </trkpt>
      <trkpt lat="49.08825" lon="2.0204">
        <ele>137</ele>
        <time>2023-06-03T14:00:48Z</time>
      </trkpt>
      <trkpt lat="49.08819" lon="2.02045">
        <ele>136.7</ele>
        <time>2023-06-03T14:00:53Z</time>
      </trkpt>
      <trkpt lat="49.0881" lon="2.02053">
        <ele>136.3</ele>
        <time>2023-06-03T14:00:59Z</time>
      </trkpt>
      <trkpt lat="49.08802" lon="2.02064">
        <ele>136.1</ele>
        <time>2023-06-03T14:01:05Z</time>
      </trkpt>
      <trkpt lat="49.08796" lon="2.02074">
        <ele>136</ele>
        <time>2023-06-03T14:01:10Z</time>
      </trkpt>
      <trkpt lat="49.0879" lon="2.02085">
        <ele>136.1</ele>
        <time>2023-06-03T14:01:16Z</time>
      </trkpt>
      <trkpt lat="49.08784" lon="2.02095">
        <ele>136.1</ele>
        <time>2023-06-03T14:01:22Z</time>
      </trkpt>
      <trkpt lat="49.08778" lon="2.02105">
        <ele>136</ele>
        <time>2023-06-03T14:01:28Z</time>
      </trkpt>
      <trkpt lat="49.08775" lon="2.02113">
        <ele>135.8</ele>
        <time>2023-06-03T14:01:33Z</time>
      </trkpt>
      <trkpt lat="49.08769" lon="2.02125">
        <ele>135.4</ele>
        <time>2023-06-03T14:01:39Z</time>
      </trkpt>
      <trkpt lat="49.08766" lon="2.02133">
        <ele>135</ele>
        <time>2023-06-03T14:01:44Z</time>
      </trkpt>
      <trkpt lat="49.08761" lon="2.02144">
        <ele>134.7</ele>
        <time>2023-06-03T14:01:50Z</time>
      </trkpt>
      <trkpt lat="49.08758" lon="2.02152">
        <ele>134.3</ele>
        <time>2023-06-03T14:01:55Z</time>
      </trkpt>
      <trkpt lat="49.08756" lon="2.02158">
        <ele>134.1</ele>
        <time>2023-06-03T14:02:01Z</time>
      </trkpt>
      <trkpt lat="49.08752" lon="2.02161">
        <ele>133.9</ele>
        <time>2023-06-03T14:02:06Z</time>
      </trkpt>
      <trkpt lat="49.08746" lon="2.02175">
        <ele>133.9</ele>
        <time>2023-06-03T14:02:12Z</time>
      </trkpt>
      <trkpt lat="49.08742" lon="2.02189">
        <ele>134.1</ele>
        <time>2023-06-03T14:02:18Z</time>
      </trkpt>
      <trkpt lat="49.08739" lon="2.022">
        <ele>134.1</ele>
        <time>2023-06-03T14:02:23Z</time>
      </trkpt>
      <trkpt lat="49.08735" lon="2.02212">
        <ele>134.2</ele>
        <time>2023-06-03T14:02:28Z</time>
      </trkpt>
      <trkpt lat="49.08732" lon="2.02223">
        <ele>134.3</ele>
        <time>2023-06-03T14:02:34Z</time>
      </trkpt>
      <trkpt lat="49.08729" lon="2.02232">
        <ele>134.4</ele>
        <time>2023-06-03T14:02:39Z</time>
      </trkpt>
      <trkpt lat="49.08722" lon="2.02234">
        <ele>134.5</ele>
        <time>2023-06-03T14:02:45Z</time>
      </trkpt>
      <trkpt lat="49.08715" lon="2.02225">
        <ele>134.7</ele>
        <time>2023-06-03T14:02:51Z</time>
      </trkpt>
      <trkpt lat="49.08708" lon="2.02215">
        <ele>135.1</ele>
        <time>2023-06-03T14:02:57Z</time>
      </trkpt>
      <trkpt lat="49.08701" lon="2.02206">
        <ele>135.1</ele>
        <time>2023-06-03T14:03:02Z</time>
      </trkpt>
      <trkpt lat="49.08695" lon="2.02197">
        <ele>135.2</ele>
        <time>2023-06-03T14:03:08Z</time>
      </trkpt>
      <trkpt lat="49.08689" lon="2.02187">
        <ele>135.3</ele>
        <time>2023-06-03T14:03:13Z</time>
      </trkpt>
      <trkpt lat="49.08684" lon="2.02179">
        <ele>135.5</ele>
        <time>2023-06-03T14:03:18Z</time>
      </trkpt>
      <trkpt lat="49.08676" lon="2.02168">
        <ele>135.8</ele>
        <time>2023-06-03T14:03:24Z</time>
      </trkpt>
      <trkpt lat="49.08668" lon="2.02157">
        <ele>135.9</ele>
        <time>2023-06-03T14:03:30Z</time>
      </trkpt>
      <trkpt lat="49.0866" lon="2.02147">
        <ele>136</ele>
        <time>2023-06-03T14:03:36Z</time>
      </trkpt>
      <trkpt lat="49.08654" lon="2.02142">
        <ele>136</ele>
        <time>2023-06-03T14:03:41Z</time>
      </trkpt>
      <trkpt lat="49.08648" lon="2.02135">
        <ele>136</ele>
        <time>2023-06-03T14:03:46Z</time>
      </trkpt>
      <trkpt lat="49.08641" lon="2.02128">
        <ele>135.7</ele>
        <time>2023-06-03T14:03:52Z</time>
      </trkpt>
      <trkpt lat="49.08633" lon="2.02121">
        <ele>135.3</ele>
        <time>2023-06-03T14:03:58Z</time>
      </trkpt>
      <trkpt lat="49.08623" lon="2.02114">
        <ele>134.8</ele>
        <time>2023-06-03T14:04:04Z</time>
      </trkpt>
      <trkpt lat="49.08616" lon="2.02108">
        <ele>134.6</ele>
        <time>2023-06-03T14:04:09Z</time>
      </trkpt>
      <trkpt lat="49.08607" lon="2.02105">
        <ele>134.6</ele>
        <time>2023-06-03T14:04:14Z</time>
      </trkpt>
      <trkpt lat="49.08597" lon="2.021">
        <ele>134.6</ele>
        <time>2023-06-03T14:04:20Z</time>
      </trkpt>
      <trkpt lat="49.08588" lon="2.02096">
        <ele>134.6</ele>
        <time>2023-06-03T14:04:26Z</time>
      </trkpt>
      <trkpt lat="49.0858" lon="2.02095">
        <ele>134.6</ele>
        <time>2023-06-03T14:04:31Z</time>
      </trkpt>
      <trkpt lat="49.08571" lon="2.02093">
        <ele>134.7</ele>
        <time>2023-06-03T14:04:37Z</time>
      </trkpt>
      <trkpt lat="49.08565" lon="2.02091">
        <ele>134.9</ele>
        <time>2023-06-03T14:04:42Z</time>
      </trkpt>
      <trkpt lat="49.08555" lon="2.0209">
        <ele>134.9</ele>
        <time>2023-06-03T14:04:48Z</time>
      </trkpt>
      <trkpt lat="49.08545" lon="2.02091">
        <ele>134.9</ele>
        <time>2023-06-03T14:04:54Z</time>
      </trkpt>
      <trkpt lat="49.08537" lon="2.02091">
        <ele>135.1</ele>
        <time>2023-06-03T14:04:59Z</time>
      </trkpt>
      <trkpt lat="49.08528" lon="2.02092">
        <ele>135</ele>
        <time>2023-06-03T14:05:04Z</time>
      </trkpt>
      <trkpt lat="49.08518" lon="2.02093">
        <ele>134.8</ele>
        <time>2023-06-03T14:05:10Z</time>
      </trkpt>
      <trkpt lat="49.08511" lon="2.02093">
        <ele>134.5</ele>
        <time>2023-06-03T14:05:15Z</time>
      </trkpt>
      <trkpt lat="49.08502" lon="2.02094">
        <ele>134.1</ele>
        <time>2023-06-03T14:05:21Z</time>
      </trkpt>
      <trkpt lat="49.08492" lon="2.02099">
        <ele>133.8</ele>
        <time>2023-06-03T14:05:27Z</time>
      </trkpt>
      <trkpt lat="49.08483" lon="2.02103">
        <ele>133.6</ele>
        <time>2023-06-03T14:05:32Z</time>
      </trkpt>
      <trkpt lat="49.08476" lon="2.02107">
        <ele>133.5</ele>
        <time>2023-06-03T14:05:37Z</time>
      </trkpt>
      <trkpt lat="49.08468" lon="2.02112">
        <ele>133.3</ele>
        <time>2023-06-03T14:05:43Z</time>
      </trkpt>
      <trkpt lat="49.0846" lon="2.02117">
        <ele>133</ele>
        <time>2023-06-03T14:05:49Z</time>
      </trkpt>
      <trkpt lat="49.08453" lon="2.02121">
        <ele>132.8</ele>
        <time>2023-06-03T14:05:54Z</time>
      </trkpt>
      <trkpt lat="49.08445" lon="2.0213">
        <ele>132.6</ele>
        <time>2023-06-03T14:06:00Z</time>
      </trkpt>
      <trkpt lat="49.08438" lon="2.02138">
        <ele>132.4</ele>
        <time>2023-06-03T14:06:05Z</time>
      </trkpt>
      <trkpt lat="49.0843" lon="2.02147">
        <ele>132</ele>
        <time>2023-06-03T14:06:11Z</time>
      </trkpt>
      <trkpt lat="49.08421" lon="2.02155">
        <ele>131.5</ele>
        <time>2023-06-03T14:06:17Z</time>
      </trkpt>
      <trkpt lat="49.08414" lon="2.02163">
        <ele>131</ele>
        <time>2023-06-03T14:06:23Z</time>
      </trkpt>
      <trkpt lat="49.08408" lon="2.02172">
        <ele>130.5</ele>
        <time>2023-06-03T14:06:29Z</time>
      </trkpt>
      <trkpt lat="49.08402" lon="2.02179">
        <ele>130.2</ele>
        <time>2023-06-03T14:06:34Z</time>
      </trkpt>
      <trkpt lat="49.08396" lon="2.0219">
        <ele>130</ele>
        <time>2023-06-03T14:06:40Z</time>
      </trkpt>
      <trkpt lat="49.08391" lon="2.02199">
        <ele>129.7</ele>
        <time>2023-06-03T14:06:45Z</time>
      </trkpt>
      <trkpt lat="49.08387" lon="2.02207">
        <ele>129.4</ele>
        <time>2023-06-03T14:06:50Z</time>
      </trkpt>
      <trkpt lat="49.08381" lon="2.02219">
        <ele>128.8</ele>
        <time>2023-06-03T14:06:56Z</time>
      </trkpt>
      <trkpt lat="49.08377" lon="2.02227">
        <ele>128.3</ele>
        <time>2023-06-03T14:07:01Z</time>
      </trkpt>
      <trkpt lat="49.08374" lon="2.02239">
        <ele>127.8</ele>
        <time>2023-06-03T14:07:07Z</time>
      </trkpt>
      <trkpt lat="49.08371" lon="2.02249">
        <ele>127.5</ele>
        <time>2023-06-03T14:07:12Z</time>
      </trkpt>
      <trkpt lat="49.08368" lon="2.02261">
        <ele>127.2</ele>
        <time>2023-06-03T14:07:17Z</time>
      </trkpt>
      <trkpt lat="49.08364" lon="2.02273">
        <ele>126.8</ele>
        <time>2023-06-03T14:07:22Z</time>
      </trkpt>
      <trkpt lat="49.08359" lon="2.02286">
        <ele>126.4</ele>
        <time>2023-06-03T14:07:28Z</time>
      </trkpt>
      <trkpt lat="49.08355" lon="2.02299">
        <ele>125.8</ele>
        <time>2023-06-03T14:07:34Z</time>
      </trkpt>
      <trkpt lat="49.08353" lon="2.0231">
        <ele>125.3</ele>
        <time>2023-06-03T14:07:39Z</time>
      </trkpt>
      <trkpt lat="49.08351" lon="2.02324">
        <ele>125</ele>
        <time>2023-06-03T14:07:45Z</time>
      </trkpt>
      <trkpt lat="49.08349" lon="2.02339">
        <ele>124.9</ele>
        <time>2023-06-03T14:07:51Z</time>
      </trkpt>
      <trkpt lat="49.08348" lon="2.0235">
        <ele>124.8</ele>
        <time>2023-06-03T14:07:56Z</time>
      </trkpt>
      <trkpt lat="49.08346" lon="2.02361">
        <ele>124.6</ele>
        <time>2023-06-03T14:08:01Z</time>
      </trkpt>
      <trkpt lat="49.08345" lon="2.02375">
        <ele>124</ele>
        <time>2023-06-03T14:08:07Z</time>
      </trkpt>
      <trkpt lat="49.08345" lon="2.02391">
        <ele>123.7</ele>
        <time>2023-06-03T14:08:13Z</time>
      </trkpt>
      <trkpt lat="49.08346" lon="2.02406">
        <ele>123.4</ele>
        <time>2023-06-03T14:08:19Z</time>
      </trkpt>
      <trkpt lat="49.08348" lon="2.0242">
        <ele>123.4</ele>
        <time>2023-06-03T14:08:24Z</time>
      </trkpt>
      <trkpt lat="49.08349" lon="2.02432">
        <ele>123.5</ele>
        <time>2023-06-03T14:08:30Z</time>
      </trkpt>
      <trkpt lat="49.0835" lon="2.02444">
        <ele>123.6</ele>
        <time>2023-06-03T14:08:35Z</time>
      </trkpt>
      <trkpt lat="49.08352" lon="2.02457">
        <ele>123.4</ele>
        <time>2023-06-03T14:08:41Z</time>
      </trkpt>
      <trkpt lat="49.08353" lon="2.02468">
        <ele>123.4</ele>
        <time>2023-06-03T14:08:46Z</time>
      </trkpt>
      <trkpt lat="49.08352" lon="2.02481">
        <ele>123.3</ele>
        <time>2023-06-03T14:08:51Z</time>
      </trkpt>
      <trkpt lat="49.08349" lon="2.02493">
        <ele>123.2</ele>
        <time>2023-06-03T14:08:57Z</time>
      </trkpt>
      <trkpt lat="49.08345" lon="2.02503">
        <ele>123.1</ele>
        <time>2023-06-03T14:09:02Z</time>
      </trkpt>
      <trkpt lat="49.08341" lon="2.02513">
        <ele>122.7</ele>
        <time>2023-06-03T14:09:07Z</time>
      </trkpt>
      <trkpt lat="49.08335" lon="2.02525">
        <ele>122.1</ele>
        <time>2023-06-03T14:09:13Z</time>
      </trkpt>
      <trkpt lat="49.08331" lon="2.02539">
        <ele>121.5</ele>
        <time>2023-06-03T14:09:19Z</time>
      </trkpt>
      <trkpt lat="49.08326" lon="2.02551">
        <ele>121</ele>
        <time>2023-06-03T14:09:25Z</time>
      </trkpt>
      <trkpt lat="49.08322" lon="2.02564">
        <ele>120.4</ele>
        <time>2023-06-03T14:09:31Z</time>
      </trkpt>
      <trkpt lat="49.08319" lon="2.02574">
        <ele>119.9</ele>
        <time>2023-06-03T14:09:36Z</time>
      </trkpt>
      <trkpt lat="49.08316" lon="2.02585">
        <ele>119.5</ele>
        <time>2023-06-03T14:09:41Z</time>
      </trkpt>
      <trkpt lat="49.08312" lon="2.02598">
        <ele>118.9</ele>
        <time>2023-06-03T14:09:47Z</time>
      </trkpt>
      <trkpt lat="49.08307" lon="2.0261">
        <ele>118.3</ele>
        <time>2023-06-03T14:09:53Z</time>
      </trkpt>
      <trkpt lat="49.08302" lon="2.02625">
        <ele>117.7</ele>
        <time>2023-06-03T14:09:59Z</time>
      </trkpt>
      <trkpt lat="49.08298" lon="2.02639">
        <ele>117.4</ele>
        <time>2023-06-03T14:10:05Z</time>
      </trkpt>
      <trkpt lat="49.08296" lon="2.0265">
        <ele>117.2</ele>
        <time>2023-06-03T14:10:10Z</time>
      </trkpt>
      <trkpt lat="49.08291" lon="2.02662">
        <ele>117</ele>
        <time>2023-06-03T14:10:16Z</time>
      </trkpt>
      <trkpt lat="49.08288" lon="2.02672">
        <ele>116.8</ele>
        <time>2023-06-03T14:10:21Z</time>
      </trkpt>
      <trkpt lat="49.08282" lon="2.02683">
        <ele>116.4</ele>
        <time>2023-06-03T14:10:27Z</time>
      </trkpt>
      <trkpt lat="49.08277" lon="2.02694">
        <ele>116</ele>
        <time>2023-06-03T14:10:32Z</time>
      </trkpt>
      <trkpt lat="49.08272" lon="2.02707">
        <ele>115.6</ele>
        <time>2023-06-03T14:10:38Z</time>
      </trkpt>
      <trkpt lat="49.08265" lon="2.02716">
        <ele>115.4</ele>
        <time>2023-06-03T14:10:43Z</time>
      </trkpt>
      <trkpt lat="49.08259" lon="2.02726">
        <ele>115</ele>
        <time>2023-06-03T14:10:49Z</time>
      </trkpt>
      <trkpt lat="49.08253" lon="2.02735">
        <ele>115</ele>
        <time>2023-06-03T14:10:55Z</time>
      </trkpt>
      <trkpt lat="49.08244" lon="2.02743">
        <ele>115.6</ele>
        <time>2023-06-03T14:11:01Z</time>
      </trkpt>
      <trkpt lat="49.08237" lon="2.02751">
        <ele>116.1</ele>
        <time>2023-06-03T14:11:07Z</time>
      </trkpt>
      <trkpt lat="49.08231" lon="2.02754">
        <ele>116.5</ele>
        <time>2023-06-03T14:11:12Z</time>
      </trkpt>
      <trkpt lat="49.08225" lon="2.02763">
        <ele>116.9</ele>
        <time>2023-06-03T14:11:17Z</time>
      </trkpt>
      <trkpt lat="49.08217" lon="2.02771">
        <ele>117.3</ele>
        <time>2023-06-03T14:11:23Z</time>
      </trkpt>
      <trkpt lat="49.08209" lon="2.02779">
        <ele>117.6</ele>
        <time>2023-06-03T14:11:28Z</time>
      </trkpt>
      <trkpt lat="49.082" lon="2.02785">
        <ele>117.8</ele>
        <time>2023-06-03T14:11:34Z</time>
      </trkpt>
      <trkpt lat="49.08193" lon="2.02789">
        <ele>117.8</ele>
        <time>2023-06-03T14:11:39Z</time>
      </trkpt>
      <trkpt lat="49.08186" lon="2.02796">
        <ele>117.6</ele>
        <time>2023-06-03T14:11:45Z</time>
      </trkpt>
      <trkpt lat="49.0818" lon="2.02804">
        <ele>117.6</ele>
        <time>2023-06-03T14:11:50Z</time>
      </trkpt>
      <trkpt lat="49.08175" lon="2.02812">
        <ele>117.5</ele>
        <time>2023-06-03T14:11:55Z</time>
      </trkpt>
      <trkpt lat="49.08168" lon="2.02821">
        <ele>117.3</ele>
        <time>2023-06-03T14:12:01Z</time>
      </trkpt>
      <trkpt lat="49.08164" lon="2.02831">
        <ele>117</ele>
        <time>2023-06-03T14:12:06Z</time>
      </trkpt>
      <trkpt lat="49.08158" lon="2.02842">
        <ele>116.5</ele>
        <time>2023-06-03T14:12:12Z</time>
      </trkpt>
      <trkpt lat="49.08154" lon="2.02852">
        <ele>116.3</ele>
        <time>2023-06-03T14:12:17Z</time>
      </trkpt>
      <trkpt lat="49.08151" lon="2.0286">
        <ele>116.2</ele>
        <time>2023-06-03T14:12:22Z</time>
      </trkpt>
      <trkpt lat="49.08147" lon="2.02871">
        <ele>116.3</ele>
        <time>2023-06-03T14:12:28Z</time>
      </trkpt>
      <trkpt lat="49.08144" lon="2.0288">
        <ele>116.4</ele>
        <time>2023-06-03T14:12:33Z</time>
      </trkpt>
      <trkpt lat="49.08142" lon="2.0289">
        <ele>116.6</ele>
        <time>2023-06-03T14:12:38Z</time>
      </trkpt>
      <trkpt lat="49.08137" lon="2.02902">
        <ele>116.9</ele>
        <time>2023-06-03T14:12:44Z</time>
      </trkpt>
      <trkpt lat="49.08132" lon="2.02909">
        <ele>117.3</ele>
        <time>2023-06-03T14:12:50Z</time>
      </trkpt>
      <trkpt lat="49.0813" lon="2.02911">
        <ele>117.5</ele>
        <time>2023-06-03T14:12:55Z</time>
      </trkpt>
      <trkpt lat="49.08126" lon="2.02921">
        <ele>117.7</ele>
        <time>2023-06-03T14:13:00Z</time>
      </trkpt>
      <trkpt lat="49.08122" lon="2.02933">
        <ele>118</ele>
        <time>2023-06-03T14:13:06Z</time>
      </trkpt>
      <trkpt lat="49.08119" lon="2.02944">
        <ele>118.1</ele>
        <time>2023-06-03T14:13:12Z</time>
      </trkpt>
      <trkpt lat="49.08115" lon="2.02957">
        <ele>118.1</ele>
        <time>2023-06-03T14:13:18Z</time>
      </trkpt>
      <trkpt lat="49.0811" lon="2.02968">
        <ele>118.1</ele>
        <time>2023-06-03T14:13:23Z</time>
      </trkpt>
      <trkpt lat="49.08107" lon="2.02981">
        <ele>118.2</ele>
        <time>2023-06-03T14:13:29Z</time>
      </trkpt>
      <trkpt lat="49.08104" lon="2.02994">
        <ele>118.4</ele>
        <time>2023-06-03T14:13:35Z</time>
      </trkpt>
      <trkpt lat="49.081" lon="2.03008">
        <ele>118.6</ele>
        <time>2023-06-03T14:13:41Z</time>
      </trkpt>
      <trkpt lat="49.08096" lon="2.0302">
        <ele>118.8</ele>
        <time>2023-06-03T14:13:46Z</time>
      </trkpt>
      <trkpt lat="49.08093" lon="2.03037">
        <ele>119.2</ele>
        <time>2023-06-03T14:13:52Z</time>
      </trkpt>
      <trkpt lat="49.08089" lon="2.03051">
        <ele>119.4</ele>
        <time>2023-06-03T14:13:58Z</time>
      </trkpt>
      <trkpt lat="49.08085" lon="2.03065">
        <ele>119.3</ele>
        <time>2023-06-03T14:14:04Z</time>
      </trkpt>
      <trkpt lat="49.08082" lon="2.03078">
        <ele>119.2</ele>
        <time>2023-06-03T14:14:10Z</time>
      </trkpt>
      <trkpt lat="49.0808" lon="2.0309">
        <ele>119.1</ele>
        <time>2023-06-03T14:14:15Z</time>
      </trkpt>
      <trkpt lat="49.08078" lon="2.03101">
        <ele>119.2</ele>
        <time>2023-06-03T14:14:20Z</time>
      </trkpt>
      <trkpt lat="49.08076" lon="2.03113">
        <ele>119</ele>
        <time>2023-06-03T14:14:26Z</time>
      </trkpt>
      <trkpt lat="49.08071" lon="2.03123">
        <ele>118.8</ele>
        <time>2023-06-03T14:14:31Z</time>
      </trkpt>
      <trkpt lat="49.08067" lon="2.03137">
        <ele>118.6</ele>
        <time>2023-06-03T14:14:37Z</time>
      </trkpt>
      <trkpt lat="49.08063" lon="2.03148">
        <ele>118.4</ele>
        <time>2023-06-03T14:14:42Z</time>
      </trkpt>
      <trkpt lat="49.08058" lon="2.0316">
        <ele>118.2</ele>
        <time>2023-06-03T14:14:48Z</time>
      </trkpt>
      <trkpt lat="49.08056" lon="2.03171">
        <ele>118</ele>
        <time>2023-06-03T14:14:53Z</time>
      </trkpt>
      <trkpt lat="49.08054" lon="2.03183">
        <ele>118</ele>
        <time>2023-06-03T14:14:59Z</time>
      </trkpt>
      <trkpt lat="49.0805" lon="2.03194">
        <ele>117.8</ele>
        <time>2023-06-03T14:15:04Z</time>
      </trkpt>
      <trkpt lat="49.08046" lon="2.03207">
        <ele>117.7</ele>
        <time>2023-06-03T14:15:10Z</time>
      </trkpt>
      <trkpt lat="49.08043" lon="2.03217">
        <ele>117.6</ele>
        <time>2023-06-03T14:15:15Z</time>
      </trkpt>
      <trkpt lat="49.08039" lon="2.0323">
        <ele>117.5</ele>
        <time>2023-06-03T14:15:21Z</time>
      </trkpt>
      <trkpt lat="49.08036" lon="2.03242">
        <ele>117.4</ele>
        <time>2023-06-03T14:15:26Z</time>
      </trkpt>
      <trkpt lat="49.08034" lon="2.03254">
        <ele>117.3</ele>
        <time>2023-06-03T14:15:32Z</time>
      </trkpt>
      <trkpt lat="49.08033" lon="2.03265">
        <ele>117.3</ele>
        <time>2023-06-03T14:15:37Z</time>
      </trkpt>
      <trkpt lat="49.0803" lon="2.03279">
        <ele>117.3</ele>
        <time>2023-06-03T14:15:43Z</time>
      </trkpt>
      <trkpt lat="49.08024" lon="2.03291">
        <ele>117.3</ele>
        <time>2023-06-03T14:15:49Z</time>
      </trkpt>
      <trkpt lat="49.0802" lon="2.03303">
        <ele>117.1</ele>
        <time>2023-06-03T14:15:55Z</time>
      </trkpt>
      <trkpt lat="49.08014" lon="2.03315">
        <ele>116.9</ele>
        <time>2023-06-03T14:16:01Z</time>
      </trkpt>
      <trkpt lat="49.08011" lon="2.03324">
        <ele>116.8</ele>
        <time>2023-06-03T14:16:06Z</time>
      </trkpt>
      <trkpt lat="49.08007" lon="2.03338">
        <ele>116.9</ele>
        <time>2023-06-03T14:16:12Z</time>
      </trkpt>
      <trkpt lat="49.08003" lon="2.03349">
        <ele>116.7</ele>
        <time>2023-06-03T14:16:18Z</time>
      </trkpt>
      <trkpt lat="49.07997" lon="2.03361">
        <ele>116.5</ele>
        <time>2023-06-03T14:16:23Z</time>
      </trkpt>
      <trkpt lat="49.0799" lon="2.03374">
        <ele>116.5</ele>
        <time>2023-06-03T14:16:29Z</time>
      </trkpt>
      <trkpt lat="49.07986" lon="2.03382">
        <ele>116.5</ele>
        <time>2023-06-03T14:16:34Z</time>
      </trkpt>
      <trkpt lat="49.07981" lon="2.03392">
        <ele>116.5</ele>
        <time>2023-06-03T14:16:39Z</time>
      </trkpt>
      <trkpt lat="49.07977" lon="2.03402">
        <ele>116.7</ele>
        <time>2023-06-03T14:16:44Z</time>
      </trkpt>
      <trkpt lat="49.07972" lon="2.03413">
        <ele>116.8</ele>
        <time>2023-06-03T14:16:49Z</time>
      </trkpt>
      <trkpt lat="49.07966" lon="2.03424">
        <ele>116.8</ele>
        <time>2023-06-03T14:16:55Z</time>
      </trkpt>
      <trkpt lat="49.0796" lon="2.03435">
        <ele>116.8</ele>
        <time>2023-06-03T14:17:01Z</time>
      </trkpt>
      <trkpt lat="49.07954" lon="2.03447">
        <ele>116.6</ele>
        <time>2023-06-03T14:17:07Z</time>
      </trkpt>
      <trkpt lat="49.07949" lon="2.03459">
        <ele>116.6</ele>
        <time>2023-06-03T14:17:13Z</time>
      </trkpt>
      <trkpt lat="49.07945" lon="2.0347">
        <ele>116.6</ele>
        <time>2023-06-03T14:17:19Z</time>
      </trkpt>
      <trkpt lat="49.0794" lon="2.03482">
        <ele>116.4</ele>
        <time>2023-06-03T14:17:25Z</time>
      </trkpt>
      <trkpt lat="49.07935" lon="2.03492">
        <ele>116.4</ele>
        <time>2023-06-03T14:17:31Z</time>
      </trkpt>
      <trkpt lat="49.07926" lon="2.03504">
        <ele>116.5</ele>
        <time>2023-06-03T14:17:37Z</time>
      </trkpt>
      <trkpt lat="49.0792" lon="2.03517">
        <ele>116.4</ele>
        <time>2023-06-03T14:17:43Z</time>
      </trkpt>
      <trkpt lat="49.07914" lon="2.03527">
        <ele>116.3</ele>
        <time>2023-06-03T14:17:49Z</time>
      </trkpt>
      <trkpt lat="49.07909" lon="2.03536">
        <ele>116.3</ele>
        <time>2023-06-03T14:17:54Z</time>
      </trkpt>
      <trkpt lat="49.07904" lon="2.03544">
        <ele>116.5</ele>
        <time>2023-06-03T14:17:59Z</time>
      </trkpt>
      <trkpt lat="49.07897" lon="2.03557">
        <ele>116.7</ele>
        <time>2023-06-03T14:18:05Z</time>
      </trkpt>
      <trkpt lat="49.0789" lon="2.03566">
        <ele>116.9</ele>
        <time>2023-06-03T14:18:11Z</time>
      </trkpt>
      <trkpt lat="49.07882" lon="2.03576">
        <ele>116.9</ele>
        <time>2023-06-03T14:18:17Z</time>
      </trkpt>
      <trkpt lat="49.07876" lon="2.03582">
        <ele>116.8</ele>
        <time>2023-06-03T14:18:22Z</time>
      </trkpt>
      <trkpt lat="49.07869" lon="2.03588">
        <ele>116.8</ele>
        <time>2023-06-03T14:18:27Z</time>
      </trkpt>
      <trkpt lat="49.07862" lon="2.03595">
        <ele>116.9</ele>
        <time>2023-06-03T14:18:32Z</time>
      </trkpt>
      <trkpt lat="49.07855" lon="2.03604">
        <ele>117</ele>
        <time>2023-06-03T14:18:38Z</time>
      </trkpt>
      <trkpt lat="49.07851" lon="2.03613">
        <ele>117</ele>
        <time>2023-06-03T14:18:43Z</time>
      </trkpt>
      <trkpt lat="49.07845" lon="2.03623">
        <ele>117.1</ele>
        <time>2023-06-03T14:18:49Z</time>
      </trkpt>
      <trkpt lat="49.07838" lon="2.03633">
        <ele>117.2</ele>
        <time>2023-06-03T14:18:55Z</time>
      </trkpt>
      <trkpt lat="49.07828" lon="2.03642">
        <ele>117.4</ele>
        <time>2023-06-03T14:19:01Z</time>
      </trkpt>
      <trkpt lat="49.07822" lon="2.03653">
        <ele>117.6</ele>
        <time>2023-06-03T14:19:06Z</time>
      </trkpt>
      <trkpt lat="49.07817" lon="2.03666">
        <ele>117.6</ele>
        <time>2023-06-03T14:19:12Z</time>
      </trkpt>
      <trkpt lat="49.07812" lon="2.03676">
        <ele>117.7</ele>
        <time>2023-06-03T14:19:18Z</time>
      </trkpt>
      <trkpt lat="49.07805" lon="2.03683">
        <ele>117.7</ele>
        <time>2023-06-03T14:19:24Z</time>
      </trkpt>
      <trkpt lat="49.07798" lon="2.03691">
        <ele>117.6</ele>
        <time>2023-06-03T14:19:29Z</time>
      </trkpt>
      <trkpt lat="49.07794" lon="2.037">
        <ele>117.6</ele>
        <time>2023-06-03T14:19:34Z</time>
      </trkpt>
      <trkpt lat="49.07788" lon="2.0371">
        <ele>117.4</ele>
        <time>2023-06-03T14:19:40Z</time>
      </trkpt>
      <trkpt lat="49.07783" lon="2.03718">
        <ele>117.2</ele>
        <time>2023-06-03T14:19:45Z</time>
      </trkpt>
      <trkpt lat="49.07775" lon="2.03728">
        <ele>117.3</ele>
        <time>2023-06-03T14:19:51Z</time>
      </trkpt>
      <trkpt lat="49.07768" lon="2.03739">
        <ele>117.4</ele>
        <time>2023-06-03T14:19:56Z</time>
      </trkpt>
      <trkpt lat="49.07759" lon="2.0375">
        <ele>117.6</ele>
        <time>2023-06-03T14:20:02Z</time>
      </trkpt>
      <trkpt lat="49.07753" lon="2.03763">
        <ele>117.8</ele>
        <time>2023-06-03T14:20:08Z</time>
      </trkpt>
      <trkpt lat="49.0775" lon="2.03772">
        <ele>117.8</ele>
        <time>2023-06-03T14:20:13Z</time>
      </trkpt>
      <trkpt lat="49.07748" lon="2.03782">
        <ele>117.6</ele>
        <time>2023-06-03T14:20:18Z</time>
      </trkpt>
      <trkpt lat="49.07744" lon="2.03794">
        <ele>117.1</ele>
        <time>2023-06-03T14:20:24Z</time>
      </trkpt>
      <trkpt lat="49.07739" lon="2.03801">
        <ele>116.8</ele>
        <time>2023-06-03T14:20:29Z</time>
      </trkpt>
      <trkpt lat="49.07732" lon="2.0381">
        <ele>116.4</ele>
        <time>2023-06-03T14:20:34Z</time>
      </trkpt>
      <trkpt lat="49.07726" lon="2.03823">
        <ele>115.9</ele>
        <time>2023-06-03T14:20:40Z</time>
      </trkpt>
      <trkpt lat="49.07719" lon="2.03833">
        <ele>115.6</ele>
        <time>2023-06-03T14:20:46Z</time>
      </trkpt>
      <trkpt lat="49.07714" lon="2.03844">
        <ele>115.4</ele>
        <time>2023-06-03T14:20:51Z</time>
      </trkpt>
      <trkpt lat="49.07707" lon="2.03848">
        <ele>115.4</ele>
        <time>2023-06-03T14:20:56Z</time>
      </trkpt>
      <trkpt lat="49.077" lon="2.03854">
        <ele>115.5</ele>
        <time>2023-06-03T14:21:02Z</time>
      </trkpt>
      <trkpt lat="49.07694" lon="2.03861">
        <ele>115.7</ele>
        <time>2023-06-03T14:21:07Z</time>
      </trkpt>
      <trkpt lat="49.07689" lon="2.03869">
        <ele>115.8</ele>
        <time>2023-06-03T14:21:12Z</time>
      </trkpt>
      <trkpt lat="49.0768" lon="2.03878">
        <ele>116.1</ele>
        <time>2023-06-03T14:21:18Z</time>
      </trkpt>
      <trkpt lat="49.07674" lon="2.03887">
        <ele>116.5</ele>
        <time>2023-06-03T14:21:23Z</time>
      </trkpt>
      <trkpt lat="49.07669" lon="2.03889">
        <ele>116.6</ele>
        <time>2023-06-03T14:21:28Z</time>
      </trkpt>
      <trkpt lat="49.07659" lon="2.03895">
        <ele>117</ele>
        <time>2023-06-03T14:21:34Z</time>
      </trkpt>
      <trkpt lat="49.07653" lon="2.03905">
        <ele>117.1</ele>
        <time>2023-06-03T14:21:40Z</time>
      </trkpt>
      <trkpt lat="49.07648" lon="2.03911">
        <ele>117.1</ele>
        <time>2023-06-03T14:21:45Z</time>
      </trkpt>
      <trkpt lat="49.07642" lon="2.03917">
        <ele>117</ele>
        <time>2023-06-03T14:21:51Z</time>
      </trkpt>
      <trkpt lat="49.07635" lon="2.03923">
        <ele>116.6</ele>
        <time>2023-06-03T14:21:56Z</time>
      </trkpt>
      <trkpt lat="49.07628" lon="2.0393">
        <ele>116.1</ele>
        <time>2023-06-03T14:22:02Z</time>
      </trkpt>
      <trkpt lat="49.07623" lon="2.03939">
        <ele>115.7</ele>
        <time>2023-06-03T14:22:08Z</time>
      </trkpt>
      <trkpt lat="49.07615" lon="2.03945">
        <ele>115.4</ele>
        <time>2023-06-03T14:22:13Z</time>
      </trkpt>
      <trkpt lat="49.07607" lon="2.03956">
        <ele>115.1</ele>
        <time>2023-06-03T14:22:19Z</time>
      </trkpt>
      <trkpt lat="49.07601" lon="2.03966">
        <ele>115.1</ele>
        <time>2023-06-03T14:22:24Z</time>
      </trkpt>
      <trkpt lat="49.07596" lon="2.03979">
        <ele>115.1</ele>
        <time>2023-06-03T14:22:30Z</time>
      </trkpt>
      <trkpt lat="49.07592" lon="2.0399">
        <ele>115.3</ele>
        <time>2023-06-03T14:22:36Z</time>
      </trkpt>
      <trkpt lat="49.07586" lon="2.03997">
        <ele>115.3</ele>
        <time>2023-06-03T14:22:42Z</time>
      </trkpt>
      <trkpt lat="49.07577" lon="2.03993">
        <ele>115.3</ele>
        <time>2023-06-03T14:22:48Z</time>
      </trkpt>
      <trkpt lat="49.07571" lon="2.03984">
        <ele>115.3</ele>
        <time>2023-06-03T14:22:53Z</time>
      </trkpt>
      <trkpt lat="49.07565" lon="2.0397">
        <ele>115.6</ele>
        <time>2023-06-03T14:22:59Z</time>
      </trkpt>
      <trkpt lat="49.07562" lon="2.0396">
        <ele>115.9</ele>
        <time>2023-06-03T14:23:04Z</time>
      </trkpt>
      <trkpt lat="49.07559" lon="2.03952">
        <ele>116.2</ele>
        <time>2023-06-03T14:23:09Z</time>
      </trkpt>
      <trkpt lat="49.07552" lon="2.03941">
        <ele>116.2</ele>
        <time>2023-06-03T14:23:15Z</time>
      </trkpt>
      <trkpt lat="49.07548" lon="2.03928">
        <ele>116.2</ele>
        <time>2023-06-03T14:23:20Z</time>
      </trkpt>
      <trkpt lat="49.07543" lon="2.03917">
        <ele>116.1</ele>
        <time>2023-06-03T14:23:26Z</time>
      </trkpt>
      <trkpt lat="49.07537" lon="2.03908">
        <ele>116</ele>
        <time>2023-06-03T14:23:31Z</time>
      </trkpt>
      <trkpt lat="49.07532" lon="2.03896">
        <ele>115.9</ele>
        <time>2023-06-03T14:23:39Z</time>
      </trkpt>
      <trkpt lat="49.07532" lon="2.03897">
        <ele>116</ele>
        <time>2023-06-03T14:23:44Z</time>
      </trkpt>
      <trkpt lat="49.07531" lon="2.03883">
        <ele>116.1</ele>
        <time>2023-06-03T14:23:50Z</time>
      </trkpt>
      <trkpt lat="49.07534" lon="2.03868">
        <ele>116</ele>
        <time>2023-06-03T14:23:56Z</time>
      </trkpt>
      <trkpt lat="49.07539" lon="2.03855">
        <ele>115.7</ele>
        <time>2023-06-03T14:24:02Z</time>
      </trkpt>
      <trkpt lat="49.07542" lon="2.03844">
        <ele>115.5</ele>
        <time>2023-06-03T14:24:07Z</time>
      </trkpt>
      <trkpt lat="49.07544" lon="2.03833">
        <ele>115.1</ele>
        <time>2023-06-03T14:24:12Z</time>
      </trkpt>
      <trkpt lat="49.07545" lon="2.03823">
        <ele>114.6</ele>
        <time>2023-06-03T14:24:17Z</time>
      </trkpt>
      <trkpt lat="49.07549" lon="2.0381">
        <ele>113.9</ele>
        <time>2023-06-03T14:24:23Z</time>
      </trkpt>
      <trkpt lat="49.07552" lon="2.03798">
        <ele>113.5</ele>
        <time>2023-06-03T14:24:28Z</time>
      </trkpt>
      <trkpt lat="49.07554" lon="2.03782">
        <ele>113</ele>
        <time>2023-06-03T14:24:34Z</time>
      </trkpt>
      <trkpt lat="49.07556" lon="2.03767">
        <ele>112.4</ele>
        <time>2023-06-03T14:24:40Z</time>
      </trkpt>
      <trkpt lat="49.07561" lon="2.03754">
        <ele>112.2</ele>
        <time>2023-06-03T14:24:46Z</time>
      </trkpt>
      <trkpt lat="49.07566" lon="2.03745">
        <ele>112.1</ele>
        <time>2023-06-03T14:24:52Z</time>
      </trkpt>
      <trkpt lat="49.07572" lon="2.03739">
        <ele>111.7</ele>
        <time>2023-06-03T14:24:57Z</time>
      </trkpt>
      <trkpt lat="49.07578" lon="2.03731">
        <ele>111.4</ele>
        <time>2023-06-03T14:25:02Z</time>
      </trkpt>
      <trkpt lat="49.07586" lon="2.03723">
        <ele>110.9</ele>
        <time>2023-06-03T14:25:08Z</time>
      </trkpt>
      <trkpt lat="49.07589" lon="2.03715">
        <ele>110.6</ele>
        <time>2023-06-03T14:25:13Z</time>
      </trkpt>
      <trkpt lat="49.07592" lon="2.03705">
        <ele>110.2</ele>
        <time>2023-06-03T14:25:19Z</time>
      </trkpt>
      <trkpt lat="49.07593" lon="2.03698">
        <ele>109.7</ele>
        <time>2023-06-03T14:25:25Z</time>
      </trkpt>
      <trkpt lat="49.07596" lon="2.03692">
        <ele>109</ele>
        <time>2023-06-03T14:25:31Z</time>
      </trkpt>
      <trkpt lat="49.07601" lon="2.03684">
        <ele>108.3</ele>
        <time>2023-06-03T14:25:37Z</time>
      </trkpt>
      <trkpt lat="49.07604" lon="2.03677">
        <ele>107.8</ele>
        <time>2023-06-03T14:25:42Z</time>
      </trkpt>
      <trkpt lat="49.07604" lon="2.03665">
        <ele>107.4</ele>
        <time>2023-06-03T14:25:48Z</time>
      </trkpt>
      <trkpt lat="49.07598" lon="2.03662">
        <ele>106.9</ele>
        <time>2023-06-03T14:25:54Z</time>
      </trkpt>
      <trkpt lat="49.07591" lon="2.03668">
        <ele>106.2</ele>
        <time>2023-06-03T14:25:59Z</time>
      </trkpt>
      <trkpt lat="49.07584" lon="2.03667">
        <ele>105.6</ele>
        <time>2023-06-03T14:26:04Z</time>
      </trkpt>
      <trkpt lat="49.07581" lon="2.0366">
        <ele>105</ele>
        <time>2023-06-03T14:26:09Z</time>
      </trkpt>
      <trkpt lat="49.07573" lon="2.03653">
        <ele>104.3</ele>
        <time>2023-06-03T14:26:15Z</time>
      </trkpt>
      <trkpt lat="49.07568" lon="2.03646">
        <ele>103.2</ele>
        <time>2023-06-03T14:26:21Z</time>
      </trkpt>
      <trkpt lat="49.07561" lon="2.03639">
        <ele>102</ele>
        <time>2023-06-03T14:26:27Z</time>
      </trkpt>
      <trkpt lat="49.07553" lon="2.03628">
        <ele>101.1</ele>
        <time>2023-06-03T14:26:33Z</time>
      </trkpt>
      <trkpt lat="49.07551" lon="2.03627">
        <ele>100.5</ele>
        <time>2023-06-03T14:26:39Z</time>
      </trkpt>
      <trkpt lat="49.07551" lon="2.03627">
        <ele>99.9</ele>
        <time>2023-06-03T14:26:44Z</time>
      </trkpt>
      <trkpt lat="49.07542" lon="2.03626">
        <ele>99</ele>
        <time>2023-06-03T14:26:50Z</time>
      </trkpt>
      <trkpt lat="49.07535" lon="2.03625">
        <ele>97.8</ele>
        <time>2023-06-03T14:26:55Z</time>
      </trkpt>
      <trkpt lat="49.07526" lon="2.03622">
        <ele>96.4</ele>
        <time>2023-06-03T14:27:01Z</time>
      </trkpt>
      <trkpt lat="49.07519" lon="2.0362">
        <ele>95.3</ele>
        <time>2023-06-03T14:27:06Z</time>
      </trkpt>
      <trkpt lat="49.07511" lon="2.03619">
        <ele>93.8</ele>
        <time>2023-06-03T14:27:12Z</time>
      </trkpt>
      <trkpt lat="49.07499" lon="2.03618">
        <ele>92.6</ele>
        <time>2023-06-03T14:27:18Z</time>
      </trkpt>
      <trkpt lat="49.07491" lon="2.03619">
        <ele>91.6</ele>
        <time>2023-06-03T14:27:23Z</time>
      </trkpt>
      <trkpt lat="49.07482" lon="2.03623">
        <ele>90</ele>
        <time>2023-06-03T14:27:29Z</time>
      </trkpt>
      <trkpt lat="49.07477" lon="2.03623">
        <ele>88.7</ele>
        <time>2023-06-03T14:27:34Z</time>
      </trkpt>
      <trkpt lat="49.07471" lon="2.03621">
        <ele>87.4</ele>
        <time>2023-06-03T14:27:39Z</time>
      </trkpt>
      <trkpt lat="49.07462" lon="2.0362">
        <ele>86.3</ele>
        <time>2023-06-03T14:27:45Z</time>
      </trkpt>
      <trkpt lat="49.07458" lon="2.03621">
        <ele>85.3</ele>
        <time>2023-06-03T14:27:50Z</time>
      </trkpt>
      <trkpt lat="49.07453" lon="2.03621">
        <ele>84.4</ele>
        <time>2023-06-03T14:27:55Z</time>
      </trkpt>
      <trkpt lat="49.07447" lon="2.03622">
        <ele>83.7</ele>
        <time>2023-06-03T14:28:01Z</time>
      </trkpt>
      <trkpt lat="49.07438" lon="2.03623">
        <ele>83.2</ele>
        <time>2023-06-03T14:28:06Z</time>
      </trkpt>
      <trkpt lat="49.07423" lon="2.03625">
        <ele>82.5</ele>
        <time>2023-06-03T14:28:12Z</time>
      </trkpt>
      <trkpt lat="49.07413" lon="2.03621">
        <ele>82.1</ele>
        <time>2023-06-03T14:28:18Z</time>
      </trkpt>
      <trkpt lat="49.07407" lon="2.03617">
        <ele>81.9</ele>
        <time>2023-06-03T14:28:24Z</time>
      </trkpt>
      <trkpt lat="49.07402" lon="2.03614">
        <ele>81.6</ele>
        <time>2023-06-03T14:28:30Z</time>
      </trkpt>
      <trkpt lat="49.07394" lon="2.03607">
        <ele>81.3</ele>
        <time>2023-06-03T14:28:36Z</time>
      </trkpt>
      <trkpt lat="49.07385" lon="2.03599">
        <ele>81.2</ele>
        <time>2023-06-03T14:28:41Z</time>
      </trkpt>
      <trkpt lat="49.07375" lon="2.03589">
        <ele>81.1</ele>
        <time>2023-06-03T14:28:47Z</time>
      </trkpt>
      <trkpt lat="49.07368" lon="2.03577">
        <ele>81.1</ele>
        <time>2023-06-03T14:28:53Z</time>
      </trkpt>
      <trkpt lat="49.07362" lon="2.0357">
        <ele>81.5</ele>
        <time>2023-06-03T14:28:59Z</time>
      </trkpt>
      <trkpt lat="49.07358" lon="2.03566">
        <ele>81.6</ele>
        <time>2023-06-03T14:29:04Z</time>
      </trkpt>
      <trkpt lat="49.07348" lon="2.03561">
        <ele>81.5</ele>
        <time>2023-06-03T14:29:10Z</time>
      </trkpt>
      <trkpt lat="49.07339" lon="2.03555">
        <ele>81.4</ele>
        <time>2023-06-03T14:29:15Z</time>
      </trkpt>
      <trkpt lat="49.0733" lon="2.03547">
        <ele>81.3</ele>
        <time>2023-06-03T14:29:21Z</time>
      </trkpt>
      <trkpt lat="49.07323" lon="2.03538">
        <ele>81.3</ele>
        <time>2023-06-03T14:29:26Z</time>
      </trkpt>
      <trkpt lat="49.07319" lon="2.0353">
        <ele>81.2</ele>
        <time>2023-06-03T14:29:31Z</time>
      </trkpt>
      <trkpt lat="49.07316" lon="2.03525">
        <ele>80.8</ele>
        <time>2023-06-03T14:29:37Z</time>
      </trkpt>
      <trkpt lat="49.07312" lon="2.03521">
        <ele>80.2</ele>
        <time>2023-06-03T14:29:42Z</time>
      </trkpt>
      <trkpt lat="49.07306" lon="2.03512">
        <ele>79.3</ele>
        <time>2023-06-03T14:29:48Z</time>
      </trkpt>
      <trkpt lat="49.07299" lon="2.03503">
        <ele>78.6</ele>
        <time>2023-06-03T14:29:53Z</time>
      </trkpt>
      <trkpt lat="49.07291" lon="2.03494">
        <ele>78</ele>
        <time>2023-06-03T14:29:59Z</time>
      </trkpt>
      <trkpt lat="49.07286" lon="2.03486">
        <ele>77.6</ele>
        <time>2023-06-03T14:30:04Z</time>
      </trkpt>
      <trkpt lat="49.07281" lon="2.03476">
        <ele>77.4</ele>
        <time>2023-06-03T14:30:09Z</time>
      </trkpt>
      <trkpt lat="49.07278" lon="2.03467">
        <ele>77.2</ele>
        <time>2023-06-03T14:30:15Z</time>
      </trkpt>
      <trkpt lat="49.07275" lon="2.03457">
        <ele>77.3</ele>
        <time>2023-06-03T14:30:21Z</time>
      </trkpt>
      <trkpt lat="49.07273" lon="2.03447">
        <ele>77.2</ele>
        <time>2023-06-03T14:30:27Z</time>
      </trkpt>
      <trkpt lat="49.07268" lon="2.03433">
        <ele>77.2</ele>
        <time>2023-06-03T14:30:32Z</time>
      </trkpt>
      <trkpt lat="49.07265" lon="2.03426">
        <ele>77.1</ele>
        <time>2023-06-03T14:30:37Z</time>
      </trkpt>
      <trkpt lat="49.07261" lon="2.03416">
        <ele>76.6</ele>
        <time>2023-06-03T14:30:43Z</time>
      </trkpt>
      <trkpt lat="49.07253" lon="2.03398">
        <ele>76.8</ele>
        <time>2023-06-03T14:30:49Z</time>
      </trkpt>
      <trkpt lat="49.07246" lon="2.03385">
        <ele>77</ele>
        <time>2023-06-03T14:30:55Z</time>
      </trkpt>
      <trkpt lat="49.07241" lon="2.03379">
        <ele>77.2</ele>
        <time>2023-06-03T14:31:00Z</time>
      </trkpt>
      <trkpt lat="49.07236" lon="2.03369">
        <ele>77.2</ele>
        <time>2023-06-03T14:31:06Z</time>
      </trkpt>
      <trkpt lat="49.07231" lon="2.03358">
        <ele>77.1</ele>
        <time>2023-06-03T14:31:11Z</time>
      </trkpt>
      <trkpt lat="49.07231" lon="2.03348">
        <ele>76.8</ele>
        <time>2023-06-03T14:31:17Z</time>
      </trkpt>
      <trkpt lat="49.07233" lon="2.0334">
        <ele>76.9</ele>
        <time>2023-06-03T14:31:22Z</time>
      </trkpt>
      <trkpt lat="49.07238" lon="2.0333">
        <ele>77</ele>
        <time>2023-06-03T14:31:28Z</time>
      </trkpt>
      <trkpt lat="49.07246" lon="2.03327">
        <ele>77.1</ele>
        <time>2023-06-03T14:31:33Z</time>
      </trkpt>
      <trkpt lat="49.07254" lon="2.03319">
        <ele>77.2</ele>
        <time>2023-06-03T14:31:39Z</time>
      </trkpt>
      <trkpt lat="49.07262" lon="2.0331">
        <ele>77.1</ele>
        <time>2023-06-03T14:31:45Z</time>
      </trkpt>
      <trkpt lat="49.07269" lon="2.03304">
        <ele>77.2</ele>
        <time>2023-06-03T14:31:51Z</time>
      </trkpt>
      <trkpt lat="49.07274" lon="2.03299">
        <ele>77.2</ele>
        <time>2023-06-03T14:31:56Z</time>
      </trkpt>
      <trkpt lat="49.07281" lon="2.03294">
        <ele>77</ele>
        <time>2023-06-03T14:32:01Z</time>
      </trkpt>
      <trkpt lat="49.07291" lon="2.03286">
        <ele>76.7</ele>
        <time>2023-06-03T14:32:07Z</time>
      </trkpt>
      <trkpt lat="49.073" lon="2.03276">
        <ele>76.3</ele>
        <time>2023-06-03T14:32:13Z</time>
      </trkpt>
      <trkpt lat="49.07307" lon="2.03267">
        <ele>76</ele>
        <time>2023-06-03T14:32:19Z</time>
      </trkpt>
      <trkpt lat="49.07313" lon="2.03261">
        <ele>75.8</ele>
        <time>2023-06-03T14:32:24Z</time>
      </trkpt>
      <trkpt lat="49.0732" lon="2.03259">
        <ele>75.5</ele>
        <time>2023-06-03T14:32:29Z</time>
      </trkpt>
      <trkpt lat="49.07326" lon="2.03264">
        <ele>75.1</ele>
        <time>2023-06-03T14:32:34Z</time>
      </trkpt>
      <trkpt lat="49.07334" lon="2.03276">
        <ele>74.5</ele>
        <time>2023-06-03T14:32:40Z</time>
      </trkpt>
      <trkpt lat="49.07341" lon="2.0329">
        <ele>74.1</ele>
        <time>2023-06-03T14:32:46Z</time>
      </trkpt>
      <trkpt lat="49.07347" lon="2.03299">
        <ele>73.7</ele>
        <time>2023-06-03T14:32:51Z</time>
      </trkpt>
      <trkpt lat="49.07353" lon="2.03307">
        <ele>73.2</ele>
        <time>2023-06-03T14:32:57Z</time>
      </trkpt>
      <trkpt lat="49.0736" lon="2.03307">
        <ele>72.6</ele>
        <time>2023-06-03T14:33:03Z</time>
      </trkpt>
      <trkpt lat="49.07366" lon="2.033">
        <ele>72.3</ele>
        <time>2023-06-03T14:33:08Z</time>
      </trkpt>
      <trkpt lat="49.07374" lon="2.03291">
        <ele>71.9</ele>
        <time>2023-06-03T14:33:14Z</time>
      </trkpt>
      <trkpt lat="49.07381" lon="2.03283">
        <ele>71.7</ele>
        <time>2023-06-03T14:33:19Z</time>
      </trkpt>
      <trkpt lat="49.0739" lon="2.03273">
        <ele>71.6</ele>
        <time>2023-06-03T14:33:25Z</time>
      </trkpt>
      <trkpt lat="49.07396" lon="2.03264">
        <ele>71.8</ele>
        <time>2023-06-03T14:33:30Z</time>
      </trkpt>
      <trkpt lat="49.07399" lon="2.03256">
        <ele>72.1</ele>
        <time>2023-06-03T14:33:35Z</time>
      </trkpt>
      <trkpt lat="49.07402" lon="2.0325">
        <ele>72.4</ele>
        <time>2023-06-03T14:33:41Z</time>
      </trkpt>
      <trkpt lat="49.07405" lon="2.03241">
        <ele>72.7</ele>
        <time>2023-06-03T14:33:47Z</time>
      </trkpt>
      <trkpt lat="49.07409" lon="2.03234">
        <ele>73</ele>
        <time>2023-06-03T14:33:53Z</time>
      </trkpt>
      <trkpt lat="49.07412" lon="2.03227">
        <ele>73.4</ele>
        <time>2023-06-03T14:33:58Z</time>
      </trkpt>
      <trkpt lat="49.07416" lon="2.03219">
        <ele>73.8</ele>
        <time>2023-06-03T14:34:03Z</time>
      </trkpt>
      <trkpt lat="49.07424" lon="2.03211">
        <ele>74</ele>
        <time>2023-06-03T14:34:09Z</time>
      </trkpt>
      <trkpt lat="49.07429" lon="2.03208">
        <ele>74</ele>
        <time>2023-06-03T14:34:14Z</time>
      </trkpt>
      <trkpt lat="49.07437" lon="2.03204">
        <ele>74.1</ele>
        <time>2023-06-03T14:34:20Z</time>
      </trkpt>
      <trkpt lat="49.07439" lon="2.03198">
        <ele>74.3</ele>
        <time>2023-06-03T14:34:25Z</time>
      </trkpt>
      <trkpt lat="49.07441" lon="2.03189">
        <ele>74.7</ele>
        <time>2023-06-03T14:34:31Z</time>
      </trkpt>
      <trkpt lat="49.07445" lon="2.03177">
        <ele>74.9</ele>
        <time>2023-06-03T14:34:37Z</time>
      </trkpt>
      <trkpt lat="49.0745" lon="2.03164">
        <ele>75</ele>
        <time>2023-06-03T14:34:42Z</time>
      </trkpt>
      <trkpt lat="49.07455" lon="2.0315">
        <ele>75.3</ele>
        <time>2023-06-03T14:34:48Z</time>
      </trkpt>
      <trkpt lat="49.07459" lon="2.03137">
        <ele>75.7</ele>
        <time>2023-06-03T14:34:53Z</time>
      </trkpt>
      <trkpt lat="49.07461" lon="2.03122">
        <ele>76.2</ele>
        <time>2023-06-03T14:34:59Z</time>
      </trkpt>
      <trkpt lat="49.07465" lon="2.0311">
        <ele>76.5</ele>
        <time>2023-06-03T14:35:05Z</time>
      </trkpt>
      <trkpt lat="49.07468" lon="2.03102">
        <ele>76.7</ele>
        <time>2023-06-03T14:35:10Z</time>
      </trkpt>
      <trkpt lat="49.07471" lon="2.03091">
        <ele>77</ele>
        <time>2023-06-03T14:35:15Z</time>
      </trkpt>
      <trkpt lat="49.07475" lon="2.0308">
        <ele>77.3</ele>
        <time>2023-06-03T14:35:21Z</time>
      </trkpt>
      <trkpt lat="49.07479" lon="2.03069">
        <ele>77.6</ele>
        <time>2023-06-03T14:35:27Z</time>
      </trkpt>
      <trkpt lat="49.07483" lon="2.03058">
        <ele>77.7</ele>
        <time>2023-06-03T14:35:33Z</time>
      </trkpt>
      <trkpt lat="49.07487" lon="2.03047">
        <ele>77.5</ele>
        <time>2023-06-03T14:35:38Z</time>
      </trkpt>
      <trkpt lat="49.0749" lon="2.03036">
        <ele>76.9</ele>
        <time>2023-06-03T14:35:44Z</time>
      </trkpt>
      <trkpt lat="49.07493" lon="2.03026">
        <ele>76.2</ele>
        <time>2023-06-03T14:35:49Z</time>
      </trkpt>
      <trkpt lat="49.07494" lon="2.03013">
        <ele>75.5</ele>
        <time>2023-06-03T14:35:55Z</time>
      </trkpt>
      <trkpt lat="49.07495" lon="2.02999">
        <ele>74.7</ele>
        <time>2023-06-03T14:36:00Z</time>
      </trkpt>
      <trkpt lat="49.07497" lon="2.02979">
        <ele>74.5</ele>
        <time>2023-06-03T14:36:06Z</time>
      </trkpt>
      <trkpt lat="49.07501" lon="2.02964">
        <ele>74.5</ele>
        <time>2023-06-03T14:36:11Z</time>
      </trkpt>
      <trkpt lat="49.07506" lon="2.02952">
        <ele>74.8</ele>
        <time>2023-06-03T14:36:17Z</time>
      </trkpt>
      <trkpt lat="49.07512" lon="2.02946">
        <ele>75.2</ele>
        <time>2023-06-03T14:36:22Z</time>
      </trkpt>
      <trkpt lat="49.07519" lon="2.02946">
        <ele>75.7</ele>
        <time>2023-06-03T14:36:27Z</time>
      </trkpt>
      <trkpt lat="49.07528" lon="2.02945">
        <ele>76.4</ele>
        <time>2023-06-03T14:36:33Z</time>
      </trkpt>
      <trkpt lat="49.07534" lon="2.02937">
        <ele>76.9</ele>
        <time>2023-06-03T14:36:39Z</time>
      </trkpt>
      <trkpt lat="49.07533" lon="2.02929">
        <ele>77.1</ele>
        <time>2023-06-03T14:36:45Z</time>
      </trkpt>
      <trkpt lat="49.07533" lon="2.02917">
        <ele>77.3</ele>
        <time>2023-06-03T14:36:50Z</time>
      </trkpt>
      <trkpt lat="49.07532" lon="2.02903">
        <ele>77.5</ele>
        <time>2023-06-03T14:36:55Z</time>
      </trkpt>
      <trkpt lat="49.0753" lon="2.02888">
        <ele>77.8</ele>
        <time>2023-06-03T14:37:01Z</time>
      </trkpt>
      <trkpt lat="49.07528" lon="2.02873">
        <ele>77.9</ele>
        <time>2023-06-03T14:37:06Z</time>
      </trkpt>
      <trkpt lat="49.07529" lon="2.0286">
        <ele>77.9</ele>
        <time>2023-06-03T14:37:11Z</time>
      </trkpt>
      <trkpt lat="49.07532" lon="2.02849">
        <ele>78</ele>
        <time>2023-06-03T14:37:16Z</time>
      </trkpt>
      <trkpt lat="49.07536" lon="2.02837">
        <ele>78.2</ele>
        <time>2023-06-03T14:37:22Z</time>
      </trkpt>
      <trkpt lat="49.07538" lon="2.02825">
        <ele>78.6</ele>
        <time>2023-06-03T14:37:28Z</time>
      </trkpt>
      <trkpt lat="49.07539" lon="2.02817">
        <ele>79.1</ele>
        <time>2023-06-03T14:37:33Z</time>
      </trkpt>
      <trkpt lat="49.07541" lon="2.02804">
        <ele>79.6</ele>
        <time>2023-06-03T14:37:39Z</time>
      </trkpt>
      <trkpt lat="49.07543" lon="2.0279">
        <ele>80.1</ele>
        <time>2023-06-03T14:37:45Z</time>
      </trkpt>
      <trkpt lat="49.07546" lon="2.02776">
        <ele>80.6</ele>
        <time>2023-06-03T14:37:50Z</time>
      </trkpt>
      <trkpt lat="49.0755" lon="2.02763">
        <ele>81.2</ele>
        <time>2023-06-03T14:37:56Z</time>
      </trkpt>
      <trkpt lat="49.07553" lon="2.02752">
        <ele>81.5</ele>
        <time>2023-06-03T14:38:02Z</time>
      </trkpt>
      <trkpt lat="49.07557" lon="2.02743">
        <ele>81.8</ele>
        <time>2023-06-03T14:38:07Z</time>
      </trkpt>
      <trkpt lat="49.0756" lon="2.02733">
        <ele>82</ele>
        <time>2023-06-03T14:38:12Z</time>
      </trkpt>
      <trkpt lat="49.07562" lon="2.02717">
        <ele>82.1</ele>
        <time>2023-06-03T14:38:18Z</time>
      </trkpt>
      <trkpt lat="49.07564" lon="2.02702">
        <ele>82.5</ele>
        <time>2023-06-03T14:38:24Z</time>
      </trkpt>
      <trkpt lat="49.07566" lon="2.02689">
        <ele>82.6</ele>
        <time>2023-06-03T14:38:29Z</time>
      </trkpt>
      <trkpt lat="49.07569" lon="2.02675">
        <ele>82.9</ele>
        <time>2023-06-03T14:38:35Z</time>
      </trkpt>
      <trkpt lat="49.07569" lon="2.02662">
        <ele>83.2</ele>
        <time>2023-06-03T14:38:40Z</time>
      </trkpt>
      <trkpt lat="49.07571" lon="2.0265">
        <ele>83.5</ele>
        <time>2023-06-03T14:38:46Z</time>
      </trkpt>
      <trkpt lat="49.07573" lon="2.0264">
        <ele>83.7</ele>
        <time>2023-06-03T14:38:51Z</time>
      </trkpt>
      <trkpt lat="49.07574" lon="2.02629">
        <ele>83.8</ele>
        <time>2023-06-03T14:38:56Z</time>
      </trkpt>
      <trkpt lat="49.07575" lon="2.0262">
        <ele>83.8</ele>
        <time>2023-06-03T14:39:02Z</time>
      </trkpt>
      <trkpt lat="49.07576" lon="2.02618">
        <ele>83.7</ele>
        <time>2023-06-03T14:39:07Z</time>
      </trkpt>
      <trkpt lat="49.07576" lon="2.0262">
        <ele>83.7</ele>
        <time>2023-06-03T14:39:13Z</time>
      </trkpt>
    </trkseg>
  </trk>
</gpx>